[[{"header":{"parameterUnit":"m.s-1","parameterCategory":1,"la1":30.6,"la2":28.766,"lo1":-90.7593,"lo2":-88.6598,"dx":0.0162,"dy":0.0183,"nx":116,"ny":114,"refTime":"2022-12-09T18:00:00:Z","depth":0,"parameterNumber":2,"parameterNumberName":"U-component_of_WINDS"},"data":[0.0,0.0,0.0,0.0,0.0,0.0,0.0,0.0,0.0,0.0,0.0,0.0,0.0,0.0,0.0,0.0,0.0,0.0,0.0,0.0,0.0,0.0,0.0,0.0,0.0,0.0,0.0,0.0,0.0,0.0,0.0,0.0,0.0,0.0,0.0,0.0,0.0,0.0,0.0,0.0,0.0,0.0,0.0,0.0,0.0,0.0,0.0,0.0,0.0,0.0,0.0,0.0,0.0,0.0,0.0,0.0,0.0,0.0,0.0,0.0,0.0,0.0,0.0,0.0,0.0,0.0,0.0,0.0,0.0,0.0,0.0,0.0,0.0,0.0,0.0,0.0,0.0,0.0,0.0,0.0,0.0,0.0,0.0,0.0,0.0,0.0,0.0,0.0,0.0,0.0,0.0,0.0,0.0,0.0,0.0,0.0,0.0,0.0,0.0,0.0,0.0,0.0,0.0,0.0,0.0,0.0,0.0,0.0,0.0,0.0,0.0,0.0,0.0,0.0,0.0,0.0,0.0,0.0,0.0,0.0,0.0,0.0,0.0,0.0,0.0,0.0,0.0,0.0,0.0,0.0,0.0,0.0,0.0,0.0,0.0,0.0,0.0,0.0,0.0,0.0,0.0,0.0,0.0,0.0,0.0,0.0,0.0,0.0,0.0,0.0,0.0,0.0,0.0,0.0,0.0,0.0,0.0,0.0,0.0,0.0,0.0,0.0,0.0,0.0,0.0,0.0,0.0,0.0,0.0,0.0,0.0,0.0,0.0,0.0,0.0,0.0,0.0,0.0,0.0,0.0,0.0,0.0,0.0,0.0,0.0,0.0,0.0,0.0,0.0,0.0,0.0,0.0,0.0,0.0,0.0,0.0,0.0,0.0,0.0,0.0,0.0,0.0,0.0,0.0,0.0,0.0,0.0,0.0,0.0,0.0,0.0,0.0,0.0,0.0,0.0,0.0,0.0,0.0,0.0,0.0,0.0,0.0,0.0,0.0,0.0,0.0,0.0,0.0,0.0,0.0,0.0,0.0,0.0,0.0,0.0,0.0,0.0,0.0,0.0,0.0,0.0,0.0,0.0,0.0,0.0,0.0,0.0,0.0,0.0,0.0,0.0,0.0,0.0,0.0,0.0,0.0,0.0,0.0,0.0,0.0,0.0,0.0,0.0,0.0,0.0,0.0,0.0,0.0,0.0,0.0,0.0,0.0,0.0,0.0,0.0,0.0,0.0,0.0,0.0,0.0,0.0,0.0,0.0,0.0,0.0,0.0,0.0,0.0,0.0,0.0,0.0,0.0,0.0,0.0,0.0,0.0,0.0,0.0,0.0,0.0,0.0,0.0,0.0,0.0,0.0,0.0,0.0,0.0,0.0,0.0,0.0,0.0,0.0,0.0,0.0,0.0,0.0,0.0,0.0,0.0,0.0,0.0,0.0,0.0,0.0,0.0,0.0,0.0,0.0,0.0,0.0,0.0,0.0,0.0,0.0,0.0,0.0,0.0,0.0,0.0,0.0,0.0,0.0,0.0,0.0,0.0,0.0,0.0,0.0,0.0,0.0,0.0,0.0,0.0,0.0,0.0,0.0,0.0,0.0,0.0,0.0,0.0,0.0,0.0,0.0,0.0,0.0,0.0,0.0,0.0,0.0,0.0,0.0,0.0,0.0,0.0,0.0,0.0,0.0,0.0,0.0,0.0,0.0,0.0,0.0,0.0,0.0,0.0,0.0,0.0,0.0,0.0,0.0,0.0,0.0,0.0,0.0,0.0,0.0,0.0,0.0,0.0,0.0,0.0,0.0,0.0,0.0,0.0,0.0,0.0,0.0,0.0,0.0,0.0,0.0,0.0,0.0,0.0,0.0,0.0,0.0,0.0,0.0,0.0,0.0,0.0,0.0,0.0,0.0,0.0,0.0,0.0,0.0,0.0,0.0,0.0,0.0,0.0,0.0,0.0,0.0,0.0,0.0,0.0,0.0,0.0,0.0,0.0,0.0,0.0,0.0,0.0,0.0,0.0,0.0,0.0,0.0,0.0,0.0,0.0,0.0,0.0,0.0,0.0,0.0,0.0,0.0,0.0,0.0,0.0,0.0,0.0,0.0,0.0,0.0,0.0,0.0,0.0,0.0,0.0,0.0,0.0,0.0,0.0,0.0,0.0,0.0,0.0,0.0,0.0,0.0,0.0,0.0,0.0,0.0,0.0,0.0,0.0,0.0,0.0,0.0,0.0,0.0,0.0,0.0,0.0,0.0,0.0,0.0,0.0,0.0,0.0,0.0,0.0,0.0,0.0,0.0,0.0,0.0,0.0,0.0,0.0,0.0,0.0,0.0,0.0,0.0,0.0,0.0,0.0,0.0,0.0,0.0,0.0,0.0,0.0,0.0,0.0,0.0,0.0,0.0,0.0,0.0,0.0,0.0,0.0,0.0,0.0,0.0,0.0,0.0,0.0,0.0,0.0,0.0,0.0,0.0,0.0,0.0,0.0,0.0,0.0,0.0,0.0,0.0,0.0,0.0,0.0,0.0,0.0,0.0,0.0,0.0,0.0,0.0,0.0,0.0,0.0,0.0,0.0,0.0,0.0,0.0,0.0,0.0,0.0,0.0,0.0,0.0,0.0,0.0,0.0,0.0,0.0,0.0,0.0,0.0,0.0,0.0,0.0,0.0,0.0,0.0,0.0,0.0,0.0,0.0,0.0,0.0,0.0,0.0,0.0,0.0,0.0,0.0,0.0,0.0,0.0,0.0,0.0,0.0,0.0,0.0,0.0,0.0,0.0,0.0,0.0,0.0,0.0,0.0,0.0,0.0,0.0,0.0,0.0,0.0,0.0,0.0,0.0,0.0,0.0,0.0,0.0,0.0,0.0,0.0,0.0,0.0,0.0,0.0,0.0,0.0,0.0,0.0,0.0,0.0,0.0,0.0,0.0,0.0,0.0,0.0,0.0,0.0,0.0,0.0,0.0,0.0,0.0,0.0,0.0,0.0,0.0,0.0,0.0,0.0,0.0,0.0,0.0,0.0,0.0,0.0,0.0,0.0,0.0,0.0,0.0,0.0,0.0,0.0,0.0,0.0,0.0,0.0,0.0,0.0,0.0,0.0,0.0,0.0,0.0,0.0,0.0,0.0,0.0,0.0,0.0,0.0,0.0,0.0,0.0,0.0,0.0,0.0,0.0,0.0,0.0,0.0,0.0,0.0,0.0,0.0,0.0,0.0,0.0,0.0,0.0,0.0,0.0,0.0,0.0,0.0,0.0,0.0,0.0,0.0,0.0,0.0,0.0,0.0,0.0,0.0,0.0,0.0,0.0,0.0,0.0,0.0,0.0,0.0,0.0,0.0,0.0,0.0,0.0,0.0,0.0,0.0,0.0,0.0,0.0,0.0,0.0,0.0,0.0,0.0,0.0,0.0,0.0,0.0,0.0,0.0,0.0,0.0,0.0,0.0,0.0,0.0,0.0,0.0,0.0,0.0,0.0,0.0,0.0,0.0,0.0,0.0,0.0,0.0,0.0,0.0,0.0,0.0,0.0,0.0,0.0,0.0,0.0,0.0,0.0,0.0,0.0,0.0,0.0,0.0,0.0,0.0,0.0,0.0,0.0,0.0,0.0,0.0,0.0,0.0,0.0,0.0,0.0,0.0,0.0,0.0,0.0,0.0,0.0,0.0,0.0,0.0,0.0,0.0,0.0,0.0,0.0,0.0,0.0,0.0,0.0,0.0,0.0,0.0,0.0,0.0,0.0,0.0,0.0,0.0,0.0,0.0,0.0,0.0,0.0,0.0,0.0,0.0,0.0,0.0,0.0,0.0,0.0,0.0,0.0,0.0,0.0,0.0,0.0,0.0,0.0,0.0,0.0,0.0,0.0,0.0,0.0,0.0,0.0,0.0,0.0,0.0,0.0,0.0,0.0,0.0,0.0,0.0,0.0,0.0,0.0,0.0,0.0,0.0,0.0,0.0,0.0,0.0,0.0,0.0,0.0,0.0,0.0,0.0,0.0,0.0,0.0,0.0,0.0,0.0,0.0,0.0,0.0,0.0,0.0,0.0,0.0,0.0,0.0,0.0,0.0,0.0,0.0,0.0,0.0,0.0,0.0,0.0,0.0,0.0,0.0,0.0,0.0,0.0,0.0,0.0,0.0,0.0,0.0,0.0,0.0,0.0,0.0,0.0,0.0,0.0,0.0,0.0,0.0,0.0,0.0,0.0,0.0,0.0,0.0,0.0,0.0,0.0,0.0,0.0,0.0,0.0,0.0,0.0,0.0,0.0,0.0,0.0,0.0,0.0,0.0,0.0,0.0,0.0,0.0,0.0,0.0,0.0,0.0,0.0,0.0,0.0,0.0,0.0,0.0,0.0,0.0,0.0,0.0,0.0,0.0,0.0,0.0,0.0,0.0,0.0,0.0,0.0,0.0,0.0,0.0,0.0,0.0,0.0,0.0,0.0,0.0,0.0,0.0,0.0,0.0,0.0,0.0,0.0,0.0,0.0,0.0,0.0,0.0,0.0,0.0,0.0,0.0,0.0,0.0,0.0,0.0,0.0,0.0,0.0,0.0,0.0,0.0,0.0,0.0,0.0,0.0,0.0,0.0,0.0,0.0,0.0,0.0,0.0,0.0,0.0,0.0,0.0,0.0,0.0,0.0,0.0,0.0,0.0,0.0,0.0,0.0,0.0,0.0,0.0,0.0,0.0,0.0,0.0,0.0,0.0,0.0,0.0,0.0,0.0,0.0,0.0,0.0,0.0,0.0,0.0,0.0,0.0,0.0,0.0,0.0,0.0,0.0,0.0,0.0,0.0,0.0,0.0,0.0,0.0,0.0,0.0,0.0,0.0,0.0,0.0,0.0,0.0,0.0,0.0,0.0,0.0,0.0,0.0,0.0,0.0,0.0,0.0,0.0,0.0,0.0,0.0,0.0,0.0,0.0,0.0,0.0,0.0,0.0,0.0,0.0,0.0,0.0,0.0,0.0,0.0,0.0,0.0,0.0,0.0,0.0,0.0,0.0,0.0,0.0,0.0,0.0,0.0,0.0,0.0,0.0,0.0,0.0,0.0,0.0,0.0,0.0,0.0,0.0,0.0,0.0,0.0,0.0,0.0,0.0,0.0,0.0,0.0,0.0,0.0,0.0,0.0,0.0,0.0,0.0,0.0,0.0,0.0,0.0,0.0,0.0,0.0,0.0,0.0,0.0,0.0,0.0,0.0,0.0,0.0,0.0,0.0,0.0,0.0,0.0,0.0,0.0,0.0,0.0,0.0,0.0,0.0,0.0,0.0,0.0,0.0,0.0,0.0,0.0,0.0,0.0,0.0,0.0,0.0,0.0,0.0,0.0,0.0,0.0,0.0,0.0,0.0,0.0,0.0,0.0,0.0,0.0,0.0,0.0,0.0,0.0,0.0,0.0,0.0,0.0,0.0,0.0,0.0,0.0,0.0,0.0,0.0,0.0,0.0,0.0,0.0,0.0,0.0,0.0,0.0,0.0,0.0,0.0,0.0,0.0,0.0,0.0,0.0,0.0,0.0,0.0,0.0,0.0,0.0,0.0,0.0,0.0,0.0,0.0,0.0,0.0,0.0,0.0,0.0,0.0,0.0,0.0,0.0,0.0,0.0,0.0,0.0,0.0,0.0,0.0,0.0,0.0,0.0,0.0,0.0,0.0,0.0,0.0,0.0,0.0,0.0,0.0,0.0,0.0,0.0,0.0,0.0,0.0,0.0,0.0,0.0,0.0,0.0,0.0,0.0,0.0,0.0,0.0,0.0,0.0,0.0,0.0,0.0,0.0,0.0,0.0,0.0,0.0,0.0,0.0,0.0,0.0,0.0,0.0,0.0,0.0,0.0,0.0,0.0,0.0,0.0,0.0,0.0,0.0,0.0,0.0,0.0,0.0,0.0,0.0,0.0,0.0,0.0,0.0,0.0,0.0,0.0,0.0,0.0,0.0,0.0,0.0,0.0,0.0,0.0,0.0,0.0,0.0,0.0,0.0,0.0,0.0,0.0,0.0,0.0,0.0,0.0,0.0,0.0,0.0,0.0,0.0,0.0,0.0,0.0,0.0,0.0,0.0,0.0,0.0,0.0,0.0,0.0,0.0,0.0,0.0,0.0,0.0,-2.0252,0.0,0.0,0.0,0.0,0.0,0.0,0.0,0.0,0.0,0.0,0.0,0.0,0.0,0.0,0.0,0.0,0.0,0.0,0.0,0.0,0.0,0.0,0.0,0.0,-0.6865,-0.6933,-0.6327,-0.5813,0.0,0.0,0.0,0.0,0.0,0.0,0.0,0.0,0.0,-0.6176,-0.9304,-1.005,-1.1736,-1.4249,-1.3528,-1.216,-1.027,0.0,0.0,0.0,0.0,0.0,0.0,0.0,0.0,0.0,0.0,0.0,0.0,0.0,0.0,0.0,0.0,0.0,0.0,0.0,0.0,0.0,0.0,0.0,0.0,0.0,0.0,0.0,0.0,0.0,0.0,0.0,0.0,0.0,0.0,0.0,0.0,0.0,0.0,0.0,0.0,0.0,0.0,0.0,0.0,0.0,0.0,0.0,0.0,0.0,0.0,0.0,0.0,0.0,0.0,0.0,0.0,0.0,0.0,0.0,0.0,0.0,0.0,0.0,0.0,0.0,0.0,0.0,0.0,0.0,0.0,0.0,-2.1036,0.0,0.0,0.0,0.0,0.0,0.0,0.0,0.0,0.0,0.0,0.0,0.0,0.0,0.0,0.0,0.0,0.0,0.0,0.0,0.0,0.0,-0.4542,-0.7503,-0.796,-0.7867,-0.7371,-0.6655,-0.6198,-0.6138,-0.5093,0.0,0.0,0.0,0.0,-0.5433,-0.5848,-0.7279,-0.9826,-1.2448,-1.4839,-1.701,-1.7511,-1.6146,-1.3186,-1.1594,0.0,0.0,0.0,0.0,0.0,0.0,0.0,0.0,0.0,0.0,0.0,0.0,0.0,0.0,0.0,0.0,0.0,0.0,0.0,0.0,0.0,0.0,0.0,0.0,0.0,0.0,0.0,0.0,0.0,0.0,0.0,0.0,0.0,0.0,0.0,0.0,0.0,0.0,0.0,0.0,0.0,0.0,0.0,0.0,0.0,0.0,0.0,0.0,0.0,0.0,0.0,0.0,0.0,0.0,0.0,0.0,0.0,0.0,0.0,0.0,0.0,0.0,0.0,-2.4749,-2.4774,-2.3474,-2.3361,-2.308,-2.268,-2.2208,-2.2219,-2.2461,-2.1368,0.0,0.0,0.0,0.0,0.0,0.0,0.0,0.0,0.0,0.0,0.0,0.0,0.0,0.0,0.0,0.0,0.0,0.0,0.0,-0.4861,-0.7591,-0.8616,-0.8973,-0.8684,-0.7708,-0.6999,-0.6711,-0.5794,0.0,0.0,0.0,-0.4725,-0.6146,-0.6726,-0.8477,-1.1479,-1.5964,-1.8708,-1.9777,-1.9611,-1.9243,-1.8556,-1.5714,-1.3736,-1.2473,0.0,0.0,0.0,0.0,0.0,0.0,0.0,0.0,0.0,0.0,0.0,0.0,0.0,0.0,0.0,0.0,0.0,0.0,0.0,0.0,0.0,0.0,0.0,0.0,0.0,0.0,0.0,0.0,0.0,0.0,0.0,0.0,0.0,0.0,0.0,0.0,0.0,0.0,0.0,0.0,0.0,-2.2358,-2.3467,0.0,0.0,0.0,0.0,0.0,0.0,0.0,0.0,0.0,0.0,0.0,0.0,0.0,-2.2112,-2.2294,-2.2609,-2.2933,-2.3397,-2.5503,-2.5839,-2.4572,-2.4066,-2.3842,-2.3867,-2.3359,0.0,-2.1774,-2.116,0.0,0.0,0.0,0.0,0.0,0.0,0.0,0.0,0.0,0.0,0.0,0.0,0.0,0.0,0.0,0.0,0.0,0.0,0.0,0.0,0.0,-1.0231,-1.0821,-0.9982,-0.9627,-0.9057,-0.8214,-0.7307,0.0,0.0,-0.5396,-0.5814,-0.6787,-0.8441,-1.1437,-1.5839,-1.8912,-2.11,-2.2447,-2.2585,-2.235,-2.1732,-1.9443,-1.7046,-1.4641,-1.2848,0.0,0.0,0.0,0.0,0.0,0.0,0.0,0.0,0.0,0.0,0.0,0.0,0.0,0.0,0.0,0.0,0.0,0.0,0.0,0.0,0.0,0.0,0.0,0.0,0.0,0.0,0.0,0.0,0.0,0.0,0.0,0.0,0.0,0.0,0.0,0.0,0.0,0.0,0.0,-1.7822,-2.2816,-2.4057,-2.3513,-2.2821,0.0,0.0,0.0,0.0,0.0,0.0,0.0,0.0,0.0,-2.2694,-2.3387,-2.3761,-2.3858,-2.4179,-2.4627,-2.5272,-2.6244,-2.6407,-2.5865,-2.5598,-2.5186,-2.4697,-2.449,-2.3785,-2.27,-2.1797,-2.1653,-2.1806,0.0,0.0,0.0,0.0,-1.878,-1.8663,0.0,0.0,0.0,0.0,0.0,0.0,0.0,0.0,0.0,0.0,0.0,0.0,-0.9375,-1.1501,-1.2464,-1.1959,-1.1487,-1.0796,-0.9831,-0.8656,-0.7522,-0.6463,-0.6378,-0.6717,-0.7471,-1.0574,-1.455,-1.9323,-2.1235,-2.2928,-2.4409,-2.4683,-2.4332,-2.3431,-2.1753,-1.9469,-1.6795,-1.4763,-1.3042,-1.1546,0.0,0.0,0.0,0.0,0.0,0.0,0.0,0.0,0.0,0.0,0.0,0.0,0.0,0.0,0.0,0.0,0.0,0.0,0.0,0.0,0.0,0.0,0.0,0.0,0.0,0.0,0.0,0.0,0.0,0.0,0.0,0.0,0.0,0.0,0.0,0.0,0.0,-1.9029,-2.1972,-2.4057,-2.3482,-2.2781,0.0,0.0,0.0,0.0,0.0,0.0,-2.2961,-2.2737,-2.2945,-2.3797,-2.4678,-2.5195,-2.524,-2.5464,-2.5886,-2.6435,-2.6612,-2.6683,-2.6708,-2.6708,-2.6158,-2.5221,-2.5221,-2.4592,-2.3522,-2.2672,-2.2758,-2.318,-2.1284,-2.0798,-2.1098,-2.047,-1.9721,-1.9094,0.0,0.0,0.0,0.0,0.0,0.0,0.0,0.0,0.0,0.0,0.0,-0.6369,-0.9719,-1.1767,-1.3497,-1.5028,-1.2971,-1.1495,-1.1298,-0.9405,-0.8222,-0.8093,-0.7236,-0.7236,-0.8221,-1.3178,-1.7233,-2.0227,-2.2735,-2.4409,-2.5226,-2.4949,-2.4332,-2.3431,-2.1753,-2.0315,-1.8926,-1.5802,-1.4007,-1.3063,-1.0639,0.0,0.0,0.0,0.0,0.0,0.0,0.0,0.0,0.0,0.0,0.0,0.0,0.0,0.0,0.0,0.0,0.0,0.0,0.0,0.0,0.0,0.0,0.0,0.0,0.0,0.0,0.0,0.0,0.0,0.0,0.0,0.0,0.0,0.0,0.0,0.0,0.0,0.0,-2.4377,-2.3584,0.0,0.0,0.0,0.0,-2.2677,-2.2648,-2.2963,-2.3803,-2.3819,-2.4315,-2.5459,-2.5559,-2.5698,-2.5947,-2.6402,-2.6343,-2.5745,-2.6376,-2.6695,-2.6703,-2.6708,-2.6158,-2.5221,-2.5221,-2.4592,-2.3595,-2.3522,-2.3221,-2.267,-2.2046,-2.1455,-2.0923,-2.0857,-2.046,-1.9925,0.0,0.0,0.0,-0.6063,-0.5766,-0.5514,-0.5636,-0.5291,-0.5012,-0.4994,-0.5058,-0.7168,-1.2598,-1.3902,-1.4254,-1.3961,-1.3843,-1.343,-1.2616,-1.0807,-0.9355,-0.8431,-0.7785,-0.8934,-1.2082,-1.5261,-1.8269,-2.1081,-2.1985,-2.2851,-2.3668,-2.3353,-2.3035,-2.265,-2.0971,-2.0005,-1.9453,-1.703,-1.5108,-1.361,-1.2226,-1.0532,0.0,0.0,0.0,0.0,0.0,0.0,0.0,0.0,0.0,0.0,0.0,0.0,0.0,0.0,0.0,0.0,0.0,0.0,0.0,0.0,0.0,0.0,0.0,0.0,0.0,0.0,0.0,0.0,0.0,0.0,0.0,0.0,0.0,0.0,0.0,0.0,0.0,-2.4671,-2.4091,0.0,-2.4326,-2.3989,-2.3769,-2.3852,-2.3869,-2.4204,-2.496,-2.4977,-2.5411,-2.6285,-2.6776,-2.7045,-2.7157,-2.749,-2.7551,-2.7304,-2.8219,-2.7936,-2.6736,-2.7179,-2.6607,-2.5221,-2.5221,-2.4592,-2.3595,-2.3595,-2.3475,-2.3266,-2.3079,-2.2845,-2.2582,-2.2173,-2.1653,-2.0969,0.0,0.0,0.0,-0.589,-0.5394,-0.5044,-0.5292,-0.4977,-0.4941,-0.5619,-0.535,-0.7477,-1.3719,-1.4728,-1.4676,-1.3941,-1.4565,-1.4387,-1.2926,-1.1465,-1.0139,-0.8925,-0.9005,-1.101,-1.5114,-1.6911,-1.9002,-2.1425,-2.1776,-2.2235,-2.2793,-2.2448,-2.2167,-2.1821,-2.0444,-1.9595,-1.9117,-1.7509,-1.5904,-1.4373,-1.3456,-1.1736,-0.9632,0.0,0.0,0.0,0.0,0.0,0.0,0.0,0.0,0.0,0.0,0.0,0.0,0.0,0.0,0.0,0.0,0.0,0.0,0.0,0.0,0.0,0.0,0.0,0.0,0.0,0.0,0.0,0.0,0.0,0.0,0.0,0.0,0.0,0.0,0.0,-2.3711,-2.5375,-2.4803,-2.4516,-2.5082,-2.4734,-2.4594,-2.4831,-2.4864,-2.5186,-2.593,-2.5981,-2.6201,-2.6674,-2.7435,-2.7789,-2.7789,-2.826,-2.8474,-2.8468,-2.9163,-2.9011,-2.8207,-2.7941,-2.7078,-2.5843,-2.5562,-2.4871,-2.3879,-2.3879,-2.3752,-2.3595,-2.3595,-2.3595,-2.3551,-2.3143,-2.2575,-2.1852,0.0,0.0,-0.5789,-0.5476,-0.525,-0.4956,-0.451,-0.5,-0.5828,-0.6947,-0.6121,-0.7443,-1.2772,-1.4027,-1.4713,-1.5323,-1.5153,-1.419,-1.2234,-1.1309,-1.0486,-0.9694,-1.0993,-1.3388,-1.6929,-1.8068,-1.9485,-2.1261,-2.2239,-2.2716,-2.2707,-2.2372,-2.1821,-2.1029,-2.0154,-1.9142,-1.8045,-1.715,-1.6285,-1.537,-1.4183,-1.2567,-1.0755,0.0,0.0,0.0,0.0,0.0,0.0,0.0,0.0,0.0,0.0,0.0,0.0,0.0,0.0,0.0,0.0,0.0,0.0,0.0,0.0,0.0,0.0,0.0,0.0,0.0,0.0,0.0,0.0,0.0,0.0,0.0,0.0,0.0,-2.3291,-2.3794,-2.4624,-2.646,-2.5691,-2.5029,-2.5046,-2.4739,-2.4847,-2.5559,-2.561,-2.5914,-2.6657,-2.6691,-2.6691,-2.6691,-2.7435,-2.7806,-2.7823,-2.8619,-2.9053,-2.9085,-2.907,-2.983,-3.1138,-2.8895,-2.7573,-2.7031,-2.6307,-2.5389,-2.4389,-2.4389,-2.4074,-2.3595,-2.3595,-2.3595,-2.3595,-2.3595,-2.3201,-2.2552,-0.6147,-0.5998,-0.5909,-0.5971,-0.5616,-0.5311,-0.5268,-0.4499,-0.4619,-0.6626,-1.0117,-1.2372,-1.2253,-1.3106,-1.4059,-1.4958,-1.5197,-1.4439,-1.2456,-1.1865,-1.1466,-1.1139,-1.3333,-1.5383,-1.7098,-1.8577,-1.9625,-2.0218,-2.0594,-2.0776,-2.0766,-2.0581,-2.0375,-2.0118,-1.9286,-1.8628,-1.8025,-1.6863,-1.5887,-1.508,-1.4497,-1.3153,-1.1387,0.0,0.0,0.0,0.0,0.0,0.0,0.0,0.0,0.0,0.0,0.0,0.0,0.0,0.0,0.0,0.0,0.0,0.0,0.0,0.0,0.0,0.0,0.0,0.0,0.0,0.0,0.0,0.0,0.0,0.0,0.0,0.0,-2.2244,-2.3633,-2.4108,-2.4812,-2.6103,-2.5764,-2.5505,-2.5698,-2.5646,-2.5677,-2.5876,-2.5893,-2.6132,-2.6674,-2.6691,-2.6691,-2.6691,-2.7435,-2.8095,-2.8653,-2.9414,-3.0053,-3.0588,-3.0615,-3.0832,-3.1172,-2.9997,-2.8394,-2.6516,-2.6322,-2.5305,-2.3837,-2.3837,-2.3709,-2.3595,-2.3595,-2.3595,-2.3595,-2.3595,-2.3196,-2.2484,-0.6399,-0.6183,-0.607,-0.6171,-0.5753,-0.5434,-0.55,-0.4904,-0.4825,-0.5913,-1.0031,-1.2618,-1.1876,-1.1817,-1.2287,-1.3373,-1.3633,-1.3176,-1.189,-1.1629,-1.1942,-1.2917,-1.4504,-1.6097,-1.767,-1.8645,-1.9326,-1.9732,-1.9847,-1.9922,-1.9903,-1.9439,-1.9176,-1.9045,-1.8063,-1.7338,-1.6774,-1.5767,-1.4851,-1.3982,-1.352,-1.2704,-1.1699,-1.1231,-1.0432,-0.9492,-0.8719,-0.8228,-0.7937,-0.7827,0.0,0.0,0.0,0.0,0.0,0.0,0.0,0.0,0.0,0.0,0.0,0.0,0.0,0.0,0.0,0.0,0.0,0.0,0.0,0.0,0.0,0.0,0.0,0.0,-2.1183,-2.3049,-2.3865,-2.4198,-2.468,-2.5615,-2.5545,-2.5483,-2.5656,-2.5652,-2.5652,-2.5652,-2.5888,-2.612,-2.6401,-2.659,-2.6691,-2.6691,-2.7435,-2.8027,-2.8484,-2.9262,-3.0149,-3.1202,-3.0896,-3.059,-3.0258,-2.9824,-2.8531,-2.6594,-2.6302,-2.5314,-2.3964,-2.3964,-2.3794,-2.3595,0.0,0.0,0.0,0.0,-2.3126,-2.2506,-0.6722,-0.6451,-0.6236,-0.6206,-0.58,-0.5469,-0.5377,-0.5717,-0.5754,-0.5103,-0.7538,-0.9891,-1.1327,-1.0353,-1.0072,-1.1216,-1.1388,-1.1348,-1.1171,-1.1254,-1.2343,-1.4627,-1.4929,-1.6056,-1.8234,-1.8309,-1.8664,-1.9308,-1.945,-1.9503,-1.9484,-1.8652,-1.8161,-1.7955,-1.6779,-1.5833,-1.5102,-1.4388,-1.3549,-1.2636,-1.1842,-1.1604,-1.1648,-1.1121,-1.0392,-0.9587,-0.8984,-0.8316,-0.7703,-0.7671,0.0,0.0,0.0,0.0,0.0,0.0,0.0,0.0,0.0,0.0,0.0,0.0,0.0,0.0,0.0,0.0,0.0,0.0,0.0,0.0,0.0,0.0,0.0,0.0,-2.1689,-2.3341,-2.3786,-2.3901,-2.4268,-2.5102,-2.5221,-2.5182,-2.5105,-2.5105,-2.5105,-2.5105,-2.5615,-2.5941,-2.6013,0.0,0.0,0.0,0.0,-2.7705,-2.7789,-2.8501,-2.9581,-3.0932,-3.0275,-2.9634,-2.9011,-2.9011,-2.828,-2.6994,-2.6336,-2.5378,-2.4307,-2.4307,-2.4032,-2.3595,-2.3508,-2.3508,-2.348,-2.3267,-2.288,-2.2495,-0.7366,-0.6885,-0.6453,-0.6236,-0.6118,-0.5855,-0.525,-0.5592,-0.5705,-0.5146,-0.632,-0.7781,-0.9288,-0.9221,-0.936,-1.0139,-1.0994,-1.1674,-1.2106,-1.2889,-1.3823,-1.4898,-1.5601,-1.647,-1.7567,-1.746,-1.7393,-1.7422,-1.7609,-1.7704,-1.7704,-1.752,-1.7422,-1.7337,-1.6395,-1.5745,-1.5271,-1.3936,-1.3121,-1.2581,-1.1137,-1.0763,-1.1018,-1.0652,-1.0358,-1.0041,-0.9046,-0.8606,-0.8319,-0.7224,-0.6881,-0.6912,-0.637,-0.6329,0.0,0.0,0.0,0.0,0.0,0.0,0.0,0.0,0.0,0.0,0.0,0.0,0.0,0.0,0.0,0.0,0.0,0.0,0.0,-1.9575,-2.1139,-2.2059,-2.2136,-2.2628,-2.3513,-2.5035,-2.5221,-2.5012,-2.4592,-2.4552,-2.4552,-2.4552,-2.5051,-2.554,-2.5977,-2.6436,-2.6691,-2.6691,-2.6843,-2.7199,-2.7772,-2.7941,-2.8503,-2.9406,0.0,0.0,-2.9011,-2.9011,-2.8077,-2.6437,-2.6292,-2.5312,-2.3752,-2.3752,-2.3681,-2.3551,-2.3054,-2.2875,-2.2754,-2.1684,-2.1781,-2.2335,-0.7369,-0.6812,-0.6354,-0.6224,-0.5891,-0.559,-0.5378,-0.5205,-0.5106,-0.5093,-0.5069,-0.5546,-0.6864,-0.7232,-0.7996,-0.9472,-1.0516,-1.1447,-1.2248,-1.3142,-1.4028,-1.4853,-1.5388,-1.6041,-1.6824,-1.6696,-1.6739,-1.699,-1.692,-1.6893,-1.6893,-1.6387,-1.6105,-1.6022,-1.5031,-1.429,-1.3686,-1.2674,-1.1964,-1.1428,-1.0089,-0.9816,-1.0178,-1.0054,-0.9793,-0.9477,-0.889,-0.8341,-0.7712,-0.6868,-0.6322,-0.5918,-0.5854,-0.5599,-0.5356,0.0,0.0,0.0,0.0,0.0,0.0,0.0,0.0,0.0,0.0,0.0,0.0,0.0,0.0,-1.5568,0.0,0.0,-1.7955,-1.9145,-2.0671,-2.1697,-2.1697,-2.1993,-2.2637,-2.3803,-2.421,-2.4266,-2.4032,-2.3991,-2.3991,-2.3991,-2.4752,-2.5335,-2.5577,-2.628,-2.6691,-2.6691,-2.6691,-2.6877,-2.7249,-2.7249,-2.7452,-2.7841,-2.8213,-2.8213,-2.7841,-2.823,-2.742,-2.575,-2.575,-2.4945,-2.3595,-2.3595,-2.3421,-2.3098,-2.2438,-2.2193,-2.2095,-2.1462,-2.1355,-2.1565,-0.7157,-0.6554,-0.613,-0.6076,-0.5571,-0.5233,-0.537,-0.4783,-0.4421,-0.4742,-0.4219,-0.4133,-0.5008,-0.5726,-0.7007,-0.9116,-1.0246,-1.1198,-1.2028,-1.2918,-1.3792,-1.4622,-1.4865,-1.5293,-1.602,-1.5912,-1.6101,-1.6576,-1.6219,-1.6034,-1.5986,-1.513,-1.4677,-1.4534,-1.3566,-1.2736,-1.2046,-1.1461,-1.0851,-1.0184,-0.9108,-0.8882,-0.9152,-0.9131,-0.9004,-0.8769,-0.8413,-0.7732,-0.6901,-0.6408,-0.5565,-0.4832,-0.5102,-0.4555,-0.3872,-0.4149,-0.4126,0.0,0.0,0.0,0.0,0.0,0.0,0.0,0.0,0.0,-1.3051,-1.3482,-1.5512,-1.7701,-1.9494,-1.9307,-1.8923,-1.8923,-2.0289,-2.1315,-2.1315,-2.1363,-2.1592,-2.2084,-2.2788,-2.3216,-2.3216,-2.3363,-2.3421,-2.3421,-2.4371,-2.5038,-2.5166,-2.6025,-2.6539,-2.6691,-2.6691,-2.6691,-2.6691,-2.6691,-2.6691,-2.6708,-2.73,-2.7283,-2.6725,-2.7213,-2.6614,-2.5182,-2.4973,-2.4389,-2.3595,-2.3595,-2.3246,-2.2649,-2.1946,-2.1615,-2.1479,-2.131,-2.1016,-2.0844,-0.7039,-0.6381,-0.5863,-0.5614,-0.5501,-0.5281,-0.4776,-0.4483,-0.4147,-0.3722,-0.4416,-0.4965,-0.5077,-0.6282,-0.7662,-0.9168,-1.0584,-1.1473,-1.1671,-1.2807,-1.3696,-1.4161,-1.438,-1.4655,-1.5059,-1.5047,-1.4927,-1.4699,-1.4306,-1.4026,-1.3848,-1.3543,-1.3395,-1.3379,-1.2842,-1.2383,-1.1948,-1.1253,-1.053,-0.9766,-0.8695,-0.8117,-0.7862,-0.7501,-0.7974,-0.8613,-0.7246,-0.6848,-0.6784,-0.5392,-0.4929,-0.4854,-0.4047,-0.3161,-0.2499,-0.3002,0.0,-0.2517,-0.2857,0.0,0.0,-0.7773,-0.7323,-0.6999,0.0,0.0,-1.3518,-1.5648,-1.7867,-1.9507,-1.9743,-1.9707,-1.9699,-1.9699,-1.9876,-1.9991,-1.9991,-2.0103,-2.0207,-2.0315,-2.1252,-2.1885,-2.1885,-2.2438,-2.2785,-2.2785,-2.3696,-2.4505,-2.5189,-2.5526,-2.6031,-2.6674,-2.6691,-2.6691,-2.6691,-2.6691,-2.6691,-2.6691,-2.6776,-2.6776,-2.6691,-2.6345,-2.5844,-2.5144,-2.4199,-2.3724,-2.3595,-2.3595,-2.3246,-2.2649,-2.1946,-2.139,-2.0845,-2.022,-2.033,-2.0743,-0.6829,-0.6254,-0.5771,-0.5349,-0.5127,-0.5001,-0.4894,-0.4556,-0.4327,-0.4431,-0.5337,-0.5982,-0.5965,-0.6947,-0.7968,-0.8874,-1.0366,-1.1152,-1.0863,-1.2258,-1.3018,-1.2875,-1.3511,-1.4109,-1.4598,-1.4725,-1.4622,-1.428,-1.3693,-1.3206,-1.2854,-1.2456,-1.2265,-1.2262,-1.1928,-1.1627,-1.1233,-1.0301,-0.9626,-0.91,-0.7721,-0.7066,-0.6866,-0.6246,-0.6424,-0.6998,-0.6625,-0.6027,0.0,-0.4856,-0.4475,-0.4108,-0.3705,-0.3183,-0.2876,-0.3646,-0.3727,0.0,-0.3517,0.0,0.0,0.0,-0.8329,-0.8397,-1.0363,-1.1867,-1.3569,-1.6003,-1.7219,-1.8298,-1.959,-1.8722,-1.7838,0.0,-1.7802,-1.7936,-1.8288,-1.8375,-1.8576,-1.89,-1.9634,-2.0278,-2.0733,-2.1607,-2.2003,-2.1686,-2.2817,-2.3642,-2.3967,-2.4614,-2.5287,-2.6048,-2.6065,-2.6268,-2.6691,-2.6691,-2.6691,-2.6691,-2.6691,-2.6691,-2.6691,-2.6521,-2.598,-2.5144,-2.4074,-2.3595,-2.3551,-2.3231,-2.2725,-2.2053,-2.1438,-2.0782,-2.0194,-1.9901,-1.9962,-2.0213,-0.665,-0.613,-0.5641,-0.5185,-0.4933,-0.4866,-0.5067,-0.4905,-0.4924,-0.5439,-0.6144,-0.6685,-0.6927,-0.7517,-0.8099,-0.8567,-0.9904,-1.0594,-1.0344,-1.1451,-1.211,-1.2002,-1.2699,-1.3453,-1.4227,-1.4274,-1.4093,-1.3673,-1.2667,-1.1854,-1.1264,-1.0985,-1.0842,-1.0856,-1.1085,-1.1055,-1.0775,-1.0002,-0.8833,-0.7414,-0.6264,-0.5537,-0.5097,-0.44,-0.435,-0.4796,-0.5522,-0.523,-0.4495,-0.4426,-0.4061,-0.3487,-0.281,-0.2802,-0.3111,-0.3788,-0.4181,-0.4368,-0.4466,0.0,0.0,-0.7749,-0.8317,-0.8637,-1.0399,-1.1586,-1.2949,-1.5083,-1.5504,-1.6003,-1.7581,-1.6508,-1.5282,-1.4924,-1.5576,-1.6305,-1.695,-1.7038,-1.735,-1.8092,-1.8539,-1.8986,-1.9502,-2.0713,-2.1212,-2.0655,-2.1971,-2.2911,-2.3103,-2.3816,-2.4526,-2.527,-2.549,-2.5862,-2.6387,-2.659,-2.6691,-2.6691,-2.6691,-2.6624,-2.6521,-2.6193,-2.5582,-2.4712,-2.3964,-2.3595,-2.3551,-2.2965,-2.23,-2.1663,-2.1028,-2.0396,-1.9798,-1.9798,-1.9798,-1.9861,-0.6583,-0.5968,-0.5425,-0.5146,-0.5097,-0.5085,-0.5095,-0.5537,-0.6018,-0.6502,-0.6583,-0.693,-0.7755,-0.7884,-0.8046,-0.838,-0.9225,-0.9929,-1.0373,-1.0441,-1.0932,-1.1967,-1.2018,-1.2596,-1.3788,-1.3437,-1.2958,-1.2358,-1.0634,-0.9323,-0.8433,-0.8745,-0.8887,-0.8937,-1.0321,-1.0906,-1.0874,-1.0846,-0.8335,-0.4338,-0.4286,-0.3375,-0.1986,-0.159,-0.1616,-0.2105,-0.3547,-0.4587,-0.511,-0.3984,-0.3629,-0.3172,-0.0834,-0.1298,0.0,-0.2726,-0.334,-0.4073,0.0,0.0,-0.4711,-0.6907,-0.7052,-0.7379,-1.0195,-1.0856,-1.1296,-1.2693,-1.2992,-1.3024,-1.3092,-1.2947,-1.2424,-1.115,-1.3426,-1.5549,-1.6226,-1.6395,-1.6858,-1.8061,-1.8205,-1.8225,0.0,-1.9735,-2.0528,-1.9945,-2.122,-2.2348,-2.3071,-2.332,-2.3765,-2.4523,-2.522,-2.5625,-2.5642,-2.6336,-2.6691,-2.6691,-2.6691,-2.647,-2.5977,-2.4934,-2.4184,-2.3638,-2.3595,-2.3595,-2.3551,-2.2965,-2.23,-2.1663,-2.1028,-2.0396,-1.9798,-1.9798,-1.9798,-1.9798,-0.6165,-0.5771,-0.5409,-0.4864,-0.4953,-0.5102,-0.5105,-0.5258,-0.5883,-0.727,-0.696,0.0,0.0,0.0,0.0,0.0,-0.8718,-0.9118,-0.9021,-0.9678,-1.0352,-1.0978,-1.1597,-1.2269,-1.2983,-1.1601,-1.0271,-0.9046,-0.6372,-0.4503,-0.3447,-0.2899,-0.263,-0.263,-0.2887,-0.2993,-0.2976,-0.2732,-0.1858,-0.0624,-0.0059,0.0185,0.0319,0.1177,0.1123,0.0481,0.0,-0.1561,-0.2737,-0.3389,0.0,0.0,-0.0774,0.0,0.0,-0.2015,0.0,-0.3996,-0.409,0.0,-0.5153,-0.6769,-0.713,-0.7701,-1.0242,-1.0787,-1.1032,-1.1822,-1.1011,-1.0739,-1.2546,-1.2086,-1.1015,-0.9683,-1.1334,-1.3175,-1.4435,-1.5291,-1.6355,-1.7895,-1.8711,0.0,0.0,0.0,0.0,-1.973,-2.0957,-2.1841,-2.2085,-2.2475,-2.3004,-2.3748,-2.4002,-2.4374,-2.4864,-2.6102,-2.6221,-2.522,-2.4962,-2.4763,-2.456,-2.3533,-2.3211,-2.3458,-2.3134,-2.3221,-2.3508,-2.2469,-2.1899,-2.1615,-2.0534,-2.0003,-1.9798,-1.9798,-1.9798,-1.9747,-0.59,-0.5499,-0.5088,-0.458,-0.4819,0.0,0.0,0.0,0.0,0.0,0.0,0.0,0.0,0.0,0.0,0.0,0.0,-0.8298,-0.8164,-0.8684,-0.9283,-0.9904,-1.0436,-1.1174,-1.2147,-0.9729,-0.7316,-0.501,-0.2543,-0.0692,0.0608,0.1963,0.269,0.2878,0.4254,0.4867,0.4857,0.489,0.4557,0.3933,0.3761,0.3398,0.2978,0.3217,0.3222,0.0,0.2395,0.1418,0.0194,-0.1324,0.0,0.0,0.0,0.0,0.0,0.0,-0.289,-0.3887,-0.4118,-0.4517,-0.5242,-0.6651,-0.7131,-0.7835,-0.9826,-1.0576,-1.074,-1.0521,-0.8774,-0.8133,-1.0897,-1.0254,-0.9247,-0.9158,-1.0659,-1.2348,-1.3779,-1.5454,-1.7164,-1.8774,-1.9671,-2.0131,0.0,0.0,0.0,-1.9854,-2.0927,-2.1582,-2.1582,-2.2049,-2.253,-2.2987,-2.3257,-2.3613,-2.4086,-2.5316,-2.5009,-2.3253,-2.349,-2.3551,-2.3363,-2.2524,-2.2394,-2.2769,-2.247,-2.2465,-2.2568,-2.1724,-2.1266,-2.0996,-2.0155,-1.9798,-1.9798,-1.9798,-1.9475,-1.898,-0.5767,-0.5126,-0.4532,0.0,0.0,0.0,0.0,0.0,0.0,0.0,0.0,0.0,0.0,0.0,0.0,0.0,0.0,0.0,-0.7801,-0.7527,-0.779,-0.8778,-0.8635,-0.9327,-1.1074,-0.7743,-0.4216,-0.0609,0.0729,0.2158,0.3677,0.5679,0.6831,0.7311,1.0453,1.1829,1.1761,1.1219,1.0283,0.8989,0.6977,0.6091,0.5848,0.4666,0.479,0.5509,0.4742,0.4066,0.0,0.0,0.0,0.0,0.0,0.0,0.0,0.0,0.0,-0.3757,-0.4437,-0.4709,-0.5074,-0.6415,-0.702,-0.7672,-0.9074,-1.007,-1.0311,-0.8985,-0.6473,-0.5349,0.0,0.0,-0.7261,-0.92,-1.1206,-1.3017,-1.4283,-1.6751,-1.8999,0.0,0.0,0.0,0.0,0.0,0.0,-2.0424,0.0,-2.1642,-2.1642,-2.2061,-2.231,-2.231,-2.2987,-2.3342,-2.3342,-2.4036,-2.3235,-2.1004,-2.2346,-2.2742,-2.2288,-2.1795,-2.162,-2.165,-2.165,-2.1395,-2.0907,-2.0801,-2.0433,-1.9985,-1.9812,-1.9736,-1.9761,-1.9761,-1.8862,-1.7743,0.0,0.0,0.0,0.0,0.0,0.0,0.0,0.0,0.0,0.0,0.0,0.0,0.0,0.0,0.0,0.0,0.0,0.0,-0.6842,-0.6641,-0.6859,-0.767,-0.7563,-0.7409,-0.723,-0.4496,-0.1829,0.0719,0.3773,0.5844,0.7014,0.8871,0.9679,0.9616,1.164,1.2223,1.1762,1.2088,1.1318,0.9769,0.8987,0.7935,0.6808,0.6921,0.6509,0.5783,0.5598,0.0,0.0,0.0,0.0,0.0,0.0,0.0,-0.0078,0.0,0.0,-0.3646,-0.385,-0.4515,-0.5267,-0.5846,-0.6457,-0.737,-0.9023,-0.9336,-0.9185,-0.8783,-0.6481,-0.5042,0.0,0.0,0.0,-0.7312,-1.0653,0.0,-1.4125,-1.6567,0.0,-2.092,0.0,-2.2349,-2.2728,-2.2635,0.0,0.0,-2.2108,-2.2215,-2.2405,-2.2326,-2.231,-2.231,-2.2496,-2.2581,-2.2581,-2.2767,-2.2241,-2.0985,-2.1376,-2.1286,-2.0825,-2.0388,-2.0483,-2.0961,-2.0961,-2.1153,-2.1399,-2.0528,-2.0062,-1.9853,-1.8947,-1.8857,-1.9221,-1.9221,-1.8885,-1.8394,0.0,0.0,0.0,0.0,0.0,0.0,0.0,0.0,0.0,0.0,0.0,0.0,0.0,0.0,0.0,0.0,0.0,0.0,0.0,-0.5494,-0.5613,-0.6171,-0.6185,-0.567,-0.4607,-0.243,0.0037,0.2774,0.5195,0.6904,0.7888,0.9097,0.9693,0.9783,1.0764,1.109,1.0973,1.1293,1.1071,0.0,0.0,0.8664,0.8169,0.7746,0.7115,0.6403,0.0,0.0,0.0,0.0,0.0,0.2625,0.2203,0.1372,0.0509,0.0117,0.0,-0.2909,-0.3435,-0.426,-0.5029,-0.5415,-0.5927,-0.6613,-0.7841,-0.8467,-0.862,-0.7909,-0.6037,0.0,0.0,0.0,0.0,0.0,0.0,0.0,-1.4534,-1.7515,-2.0268,0.0,-2.2904,0.0,-2.3414,-2.3236,-2.3069,0.0,-2.2544,-2.2377,-2.2527,-2.2388,-2.231,-2.231,-2.231,-2.231,-2.231,-2.231,-2.2061,-2.1565,-2.1181,-2.0764,-2.028,-1.9874,-1.9899,-2.0258,0.0,-2.034,-2.0411,-1.974,-1.9343,-1.9081,-1.8452,-1.8236,-1.8277,-1.8449,-1.808,-1.7438,0.0,0.0,0.0,0.0,0.0,0.0,0.0,0.0,0.0,-0.7001,-0.5907,-0.5272,0.0,0.0,0.0,0.0,0.0,0.0,0.0,0.0,-0.4294,-0.4527,-0.4652,-0.404,-0.2625,-0.101,0.1367,0.4574,0.5447,0.6322,0.7203,0.7766,0.827,0.8731,0.9072,0.9472,0.9873,1.0007,1.0393,1.0762,0.9142,0.8911,0.9346,0.0,0.0,0.0,0.0,0.0,0.0,0.0,0.4084,0.2803,0.1793,0.1433,0.1171,0.0273,-0.075,-0.1871,-0.3243,-0.3949,-0.4434,-0.4957,-0.5148,-0.5351,-0.5846,-0.6956,-0.7574,-0.6395,0.0,0.0,-0.4515,0.0,-0.4501,-0.4459,0.0,-1.359,-1.5294,-1.8909,-2.1974,-2.3548,-2.4037,-2.4133,-2.3795,-2.3714,-2.3566,-2.33,-2.2738,-2.2388,-2.2349,-2.2338,-2.231,-2.231,-2.231,-2.231,-2.231,-2.231,-2.224,-2.2101,-2.1342,-2.0731,-2.0227,-1.9874,-1.969,-1.969,-1.969,-1.9442,-1.9011,-1.8875,-1.856,-1.8186,-1.8053,-1.7661,-1.7219,-1.7561,-1.6882,-1.5848,0.0,0.0,0.0,0.0,0.0,0.0,0.0,0.0,0.0,0.0,-0.6858,-0.5129,0.0,0.0,0.0,0.0,0.0,0.0,0.0,0.0,0.0,-0.3235,-0.3144,-0.2293,0.0,0.0,0.0,0.0,0.0,0.5565,0.6184,0.7201,0.7706,0.7801,0.9263,0.9642,0.9274,1.0744,1.0787,0.9871,0.9926,0.9562,0.8992,0.8756,0.0,0.0,0.0,0.0,0.0,0.0,0.5906,0.4118,0.287,0.2111,0.1475,0.0351,-0.0167,-0.0801,-0.3007,-0.367,-0.3781,-0.3869,-0.3378,-0.2897,-0.3017,-0.3183,0.0,0.0,0.0,-0.4525,-0.4477,-0.4525,0.0,-0.4419,0.0,0.0,0.0,0.0,-2.2741,0.0,0.0,0.0,0.0,0.0,0.0,0.0,0.0,-2.2915,-2.2634,-2.2426,-2.231,-2.231,-2.231,-2.231,-2.231,-2.231,-2.1949,-2.123,-2.1087,-2.0565,-1.9818,-1.9711,-1.969,-1.969,-1.969,0.0,-1.9493,-1.8609,-1.8178,-1.8031,-1.7136,-1.6704,-1.6562,-1.6657,-1.6067,-1.5311,0.0,0.0,0.0,0.0,0.0,0.0,0.0,-0.8623,-1.033,-1.0817,-0.8878,-0.6979,-0.5797,-0.4938,-0.4375,0.0,0.0,0.0,0.0,0.0,0.0,0.0,0.0,0.0,0.0,0.0,0.0,0.0,0.0,0.0,0.0,0.0,0.0,0.0,0.0,0.0,0.8099,0.9473,0.9778,0.9393,0.9997,0.9945,0.0,0.0,0.0,0.0,0.0,0.0,0.0,0.0,0.7927,0.7057,0.51,0.3449,0.2199,0.1958,0.1222,0.0303,-0.0577,-0.1245,-0.1728,-0.1728,-0.1391,-0.0999,-0.0588,0.0,0.0,0.0,0.0,-0.2659,-0.4203,0.0,0.0,0.0,0.0,0.0,0.0,0.0,0.0,0.0,0.0,0.0,0.0,0.0,0.0,0.0,0.0,-2.3305,-2.2972,-2.2678,-2.2436,-2.231,-2.231,-2.231,-2.231,-2.231,-2.1861,-2.1003,-2.099,-2.0665,-2.0,-1.9782,-1.969,-1.969,-1.969,-1.953,-1.9207,-1.8419,-1.7947,-1.7585,-1.6795,-1.6078,-1.5533,-1.574,-1.5181,-1.4327,0.0,0.0,0.0,0.0,0.0,0.0,0.0,-1.2371,-1.4005,-1.2157,-1.0612,-0.8752,-0.6356,-0.5141,-0.4396,0.0,0.0,0.0,0.0,0.0,0.0,0.0,0.0,0.0,0.0,0.0,0.0,0.0,0.0,0.0,0.0,0.0,0.0,0.0,0.0,0.0,0.0,0.0,0.8694,0.0,0.0,0.0,0.0,0.0,0.0,0.0,0.0,0.0,0.0,0.0,1.0165,1.0175,0.8148,0.5762,0.3705,0.3721,0.2622,0.1614,0.2337,0.1864,0.1149,0.1149,0.1192,0.137,0.186,0.1326,0.0,0.0,0.0,-0.0732,-0.3101,0.0,0.0,0.0,0.0,0.0,0.0,0.0,0.0,0.0,0.0,0.0,0.0,0.0,0.0,0.0,-2.3816,-2.3588,-2.3117,-2.2848,-2.259,-2.231,-2.231,-2.231,-2.231,-2.231,-2.1857,-2.0982,-2.099,-2.0731,-2.0158,-1.9839,-1.969,-1.969,-1.969,-1.9406,-1.8855,-1.8341,-1.7787,-1.7229,-1.6582,-1.5656,-1.4697,-1.4887,-1.4324,-1.3418,0.0,0.0,0.0,0.0,0.0,0.0,0.0,-1.8494,-1.7182,-1.2826,-1.0858,-0.8826,-0.6036,-0.5373,-0.4834,0.0,0.0,0.0,0.0,0.0,0.0,0.0,0.0,0.0,0.0,0.0,0.0,0.0,0.0,0.0,0.0,0.0,0.0,0.0,0.0,0.0,0.0,0.0,0.0,0.0,0.0,0.0,0.0,0.0,0.0,0.0,0.0,0.0,0.0,0.0,0.0,1.2504,1.2264,0.9745,0.6512,0.4596,0.0,0.0,0.4661,0.4902,0.481,0.481,0.5077,0.5164,0.4543,0.0,0.0,0.0,0.0786,-0.0101,-0.0354,0.0,0.0,0.0,0.0,-1.2858,0.0,0.0,0.0,0.0,0.0,0.0,0.0,0.0,0.0,0.0,-2.4151,-2.3735,-2.2797,-2.2721,-2.259,-2.231,-2.231,-2.231,-2.231,-2.231,-2.1869,-2.0991,-2.1023,-2.0565,-1.9747,-1.9711,-1.969,-1.969,-1.969,-1.9406,0.0,-1.8341,-1.7787,-1.7175,-1.6114,-1.5276,-1.4663,-1.415,-1.3529,-1.2939,0.0,0.0,0.0,0.0,0.0,0.0,-1.2157,-1.3158,-1.2653,-1.0441,-0.9695,-0.8536,-0.641,-0.5387,-0.4124,-0.2338,0.0,0.0,0.0,0.0,0.0,0.0,0.0,0.0,0.0,0.0,0.0,0.0,0.0,0.0,0.0,0.0,0.0,0.0,0.0,0.0,0.0,0.0,0.0,0.0,0.0,0.0,0.0,0.0,0.0,0.0,0.0,0.0,0.0,0.0,0.0,0.0,1.4382,1.2761,0.0,0.0,0.6592,0.6079,0.7223,0.6473,0.547,0.5738,0.5905,0.5739,0.4748,0.0,0.0,0.297,0.192,0.0873,0.0146,-0.0939,-0.2164,-0.3717,-0.6271,0.0,0.0,0.0,0.0,0.0,0.0,0.0,0.0,0.0,0.0,0.0,-2.419,-2.3937,-2.3346,-2.3117,-2.2865,-2.2537,-2.2388,-2.231,-2.231,-2.231,-2.1857,-2.0991,-2.0831,-2.0405,-1.969,-1.969,-1.969,-1.969,-1.969,-1.9406,0.0,-1.8341,-1.7787,-1.7175,-1.6058,-1.5231,-1.4606,-1.4003,-1.342,-1.2881,0.0,0.0,0.0,0.0,0.0,-0.653,-0.8248,-0.9071,-0.9267,-0.8652,-0.8798,-0.8121,-0.6022,-0.4867,-0.3349,-0.1025,0.0052,0.0,0.0,0.0,0.0,0.0,0.0,0.0,0.0,0.0,0.6964,0.8484,0.8523,0.0,0.0,0.0,0.0,0.0,0.0,0.0,0.0,0.0,0.0,0.0,0.0,0.0,0.0,0.0,0.0,0.0,0.0,0.0,0.0,0.0,0.0,0.0,0.0,1.5125,1.3801,0.0,0.962,0.8732,0.9351,0.8111,0.662,0.6798,0.6577,0.6132,0.0,0.0,0.0,0.3693,0.293,0.2092,0.1211,0.0333,-0.0778,-0.2305,-0.3597,-0.7008,-1.445,0.0,0.0,0.0,0.0,0.0,0.0,0.0,0.0,-2.4228,-2.419,-2.4094,-2.3876,-2.3522,-2.3159,-2.2755,-2.2449,-2.2292,-2.231,-2.231,-2.1995,-2.139,-2.0863,-2.0342,-1.9874,-1.9747,-1.969,-1.969,-1.953,-1.9244,0.0,-1.8145,-1.7626,-1.7188,-1.584,-1.505,-1.4617,-1.3826,-1.3238,-1.2881,0.0,0.0,0.0,0.0,0.0,0.0,-0.8349,-0.9024,-0.8981,-0.8369,-0.8589,-0.7597,-0.4471,-0.377,-0.2739,-0.0766,0.0148,0.0,0.0,0.0,0.0,0.0,0.0,0.0,0.0,0.0,0.8441,0.9579,0.979,1.047,1.1563,0.0,0.0,0.0,0.0,0.0,0.0,0.0,0.0,0.0,0.0,0.0,0.0,0.0,0.0,0.0,0.0,0.0,0.0,0.0,0.0,0.0,0.0,1.6779,1.5799,1.3996,1.2467,1.1262,1.0903,0.9972,0.9067,0.868,0.7762,0.6852,0.0,0.0,0.0,0.3942,0.3591,0.3561,0.3561,0.1611,-0.0,-0.0047,-0.1369,-0.4665,-1.1043,0.0,0.0,0.0,0.0,0.0,0.0,0.0,0.0,-2.4209,-2.419,0.0,-2.419,-2.3876,-2.3445,-2.2928,-2.2531,-2.2287,-2.231,-2.231,-2.2303,-2.2258,-2.1149,-2.0492,-2.028,-1.9874,-1.969,-1.969,-1.9132,-1.8893,0.0,-1.7747,-1.7312,-1.7133,-1.5398,-1.4709,-1.4571,-1.3334,-1.2929,-1.2881,0.0,0.0,0.0,0.0,0.0,0.0,0.0,-0.5903,-0.6112,-0.5874,-0.5978,-0.551,-0.4049,-0.2972,-0.2083,-0.1489,-0.0065,0.0,0.0,0.0,0.0,0.0,0.0,0.0,0.0,0.0,1.0594,1.1723,1.2318,1.2594,1.2568,1.3004,1.2603,0.0,0.0,0.0,0.0,0.0,0.0,0.0,0.0,0.0,0.0,0.0,0.0,0.0,0.0,0.0,0.0,0.0,0.0,0.0,0.0,0.0,0.0,1.675,1.4903,1.2898,1.2597,1.1531,1.0244,0.9269,0.9004,0.8502,0.668,0.0,0.0,0.5115,0.4426,0.4037,0.3653,0.2534,0.0955,-0.1172,-0.3638,-0.7773,0.0,0.0,0.0,0.0,0.0,0.0,0.0,0.0,-2.4623,-2.4428,-2.441,-2.4358,-2.4209,-2.4094,-2.3807,-2.3329,-2.2658,-2.2287,-2.231,-2.231,-2.1995,-2.139,-2.0863,-2.036,-1.9874,-1.9391,-1.9169,-1.9132,-1.8574,-1.8574,-1.8817,-1.7747,-1.7504,-1.7653,-1.552,-1.4698,-1.4571,-1.3344,-1.2881,-1.2881,0.0,0.0,0.0,0.0,0.0,0.0,0.0,-0.393,-0.4136,-0.3864,-0.4162,-0.4042,-0.3136,-0.2186,-0.1342,-0.0737,0.0491,0.0,0.0,0.0,0.0,0.0,0.0,0.0,1.0514,1.1055,1.2022,1.3456,1.3956,1.4036,1.3695,1.4373,1.3971,1.2705,1.3156,0.0,0.0,0.0,0.0,0.0,0.0,0.0,1.3454,0.0,0.0,0.0,0.0,0.0,0.0,0.0,0.0,0.0,0.0,0.0,0.0,0.0,1.6691,1.4719,1.4566,1.3192,1.1682,1.0993,1.0176,0.0,0.0,0.0,0.0,0.6228,0.5704,0.5057,0.3829,0.3652,0.2308,-0.1982,-0.4822,-0.9147,0.0,0.0,0.0,0.0,0.0,0.0,0.0,0.0,-2.4826,-2.4623,-2.4526,-2.4314,-2.3878,-2.4063,-2.387,-2.3177,-2.2394,-2.2065,-2.2303,-2.2307,-2.1754,-2.0649,-1.9875,-1.9404,-1.9182,-1.8511,-1.8317,-1.8496,-1.7799,-1.7924,0.0,-1.7422,-1.7175,-1.7259,-1.5431,-1.456,-1.4236,-1.3238,-1.2715,-1.2501,0.0,0.0,0.0,0.0,0.0,0.0,0.0,-0.2942,-0.2985,-0.2445,-0.3073,-0.3142,-0.1986,-0.1571,-0.0698,0.1042,0.0,0.0,0.0,0.0,0.0,0.0,0.0,0.0,1.1908,1.199,1.2912,1.4744,1.4871,1.4939,1.4935,1.5921,1.5413,1.3725,1.4322,1.4148,0.0,0.0,0.0,0.0,0.0,1.4412,0.0,0.0,0.0,0.0,0.0,0.0,0.0,0.0,0.0,0.0,0.0,0.0,0.0,0.0,0.0,0.0,0.0,1.4901,1.3219,1.3302,1.1256,0.9324,0.975,0.8875,0.0,0.7276,0.7115,0.6415,0.4198,0.483,0.3723,-0.2325,-0.5126,0.0,0.0,0.0,0.0,0.0,0.0,0.0,0.0,-2.4926,-2.4856,-2.4657,-2.4451,-2.4025,-2.3263,-2.3782,-2.3603,-2.2478,-2.1711,-2.1552,-2.196,-2.2048,-2.1394,-1.9968,-1.8489,-1.7983,-1.83,-1.7441,-1.7288,0.0,-1.684,-1.7061,-1.7918,-1.6896,-1.6441,-1.6293,-1.5084,-1.4283,-1.3674,-1.3055,-1.2344,-1.1715,0.0,0.0,0.0,0.0,0.0,0.0,0.0,0.0,0.0,0.0,-0.2328,-0.2485,-0.2503,-0.2427,-0.1399,0.0,0.0,0.0,0.0,0.0,0.0,0.0,0.0,0.0,1.2181,1.2966,1.3944,1.5152,1.6591,1.6922,1.6186,1.6677,1.6411,1.5481,1.5221,1.497,0.0,0.0,0.0,0.0,1.4929,1.4534,0.0,0.0,0.0,0.0,1.4272,1.528,0.0,0.0,0.0,0.0,0.0,0.0,0.0,0.0,1.7653,1.6591,1.664,0.0,1.3728,1.2125,1.1434,1.0811,0.0,0.9084,0.8656,0.787,0.692,0.6054,0.5586,0.4949,0.3,-0.1649,-0.6528,-1.1475,-1.6508,0.0,0.0,0.0,0.0,0.0,0.0,-2.3806,-2.3319,-2.3065,-2.2993,-2.2776,-2.2337,-2.288,-2.2497,-2.0978,-2.0733,-2.0053,-1.8865,-1.9622,-1.9593,-1.8794,-1.8683,-1.8341,-1.7768,-1.6875,-1.6379,-1.6217,-1.6411,-1.6638,-1.6837,-1.6565,-1.6391,-1.625,-1.4619,-1.3606,-1.2976,-1.2316,-1.1625,-1.1065,0.0,0.0,0.0,0.0,0.0,0.0,0.0,0.0,0.0,0.0,0.0,-0.1382,-0.1698,-0.1817,0.0,0.0,0.0,0.0,0.0,0.0,0.0,0.0,0.0,1.1706,1.2956,1.3799,1.5139,1.7052,1.8254,1.8627,1.8205,1.8121,1.7379,1.6062,1.5485,1.5296,0.0,0.0,0.0,0.0,1.5049,0.0,0.0,0.0,0.0,0.0,1.4624,1.5139,0.0,1.7479,1.8406,1.8842,0.0,0.0,0.0,0.0,1.7336,1.6472,1.6431,1.5731,1.4782,1.385,1.2947,1.208,1.1415,1.0456,0.9525,0.8908,0.7969,0.6458,0.3876,0.3146,0.0875,0.0,-0.9669,0.0,0.0,0.0,0.0,0.0,0.0,0.0,0.0,0.0,-2.2862,-2.2698,-2.2573,-2.2258,-2.1714,-2.2135,-2.1665,-2.0077,-1.9487,-1.8997,-1.8485,-1.8579,-1.846,-1.8184,-1.7887,-1.729,-1.6432,-1.5755,-1.5379,-1.525,-1.5345,-1.5389,-1.5398,-1.5595,-1.5336,-1.4815,-1.4082,-1.3178,-1.2288,-1.1904,-1.1166,-1.0312,0.0,0.0,0.0,0.0,0.0,0.0,0.0,0.0,0.0,0.0,0.0,0.0,0.0,0.0,0.0,0.0,0.0,0.0,0.0,0.0,0.0,0.0,1.0922,1.2302,1.3627,1.4397,1.6139,1.8826,1.9585,2.0033,2.0187,1.9756,1.8341,1.6088,1.5509,1.5386,0.0,0.0,0.0,1.5905,1.503,0.0,0.0,0.0,0.0,0.0,0.0,0.0,0.0,1.7377,1.8061,1.7992,1.8533,0.0,0.0,0.0,0.0,0.0,1.62,1.6007,1.582,1.6013,1.4583,1.318,1.3457,1.1836,1.0157,0.9716,0.8568,0.609,0.0978,-0.0296,0.0,0.0,0.0,0.0,0.0,0.0,0.0,0.0,0.0,0.0,-2.2886,-2.2695,-2.2591,-2.252,-2.2286,-2.1845,-2.1138,-2.1362,-2.09,-1.9574,-1.8499,-1.833,-1.9126,-1.8246,-1.7802,-1.7797,-1.6823,-1.5909,-1.509,-1.4627,-1.4419,-1.4467,-1.4215,0.0,-1.4026,-1.4399,-1.3978,-1.3107,-1.332,-1.2686,-1.1616,-1.1516,-1.0661,-0.9392,0.0,0.0,0.0,0.0,0.0,0.0,0.0,0.0,0.0,0.0,0.0,0.0,0.0,0.0,0.0,0.0,0.0,0.0,0.0,0.0,0.0,0.9038,0.9874,1.1143,1.2896,1.4421,1.6006,1.7652,2.0003,2.0994,2.0692,2.0708,1.9138,1.6257,1.599,1.5435,1.4732,1.515,1.5353,1.5401,1.4905,0.0,0.0,0.0,0.0,0.0,0.0,0.0,0.0,1.6185,1.6853,1.7358,1.7017,0.0,0.0,0.0,0.0,0.0,1.6581,1.6501,1.5734,1.4515,1.4315,1.404,1.2601,1.1216,0.9955,0.9057,0.5432,0.1799,-0.0339,-0.599,-1.2064,0.0,0.0,0.0,0.0,0.0,0.0,0.0,0.0,-2.2183,-2.2006,-2.1321,-2.0821,-2.0706,-2.0669,-2.0508,-2.0213,-2.0248,-1.9963,-1.9295,-1.887,-1.8571,-1.837,-1.7995,-1.7662,-1.7371,-1.6612,-1.5788,-1.4988,-1.4315,-1.3788,-1.344,0.0,-1.3853,-1.3424,-1.3478,-1.3353,-1.2986,-1.1995,-1.1323,-1.0864,-1.0312,-0.9235,-0.7931,0.0,0.0,0.0,0.0,0.0,0.0,0.0,0.0,0.0,0.0,0.0,0.0,0.0,0.0,0.0,0.0,0.0,0.0,0.0,0.0,0.0,0.8311,0.9188,1.0766,1.3079,1.4515,1.6369,1.8689,2.0611,2.1855,2.2393,2.0753,1.8767,1.6528,1.5602,1.4924,1.4515,1.4531,1.4843,1.527,0.0,0.0,0.0,0.0,0.0,0.0,0.0,0.0,0.0,0.0,1.6547,1.6637,1.6288,0.0,0.0,0.0,0.0,0.0,1.4987,1.5019,1.4428,1.2668,1.4104,1.579,1.5219,1.1858,0.8748,0.841,0.2978,-0.2284,-0.4252,0.0,-1.3964,-1.833,0.0,0.0,0.0,0.0,0.0,0.0,0.0,-2.1659,-2.1208,-2.0769,-2.0477,-2.0418,-2.0337,-2.0276,-2.0212,-2.0184,-1.9938,-1.9436,-1.9124,-1.8805,-1.843,-1.7963,-1.7492,-1.7027,-1.6475,-1.5677,-1.471,-1.4136,-1.3648,-1.321,0.0,-1.2938,-1.2493,-1.2434,-1.2069,-1.147,-1.1297,-1.0464,-0.9329,-0.843,-0.7433,-0.6465,0.0,0.0,0.0,0.0,0.0,0.0,0.0,0.0,0.0,0.0,0.0,0.0,0.0,0.0,0.0,0.0,0.0,0.0,0.0,0.0,0.6748,0.7975,0.8414,1.0155,1.3404,1.4595,1.6602,1.9536,2.0904,2.2254,2.3524,2.077,1.8588,1.6909,1.5269,1.439,1.4159,1.3828,1.4205,1.4923,0.0,0.0,0.0,0.0,0.0,0.0,0.0,0.0,0.0,0.0,0.0,0.0,0.0,0.0,0.0,1.4261,1.3648,1.3194,1.341,1.3463,1.3129,1.1679,1.3105,1.4756,1.4354,0.9712,0.5399,0.5024,-0.0792,-0.6434,-0.8391,-1.1606,0.0,-1.8198,0.0,0.0,0.0,0.0,0.0,0.0,-2.1477,-2.126,-2.0664,-2.0543,-2.0513,-2.0508,-2.0395,-2.0366,-2.039,-2.028,-2.0048,-1.9696,-1.9147,-1.8776,-1.8604,-1.7945,-1.7344,-1.6789,-1.6192,-1.5418,-1.447,-1.3855,-1.3365,-1.3012,-1.2425,-1.1945,-1.1612,-1.1446,-1.0882,-1.0119,-1.0543,-0.9628,-0.7936,-0.6755,-0.6,-0.555,0.0,0.0,0.0,0.0,0.0,0.0,0.0,0.0,0.0,0.0,0.0,0.0,0.0,0.0,0.0,0.0,0.0,0.0,0.0,0.0,0.6923,0.8553,0.7149,0.8638,1.3572,1.4606,1.6311,1.8793,2.0378,2.178,2.2931,2.134,1.951,1.747,1.546,1.4065,1.3199,1.3159,1.3446,1.3923,1.4332,0.0,0.0,0.0,0.0,0.0,0.0,0.0,0.0,0.0,0.0,0.0,0.0,0.0,1.2234,1.2481,1.1797,1.1278,1.2878,1.2913,1.2505,1.2561,1.0547,0.7768,0.4752,0.1428,-0.1603,-0.3653,-0.7591,-1.0882,0.0,-1.5103,-1.8148,0.0,0.0,0.0,0.0,0.0,-2.0024,-2.0288,-2.0487,-2.0594,-2.0605,-2.0605,-2.0564,-2.051,-2.0484,-2.0451,-2.0396,-2.0099,-1.9943,-1.9972,-1.8803,-1.8304,-1.8604,-1.7823,-1.7223,-1.6789,-1.5649,-1.4866,-1.447,-1.317,-1.2567,-1.2508,-1.1542,-1.1094,-1.1019,-1.0574,-1.0267,-1.0022,-0.9477,-0.8497,-0.7234,-0.5859,-0.5575,-0.574,0.0,0.0,0.0,0.0,0.0,0.0,0.0,0.0,0.0,0.0,0.0,0.0,0.0,0.0,0.0,0.0,0.0,0.0,0.0,0.6169,0.7278,0.9165,0.723,0.8424,1.3409,1.2729,1.3812,1.6902,2.0264,2.2304,2.305,2.1354,1.9629,1.785,1.5263,1.3727,1.3071,1.2542,1.2902,1.3814,1.3993,1.4256,0.0,0.0,0.0,0.0,0.0,0.0,0.0,0.0,1.1639,1.1612,1.1312,1.1317,1.1336,1.0954,1.0217,0.9514,0.9471,0.8609,0.7467,0.6391,0.3461,0.1552,0.4207,0.0339,-0.4263,-0.5852,-1.0902,-1.5183,0.0,0.0,-1.7052,0.0,0.0,0.0,0.0,-1.9062,-1.9505,-1.9846,-2.0109,-2.0331,-2.0516,-2.0508,-2.049,-2.0506,-2.0468,-2.0458,-2.0516,-1.9815,-1.8992,-1.8092,-1.7776,-1.7458,-1.717,-1.6515,-1.5821,-1.5191,-1.5254,-1.5035,-1.447,-1.3399,-1.2791,-1.2473,-1.1799,-1.1319,-1.0943,-1.0137,-0.9569,-0.9056,-0.748,-0.6521,-0.5948,-0.498,-0.4778,-0.486,0.0,0.0,0.0,0.0,0.0,0.0,0.0,0.0,0.0,0.0,0.0,0.0,0.0,0.0,0.0,0.0,0.0,0.0,0.5743,0.6047,0.7111,0.9027,0.6685,0.7476,1.2074,1.0734,1.1789,1.5431,1.9811,2.2212,2.2671,2.1436,1.9868,1.7997,1.5432,1.3753,1.2844,1.2061,1.2173,1.2925,1.3213,1.3635,0.0,0.0,0.0,0.0,0.0,0.0,0.0,0.0,0.9998,1.016,0.9595,0.966,0.9776,0.8999,0.8428,0.7651,0.5905,0.5125,0.4159,0.1268,-0.1476,-0.2767,-0.0028,-0.3627,-0.8064,-0.9927,-1.4146,-1.7521,-1.7582,0.0,0.0,0.0,0.0,0.0,-1.7931,-1.8449,-1.8953,-1.9367,-1.9707,-2.0034,-2.0363,-2.0115,-1.9963,-2.0082,-1.9968,-2.0097,-2.058,-1.9227,-1.7799,-1.6413,-1.6617,-1.6577,-1.6214,-1.5467,-1.4735,-1.4091,-1.4551,-1.4386,-1.3601,-1.2831,-1.2247,-1.1836,-1.1487,-1.1105,-1.0715,-0.9864,-0.8981,-0.7979,-0.6173,-0.5297,-0.501,-0.4374,-0.3962,-0.3695,0.0,0.0,0.0,0.0,0.0,0.0,0.0,0.0,0.0,0.0,0.0,0.0,0.0,0.0,0.0,0.0,0.0,0.0,0.5719,0.5577,0.6261,0.7928,0.5255,0.5529,0.9428,0.9002,1.0726,1.4715,1.8955,2.1207,2.1604,2.1589,2.0274,1.7834,1.6146,1.4283,1.2341,1.1821,1.1308,1.0974,1.1906,1.2704,1.346,0.0,0.0,0.0,0.0,0.0,0.0,0.0,0.8515,0.7859,0.8253,0.7926,0.7236,0.649,0.6297,0.5695,0.26,0.3158,0.3424,-0.1569,-0.3279,-0.5006,-0.9805,-1.1906,-1.3731,-1.703,-1.7693,-1.7495,-1.683,-1.6767,0.0,0.0,0.0,0.0,-1.7157,-1.7589,-1.8121,-1.8733,-1.9201,-1.9678,-2.0147,-1.9403,-1.8974,-1.9169,-1.8952,-1.9335,-2.0527,-1.832,-1.645,-1.5238,-1.5471,-1.571,-1.5968,-1.4917,-1.4178,-1.3769,-1.3348,-1.2636,-1.1678,-1.1165,-1.0701,-1.0393,-1.0306,-1.0273,-1.0235,-0.9677,-0.848,-0.6868,-0.5728,-0.5044,-0.4607,-0.407,-0.3197,-0.2404,0.0,0.0,0.0,0.0,0.0,0.0,0.0,0.0,0.0,0.0,0.0,0.0,0.0,0.0,0.0,0.0,0.0,0.0,0.6138,0.5782,0.649,0.8334,0.5968,0.6553,1.0681,1.1594,1.3649,1.7001,1.9727,2.1127,2.123,2.0855,1.9482,1.7283,1.599,1.4067,1.1795,1.0881,1.0176,0.9727,0.9992,1.0916,1.2197,0.0,0.0,0.0,0.0,0.0,0.0,0.0,0.0,0.0,0.6456,0.6265,0.6138,0.4409,0.3583,0.2785,0.0736,-0.0562,-0.1809,-0.3739,-0.5715,-0.7968,-1.0865,-1.2716,-1.4424,-1.6593,-1.7476,-1.7604,-1.6889,0.0,0.0,0.0,0.0,0.0,-1.6586,-1.7252,-1.7859,-1.814,-1.8822,-1.9432,-1.9745,-1.9205,-1.8689,-1.8316,-1.8567,-1.9215,-2.0323,-1.8276,-1.6506,-1.5248,-1.5138,-1.4869,-1.4391,-1.3599,-1.2815,-1.2033,-1.1198,-1.1135,-1.1666,-1.1183,-1.0431,-0.9494,-0.9452,-0.9223,-0.8767,-0.8053,-0.6981,-0.5728,-0.5106,-0.4574,-0.4095,-0.3825,-0.3755,-0.3258,0.0,0.0,0.0,0.0,0.0,0.0,0.0,0.0,0.0,0.0,1.2251,1.176,0.0,0.0,0.0,0.0,0.0,0.0,0.6911,0.5987,0.655,0.8855,0.7198,0.834,1.2822,1.4254,1.598,1.8039,1.9623,2.0516,2.0662,2.0527,1.9433,1.754,1.6673,1.4536,1.1481,1.0349,0.9208,0.8152,0.7639,0.7913,0.8745,0.0,0.0,0.0,0.0,0.0,0.0,0.0,0.0,0.0,0.5715,0.5242,0.4873,0.2057,0.1276,0.0713,-0.1997,-0.3389,-0.4477,-0.6211,-0.7868,-0.9666,-1.1835,-1.3739,0.0,0.0,-1.6858,-1.7097,-1.6499,-1.6394,0.0,0.0,-1.6274,-1.6313,-1.6136,-1.6818,-1.7292,-1.7199,-1.8178,-1.8831,-1.8846,-1.8361,-1.7985,-1.7822,-1.7502,-1.7589,-1.8243,-1.7098,-1.6046,-1.5237,-1.4851,-1.4373,-1.3788,-1.2908,-1.2084,-1.1298,-1.0268,-0.997,-1.0283,-1.0053,-0.9436,-0.8589,-0.8583,-0.8201,-0.7509,-0.6982,-0.6103,-0.5019,-0.4815,-0.4036,-0.3118,-0.3475,-0.3202,-0.2044,0.0,0.0,0.0,0.0,0.0,0.0,0.0,0.0,0.0,1.4168,1.4025,1.3627,0.0,0.0,0.0,1.1753,1.0164,0.8814,0.7957,0.6277,0.6535,0.9289,0.8938,1.0825,1.5468,1.6706,1.7568,1.8144,1.9004,1.957,1.9876,2.0407,1.9838,1.8355,1.7879,1.5417,1.1475,1.0056,0.8273,0.6271,0.5017,0.4243,0.4098,0.6645,0.0,0.0,0.0,0.0,0.0,0.0,0.0,0.0,0.5829,0.4771,0.3541,-0.0149,-0.0648,-0.0893,-0.4911,-0.5371,-0.5482,-0.8549,-0.9606,-1.0432,-1.2565,-1.4595,-1.5994,-1.5726,0.0,-1.6108,-1.5784,-1.577,-1.5799,-1.5799,-1.5799,-1.5799,-1.5799,-1.6355,0.0,0.0,-1.7325,-1.8039,-1.7548,-1.7114,-1.7015,-1.7377,-1.6045,-1.5177,-1.5146,-1.5291,-1.5311,-1.5186,-1.4628,-1.4196,-1.3908,-1.2684,-1.1776,-1.1179,-1.0106,-0.905,-0.8047,-0.8178,-0.7979,-0.7555,-0.7526,-0.7047,-0.6318,-0.633,-0.5668,-0.4661,-0.464,-0.3388,-0.1748,-0.2623,-0.1612,0.0574,0.0,0.0,0.0,0.0,0.0,0.0,0.0,0.0,1.3557,1.3528,1.4109,1.4006,1.2636,1.2816,0.0,1.1865,1.0622,0.9538,0.8722,0.7136,0.6971,0.8638,1.1454,1.4177,1.6763,1.7125,1.7668,1.8418,1.9191,1.9307,1.8844,1.9849,1.9775,1.8734,1.8032,1.5654,1.2019,0.9327,0.6574,0.3944,0.2871,0.2504,0.2609,0.2901,0.547,0.0,0.0,0.0,0.0,0.0,0.0,0.0,0.6492,0.4659,0.2787,0.0183,-0.1799,-0.3468,-0.4984,-0.6657,-0.8126,-0.8636,-1.0011,-1.1474,-1.2354,-1.3485,-1.4418,-1.4707,-1.509,-1.5344,-1.5255,-1.5551,-1.5799,-1.5799,-1.5799,-1.5799,0.0,0.0,0.0,0.0,0.0,0.0,0.0,-1.6335,-1.6146,-1.5246,-1.5191,-1.5046,-1.466,-1.5037,-1.5179,-1.5054,-1.4705,-1.4362,-1.3977,-1.2621,-1.14,-1.0349,-0.8802,-0.7616,-0.6822,-0.7499,-0.7076,-0.5734,-0.5311,-0.5015,-0.4842,-0.4833,-0.4692,-0.4424,-0.3989,-0.2415,-0.0178,0.1447,0.176,0.1664,0.0,0.0,0.0,0.0,0.0,0.0,0.0,0.0,1.3894,1.3801,1.4465,1.4697,1.4046,1.3945,0.0,0.0,1.1358,1.0177,0.9248,0.7495,0.7586,1.0037,1.3669,1.6251,1.7555,1.7747,1.7213,1.5961,1.5924,1.6612,1.7986,1.8373,1.8362,1.7948,1.706,1.4663,1.1123,0.8633,0.5412,0.1924,0.0827,-0.0224,-0.11,-0.018,0.1831,0.4286,0.5189,0.0,0.0,0.0,0.0,0.0,0.0,0.0,0.2432,-0.0715,-0.2668,-0.4202,-0.5956,-0.731,-0.8361,-0.8885,-1.0385,-1.1802,-1.2067,-1.266,-1.3315,-1.3789,-1.4533,-1.5104,-1.5104,-1.5477,-1.5799,0.0,0.0,0.0,0.0,0.0,0.0,0.0,0.0,0.0,0.0,0.0,0.0,0.0,0.0,-1.4237,-1.3988,-1.4532,-1.4878,-1.4907,-1.4578,-1.4201,-1.3755,-1.2072,-1.0686,-0.9566,-0.8238,-0.6978,-0.5836,-0.609,-0.5698,-0.48,-0.4521,-0.3941,-0.3215,-0.3927,-0.3438,-0.2254,-0.1976,-0.0758,0.1069,0.2918,0.3185,0.2776,0.0,0.0,0.0,0.0,0.0,0.0,0.0,0.0,0.0,1.4008,1.443,1.4883,1.5326,1.4851,1.4154,0.0,0.0,0.0,0.9397,0.7723,0.8165,1.1374,1.4693,1.6588,1.6846,1.6976,1.5418,1.2084,1.1097,1.2239,1.5368,1.5937,1.6556,1.7122,1.5941,1.3581,1.036,0.8028,0.4612,0.064,-0.063,-0.2585,-0.4575,-0.2869,-0.1781,-0.091,0.1272,0.4057,0.6748,0.7101,0.0,0.0,0.0,0.0,0.2315,-0.14,-0.3045,-0.4193,-0.6674,-0.7508,-0.7948,-0.9202,-1.0514,0.0,-1.1627,-1.1945,-1.2389,-1.2873,-1.3973,-1.4876,0.0,0.0,0.0,0.0,0.0,0.0,0.0,0.0,0.0,0.0,0.0,0.0,0.0,0.0,0.0,0.0,0.0,-1.3322,-1.3125,-1.3792,-1.4294,-1.4574,-1.4165,-1.37,-1.3256,-1.1486,-0.9856,-0.8356,-0.6861,-0.5384,-0.397,-0.3689,-0.3713,-0.3933,-0.3728,-0.2824,-0.1565,-0.2713,-0.1897,0.0124,0.0692,0.1416,0.2277,0.3537,0.3899,0.3773,0.0,0.0,0.0,0.0,0.0,0.0,0.0,0.0,0.0,0.0,1.2809,1.3021,1.3944,1.3867,1.3267,1.2133,1.0977,0.983,0.8722,0.0,0.0,0.9921,1.2503,1.3362,1.2218,1.182,1.029,0.7577,0.6166,0.6046,0.0,0.0,1.5292,1.7789,1.5907,1.3984,1.1917,0.7814,0.4273,0.1235,-0.0545,-0.2449,-0.4288,-0.5149,-0.3524,-0.0828,-0.1213,0.1213,0.4923,0.7011,0.6984,0.0,0.0,0.0,0.2332,0.0223,-0.2191,-0.4388,-0.5288,-0.7133,-0.8885,-0.9397,-0.9991,-1.0621,0.0,0.0,-1.1356,0.0,-1.3101,0.0,0.0,0.0,0.0,0.0,0.0,0.0,0.0,0.0,0.0,0.0,0.0,0.0,0.0,0.0,0.0,0.0,-1.288,-1.2997,-1.2058,-1.2553,-1.3133,-1.3742,-1.3149,-1.2632,-1.2291,-1.1439,-0.9261,-0.5751,-0.2136,0.0064,0.0926,0.0645,-0.0456,-0.2085,-0.1057,-0.0466,-0.0202,0.0107,0.0262,0.0552,0.3444,0.4077,0.3534,0.5048,0.5033,0.4351,0.0,0.0,0.0,0.0,0.0,0.0,0.0,0.0,0.0,0.0,0.0,1.29,1.2614,1.2727,1.2447,1.1542,1.0689,0.9106,0.6539,0.5945,0.5958,0.6493,0.7013,0.7457,0.7811,0.7147,0.5776,0.3727,0.2394,0.1865,0.0,0.4421,0.8181,0.0,1.2176,1.1338,1.0394,0.8224,0.5105,0.1514,0.0297,-0.2035,-0.4821,-0.5344,-0.5107,-0.4449,-0.3929,-0.1978,0.053,0.1774,0.232,0.257,0.3191,0.0,0.0,0.0,-0.1366,-0.3007,-0.4788,-0.6989,-0.8814,0.0,-0.9864,-1.0764,-1.0943,0.0,-1.1836,0.0,0.0,0.0,0.0,0.0,0.0,0.0,0.0,0.0,0.0,0.0,0.0,0.0,0.0,0.0,0.0,0.0,0.0,0.0,-1.2236,-1.2308,-1.1832,-1.2318,-1.2323,-1.1716,-1.0387,-0.8893,-0.7239,-0.5329,-0.3058,-0.0445,0.1971,0.3806,0.508,0.4864,0.311,0.0262,0.0787,0.1547,0.2458,0.2571,0.2667,0.2866,0.4602,0.4988,0.4622,0.5328,0.5275,0.4957,0.0,0.0,0.0,0.0,0.0,0.0,0.0,0.0,0.0,0.0,0.0,0.9604,0.8992,0.0,0.0,0.0,0.8011,0.6547,0.3612,0.2976,0.2691,0.2671,0.2164,0.2238,0.3,0.2393,0.1305,-0.0253,-0.1216,0.0,-0.1895,-0.1972,0.0769,0.0,0.7335,0.8244,0.0,0.0,0.5486,0.2039,0.2156,-0.0894,-0.525,-0.3119,-0.473,-0.7795,-0.5214,-0.4447,-0.4433,-0.3139,-0.2079,-0.1146,-0.0299,-0.0261,0.0,0.0,0.0,-0.2103,-0.4267,-0.6254,-0.7819,-0.8278,-0.9383,-1.0514,0.0,0.0,-1.1884,0.0,0.0,0.0,0.0,0.0,0.0,0.0,0.0,0.0,0.0,0.0,0.0,0.0,0.0,0.0,0.0,0.0,0.0,0.0,-1.1214,-1.1146,-1.0778,-1.0857,-1.022,-0.8748,-0.7115,-0.5143,-0.2811,0.0284,0.2866,0.4896,0.5594,0.6646,0.7994,0.7859,0.6234,0.3513,0.3106,0.3634,0.4704,0.4526,0.4662,0.5017,0.5504,0.5722,0.5754,0.6058,0.6064,0.5973,0.0,0.0,0.0,0.0,0.0,0.0,0.0,0.0,0.0,0.0,0.0,0.01,0.1492,0.0987,0.0553,0.058,0.0956,0.0847,0.0024,-0.0544,-0.0863,-0.094,-0.0189,0.0,-0.2632,-0.266,-0.3344,-0.4763,-0.5086,0.0,-0.5454,-0.5579,-0.4814,-0.3092,0.2129,0.5688,0.7675,0.0,0.0,0.3139,0.5381,0.1374,-0.5135,0.2434,0.0,0.0,0.0,0.0,0.0,0.0,-0.4416,-0.4412,-0.1979,-0.1441,-0.177,0.0,0.0,0.0,-0.3393,-0.4468,0.0,-0.7128,-0.8096,-0.9127,0.0,0.0,0.0,0.0,0.0,0.0,0.0,0.0,0.0,0.0,0.0,0.0,0.0,0.0,0.0,0.0,0.0,0.0,0.0,0.0,0.0,0.0,-0.9595,-0.9389,-0.7982,-0.6859,-0.5749,-0.4641,-0.3648,-0.248,-0.1131,0.2556,0.6003,0.9168,0.8656,0.8661,0.9115,0.8726,0.8452,0.8166,0.6692,0.5898,0.5641,0.5618,0.5788,0.6086,0.6615,0.6824,0.6962,0.8105,0.8154,0.7755,0.0,0.0,0.0,0.0,0.0,0.0,0.0,0.0,0.0,0.0,0.0,0.0,0.0,-0.042,-0.0065,-0.0301,-0.1193,-0.1855,-0.2138,-0.2793,-0.3749,-0.5063,-0.5754,-0.6209,-0.6369,-0.6477,-0.6194,-0.5497,-0.5293,-0.5432,-0.5894,-0.5995,-0.602,-0.5779,-0.0909,0.2482,0.4621,0.5753,0.0,0.0,0.0,-0.298,-0.879,0.0,0.0,0.0,0.0,0.0,0.0,0.0,0.0,0.0,-0.5864,-0.4776,-0.388,-0.268,-0.2707,-0.3201,0.0,0.0,0.0,-0.5829,-0.6909,-0.8061,-0.8981,0.0,0.0,0.0,0.0,0.0,0.0,0.0,0.0,0.0,0.0,0.0,0.0,0.0,0.0,0.0,0.0,0.0,0.0,0.0,0.0,0.0,0.0,-0.5446,-0.2164,-0.2309,-0.1973,-0.0809,0.0981,0.3802,0.7763,0.9005,1.0245,1.1484,1.0563,1.0342,1.0741,1.0474,1.0331,1.0307,0.9753,0.8766,0.7554,0.7554,0.7787,0.8176,0.8354,0.8649,0.902,0.9419,0.9467,0.9252,0.0,0.0,0.0,0.0,0.0,0.0,0.0,0.0,0.0,-0.7465,0.0,0.0,0.0,0.0,-0.4307,-0.4023,-0.5187,-0.5684,-0.5017,-0.5382,-0.6249,-0.7649,-0.8681,-0.8871,-0.8121,-0.8255,-0.7362,-0.536,-0.4791,-0.4856,-0.5563,-0.571,-0.6243,-0.6955,-0.3425,-0.0644,0.0,0.0,0.0,-0.0394,0.0,0.0,-1.0039,0.0,0.0,0.0,0.0,0.0,0.0,0.0,0.0,0.0,0.0,0.0,0.0,0.0,0.0,-0.398,-0.3957,-0.4199,0.0,0.0,0.0,-0.665,-0.7697,0.0,0.0,0.0,0.0,0.0,0.0,0.0,0.0,0.0,0.0,0.0,0.0,0.0,0.0,0.0,0.0,0.0,0.0,0.0,0.0,0.0,0.0,0.0,0.309,0.32,0.3406,0.4032,0.5893,0.8726,1.2558,1.2527,1.2533,1.2601,1.1955,1.1764,1.2035,1.1834,1.1736,1.1736,1.1736,1.0745,0.9181,0.9413,0.9706,1.0042,1.0262,1.0641,1.1047,1.093,1.0866,1.0791,0.0,0.0,0.0,0.0,0.0,0.0,0.0,0.0,-1.0347,-1.2019,0.0,0.0,0.0,0.0,0.0,-1.1072,-1.1375,-1.0773,-0.8708,-0.8346,-0.831,-0.8532,-0.8504,-0.8318,-0.7907,-0.7968,-0.6915,-0.4701,-0.3865,-0.3865,-0.4641,-0.4898,-0.5717,-0.691,-0.5364,-0.3488,-0.1519,0.0,-0.186,-0.2152,0.0,-0.3851,-0.8641,0.0,0.0,0.0,-0.8692,-1.0696,0.0,0.0,0.0,0.0,0.0,0.0,0.0,0.0,0.0,-0.5012,0.0,0.0,0.0,0.0,0.0,0.0,0.0,0.0,0.0,0.0,0.0,0.0,0.0,0.0,0.0,0.0,0.0,0.0,0.0,0.0,0.0,0.0,0.0,0.0,0.0,0.0,0.0,0.0,-0.1676,0.1411,0.7359,0.9471,1.0288,0.9794,1.0891,1.1799,1.2462,1.267,1.273,1.2667,1.2853,1.2935,1.2917,1.2729,1.2614,1.263,1.263,1.177,1.0421,1.1094,1.1411,1.1522,1.2188,1.2704,1.2985,1.26,1.2448,1.239,0.0,0.0,0.0,0.0,0.0,-0.9149,-1.1932,-1.2714,-1.3597,0.0,0.0,0.0,-1.3877,-1.3264,-1.2622,-1.1778,-1.2347,-1.2003,-1.0203,-0.903,-0.8678,-0.928,-0.879,-0.838,-0.8126,-0.7841,-0.6684,-0.4639,-0.3487,-0.2918,-0.2886,-0.3156,-0.3535,-0.3996,-0.3978,-0.4034,-0.4033,-0.2319,0.0,0.0,-0.5175,-0.8652,0.0,0.0,0.0,0.0,0.0,-1.6679,0.0,0.0,-1.5367,-1.2923,0.0,0.0,0.0,0.0,0.0,-0.6614,-0.5939,0.0,0.0,0.0,0.0,0.0,0.0,0.0,0.0,0.0,0.0,0.0,0.0,0.0,0.0,0.0,0.0,0.0,0.0,0.0,0.0,0.0,0.0,0.0,0.0,0.0,0.0,0.0,0.1014,0.3766,0.8923,1.022,1.1059,1.1636,1.2572,1.3405,1.4128,1.4341,1.4342,1.4185,1.3853,1.3726,1.3761,1.3418,1.3194,1.3107,1.3107,1.266,1.202,1.2753,1.2999,1.299,1.3754,1.4076,1.4082,1.3966,1.3914,1.3835,0.0,0.0,-0.7228,-0.7536,-1.0228,-1.2962,-1.4789,-1.5223,-1.5659,0.0,0.0,0.0,-1.4382,-1.409,-1.3677,-1.287,-1.3494,-1.3155,-1.1283,-1.0167,-0.9582,-0.9564,-0.902,-0.8528,-0.8119,-0.7445,-0.6212,-0.4401,-0.3001,-0.2237,-0.2033,-0.205,-0.2177,-0.2386,-0.2729,-0.3446,-0.4398,0.0,0.0,0.0,-0.8993,0.0,0.0,-1.6515,-1.7669,0.0,0.0,0.0,-1.6833,-1.8224,-1.6335,0.0,0.0,0.0,0.0,0.0,0.0,-0.7862,-0.7312,-0.6312,-0.5302,0.0,0.0,0.0,0.0,-0.4067,0.0,0.0,0.0,0.0,0.0,0.0,0.0,0.0,0.0,0.0,0.0,0.0,0.0,0.0,0.0,0.0,0.0,0.1347,0.2261,0.2534,0.3269,0.5821,1.0717,1.1505,1.2245,1.3154,1.3849,1.4468,1.4996,1.5069,1.5047,1.4921,1.4402,1.4186,1.4223,1.3839,1.3626,1.3555,1.3459,1.3464,1.3567,1.4216,1.4303,1.4117,1.516,1.5448,1.5211,1.5032,1.4878,1.469,0.0,0.0,-1.0625,-1.1758,-1.3223,-1.4641,-1.5768,-1.6663,-1.703,0.0,-1.6432,-1.6039,-1.5076,-1.5527,-1.5434,-1.4331,-1.479,-1.4213,-1.1983,-1.1395,-1.0609,-0.9469,-0.9286,-0.882,-0.7932,-0.7096,-0.5853,-0.4153,-0.2651,-0.1887,-0.1803,-0.1541,-0.1516,-0.1692,-0.1713,-0.2318,-0.3393,-0.4641,0.0,-0.8034,-1.1658,-1.2612,0.0,0.0,-1.6575,0.0,-1.7945,-1.7409,-1.5958,-1.8778,-1.7483,0.0,0.0,0.0,0.0,0.0,-0.9175,-0.8962,-0.8459,-0.7376,-0.6202,0.0,0.0,0.0,-0.3107,-0.3129,0.0,0.0,0.0,0.0,0.0,0.0,0.0,0.0,0.0,0.0,0.0,0.0,0.0,0.0,0.0,0.0,0.1515,0.2784,0.3849,0.4534,0.5347,0.7866,1.2499,1.2997,1.352,1.4331,1.4744,1.5061,1.5292,1.5179,1.5128,1.5132,1.4682,1.4478,1.4441,1.4139,1.3983,1.3927,1.3739,1.4099,1.4882,1.5477,1.5404,1.5005,1.6337,1.6659,1.6313,1.589,1.5506,1.518,-1.0166,-1.1531,-1.3082,-1.3,-1.4249,-1.5731,-1.7181,-1.829,-1.8995,-1.9062,-1.8198,-1.7691,-1.801,-1.7476,-1.6824,-1.6282,-1.6115,-1.4928,-1.2295,-1.1574,-1.0579,-0.9001,-1.001,-0.959,-0.7406,-0.8043,-0.7129,-0.4503,-0.3281,-0.2375,-0.1803,-0.2058,-0.1792,-0.1092,-0.1576,-0.2133,-0.2841,0.0,0.0,-0.8558,-1.0125,0.0,-1.3476,-1.528,-1.6954,-1.8378,-1.8924,-1.902,-1.8709,0.0,-1.6792,-1.5478,0.0,0.0,0.0,0.0,0.0,0.0,0.0,0.0,0.0,0.0,0.0,0.0,0.0,-0.229,0.0,0.0,0.0,0.0,0.0,0.0,0.0,0.0,0.0,0.0,0.0,0.0,0.0,0.0,0.0,0.0,0.3263,0.4565,0.5587,0.625,0.8465,1.0929,1.3507,1.3491,1.3835,1.4748,1.5064,1.5253,1.5308,1.5263,1.529,1.5349,1.5088,1.4904,1.4802,1.4624,1.4409,1.4136,1.4033,1.4406,1.5121,1.615,1.6314,1.5981,1.6855,1.7002,1.6686,1.6602,1.6336,1.605,-1.2316,-1.2737,-1.3547,-1.3698,-1.4769,-1.609,-1.7493,-1.8746,-1.9514,-1.9383,-1.9269,-1.9039,-1.8654,-1.8385,-1.7757,-1.6493,-1.5765,-1.4599,-1.2817,-1.1733,-1.068,-0.9648,-1.0024,-0.9507,-0.7936,-0.79,-0.7071,-0.5346,-0.3871,-0.2968,-0.2654,-0.2826,-0.2919,-0.2923,-0.2521,-0.2809,0.0,0.0,-0.5653,-0.7169,-1.0246,0.0,-1.4865,-1.6459,-1.7824,-1.8945,-1.9265,-1.9439,-1.9202,-1.7213,-1.5816,0.0,0.0,-1.2738,-1.1579,0.0,-1.0699,-1.0991,0.0,0.0,0.0,-0.7696,0.0,0.0,0.0,0.0,0.0,0.0,0.0,0.0,0.0,0.0,0.0,0.0,0.0,0.0,0.0,0.0,0.0,0.0,0.0,0.0,0.5027,0.5891,0.6781,0.7725,0.9528,1.1489,1.3549,1.3761,1.4083,1.4729,1.4974,1.5155,1.5311,1.5293,1.5332,1.541,1.5205,1.5049,1.4992,1.4859,1.4892,1.5019,1.4487,1.4966,1.6183,1.6815,1.7234,1.75,1.7691,1.7469,1.7052,1.7052,1.6825,1.6554,-1.3432,-1.324,-1.3512,-1.4109,-1.5129,-1.6277,-1.7476,-1.8849,-1.964,-1.9415,-2.0278,-2.0421,-1.9269,-1.9423,-1.8962,-1.7239,-1.6062,-1.4922,-1.3706,-1.2574,-1.1637,-1.0895,-1.037,-0.9828,-0.9227,-0.8052,-0.7072,-0.6321,-0.4477,-0.3623,-0.3723,-0.3905,-0.4303,-0.4783,-0.3981,0.0,0.0,0.0,0.0,-0.629,0.0,-1.3437,-1.4873,-1.6917,-1.7842,-1.8161,-1.9065,-1.9268,-1.8788,-1.6879,0.0,-1.3973,-1.4549,-1.3157,0.0,0.0,0.0,0.0,0.0,0.0,0.0,0.0,0.0,-0.589,0.0,0.0,0.0,0.0,0.0,0.0,0.0,0.0,0.0,0.0,0.0,0.0,0.0,0.0,0.0,0.0,0.0,0.0,0.0,0.7073,0.7814,0.892,0.9886,1.1287,1.3295,1.3885,1.4313,1.4605,1.4841,1.5076,1.5292,1.5299,1.5327,1.5391,1.5241,1.5136,1.5107,1.5156,1.5452,1.5911,1.519,1.581,1.7372,1.7588,1.8164,1.8857,1.8443,1.7963,1.7539,1.7492,1.7256,1.6977,-1.4426,-1.4182,-1.4336,-1.4594,-1.5622,-1.6747,-1.7726,-1.922,-2.046,-2.1133,-2.1786,-2.2177,-2.2116,0.0,0.0,0.0,0.0,0.0,-1.5324,0.0,-1.4558,-1.2619,-1.2356,-1.1989,-1.1443,-1.0083,-0.8625,-0.7084,-0.5143,-0.4296,-0.4498,-0.5618,-0.546,-0.4264,-0.558,0.0,0.0,0.0,-0.7611,0.0,-1.0706,-1.1311,0.0,-1.3612,-1.5136,-1.6264,-1.8072,-1.868,-1.8393,0.0,-1.5692,-1.4837,0.0,-1.2176,-1.2324,0.0,0.0,0.0,0.0,0.0,0.0,0.0,-0.8321,0.0,0.0,0.0,0.0,0.0,0.0,0.0,0.0,0.0,0.0,0.0,0.0,0.0,0.0,0.0,0.0,0.0,0.0,0.0,0.0,0.0,0.8972,0.9718,1.0442,1.1576,1.3304,1.4082,1.4526,1.4671,1.4995,1.5215,1.53,1.5293,1.5327,1.5391,1.537,1.5275,1.5132,1.5875,1.6178,1.6102,1.6451,1.712,1.7961,1.8754,1.915,1.92,1.8731,1.8508,1.8413,1.8187,1.7898,1.7557,-1.5971,-1.5138,-1.4741,-1.5258,-1.5638,-1.6326,-1.7691,-1.9672,-2.1209,-2.1778,-2.2705,-2.3123,0.0,0.0,0.0,0.0,0.0,-1.8225,0.0,0.0,-1.4713,-1.2989,-1.2147,-1.1574,-1.1229,-0.9921,-0.8835,-0.8007,-0.6414,-0.5654,-0.5713,-0.6445,-0.6672,-0.6514,-0.7506,0.0,-0.6629,0.0,0.0,0.0,0.0,0.0,0.0,-1.4002,-1.6464,-1.7443,-1.7893,-1.8214,-1.8226,0.0,-1.5705,0.0,0.0,0.0,0.0,0.0,0.0,0.0,0.0,0.0,0.0,0.0,0.0,0.0,-0.7813,0.0,-0.6715,0.0,0.0,0.0,0.0,0.0,0.0,0.0,0.0,0.0,0.0,0.0,0.0,0.0,0.0,0.0,0.0,0.0,0.0,0.0,0.0,1.191,1.334,1.4095,1.4641,1.4971,1.5061,1.5146,1.5303,1.5334,1.5367,1.541,1.5918,1.6095,1.6,1.6829,1.7374,1.7662,1.7461,1.7885,1.8807,1.9363,1.9577,1.9569,1.9289,1.8947,1.8585,1.8469,1.8252,1.8053,-1.7584,-1.6354,-1.5485,-1.5921,-1.5925,-1.6398,-1.7985,-1.9828,-2.1273,0.0,0.0,0.0,-2.3021,-2.272,0.0,0.0,-2.0717,-1.9488,0.0,0.0,-1.6045,-1.5159,-1.3038,0.0,0.0,-1.0471,-0.9355,-0.9042,-0.7767,-0.6998,-0.6727,-0.7143,-0.7504,-0.7872,0.0,-0.8774,-0.844,0.0,0.0,-0.6706,-0.7979,-0.8991,-1.0227,-1.453,-1.6907,-1.7894,-1.758,-1.7682,-1.7847,-1.7082,-1.5275,0.0,-1.4788,0.0,0.0,0.0,0.0,0.0,-0.7453,0.0,0.0,0.0,0.0,0.0,0.0,0.0,0.0,0.0,0.0,0.0,0.0,0.0,0.0,0.0,0.0,0.0,0.0,0.0,0.0,0.0,0.0,0.0,0.0,0.0,0.0,0.0,0.0,0.0,1.3619,1.4214,1.4703,1.5093,1.5033,1.5092,1.5311,1.5345,1.5494,1.5735,1.6386,1.6792,1.6987,1.7802,1.8409,1.8769,1.8514,1.884,1.959,1.9851,1.9934,1.9922,1.9782,1.939,1.8911,1.8753,1.8585,1.8515,-1.9083,-1.8065,-1.6929,-1.6543,-1.678,-1.7499,-1.8852,-1.9512,0.0,0.0,0.0,0.0,0.0,0.0,0.0,0.0,0.0,-2.3179,-2.1652,0.0,-2.0022,0.0,0.0,-1.4604,0.0,0.0,-1.0744,-1.0144,-0.9064,-0.8112,-0.7286,-0.7886,-0.7717,-0.701,-0.8507,-0.9038,-0.8779,-0.8714,-0.9118,-0.9849,-0.9893,-1.2058,-1.5143,0.0,-1.4842,-1.6327,-1.6706,0.0,0.0,-1.5277,-1.4335,0.0,0.0,0.0,0.0,0.0,0.0,0.0,0.0,0.0,0.0,-0.7548,0.0,0.0,0.0,0.0,-0.9746,0.0,0.0,0.0,0.0,0.0,0.0,0.0,0.0,0.0,0.0,0.0,0.0,0.0,0.0,0.0,0.0,0.0,0.0,0.0,0.0,0.0,1.4341,1.4492,1.4624,1.4895,1.4973,1.5094,1.5291,1.5303,1.5729,1.6549,1.6651,1.7109,1.7889,1.8755,1.9001,1.8766,1.9785,2.0246,2.027,2.0278,2.0278,2.0259,2.0066,1.9892,1.9707,1.918,1.8966,1.9039,-1.8689,-1.8073,-1.7509,-1.7538,-1.7486,-1.8004,0.0,-2.0055,0.0,0.0,0.0,0.0,0.0,0.0,-2.4137,0.0,0.0,-2.3836,-2.2195,-2.1401,0.0,0.0,0.0,-1.5913,0.0,0.0,0.0,0.0,-0.9444,-0.8438,-0.7636,-0.7694,-0.7435,-0.6967,0.0,-0.9343,0.0,0.0,0.0,0.0,0.0,-1.0677,-1.2823,0.0,0.0,-1.6863,-1.6329,-1.6217,0.0,-1.4584,-1.3212,-1.214,-1.1886,-1.0175,-0.8228,-0.8315,-0.7538,0.0,0.0,0.0,-0.6151,-0.6015,0.0,0.0,0.0,0.0,0.0,0.0,0.0,0.0,0.0,0.0,0.0,0.0,0.0,0.0,0.0,0.0,0.0,0.0,0.0,0.0,0.0,0.0,0.0,0.0,0.0,0.0,0.0,1.4495,1.4536,1.4625,1.5423,1.5884,1.5948,1.6522,1.7016,1.7404,1.7998,1.8426,1.871,1.9592,1.9935,1.9842,2.0152,2.0307,2.0293,2.0296,2.0298,2.0288,2.0231,2.0086,1.9882,1.9532,1.9271,1.9277,-1.8808,-1.8361,-1.8052,-1.8373,-1.8168,-1.8399,0.0,0.0,0.0,0.0,-2.2612,0.0,-2.3623,0.0,-2.4042,0.0,-2.4594,-2.4118,-2.2741,-2.2155,0.0,-2.1325,-1.9083,0.0,0.0,0.0,0.0,0.0,0.0,-0.9109,-0.8008,-0.7715,-0.7304,-0.6837,0.0,-0.8934,-0.9504,0.0,-0.867,0.0,0.0,-1.0386,0.0,0.0,-1.4872,-1.5439,0.0,-1.5005,-1.4801,-1.3784,-1.2557,-1.1474,-1.152,-0.9731,-0.7624,-0.7731,-0.673,-0.5448,-0.4794,-0.4823,0.0,-0.4821,-0.4872,0.0,-0.5366,0.0,0.0,0.0,0.0,0.0,0.0,0.0,0.0,0.0,0.0,0.0,0.0,0.0,0.0,0.0,0.0,0.0,0.0,0.0,0.0,0.0,0.0,0.0,0.0,0.0,1.5285,1.5144,1.6075,1.6528,1.642,1.6965,1.7428,1.778,1.8325,1.8929,1.9548,2.0178,2.0469,2.0472,2.0433,2.0408,2.0405,2.0342,2.0312,2.0323,2.0314,2.0211,2.006,1.9774,1.9885,2.0328,-1.9395,-1.8907,-1.8559,0.0,-1.8789,0.0,0.0,0.0,-2.0462,0.0,-2.201,-2.2806,-2.3559,-2.3671,-2.3816,-2.4151,-2.4375,0.0,-2.3412,-2.2848,0.0,0.0,-2.154,-2.0708,-2.135,0.0,0.0,0.0,0.0,0.0,-0.8381,-0.7913,-0.7294,-0.6583,-0.6772,0.0,-0.9536,-0.7865,-0.854,-1.0692,-1.0321,-1.1162,-1.2643,-1.2367,-1.2135,-1.2142,-1.3235,-1.35,-1.3275,-1.2839,-1.2179,-1.1416,-1.042,-0.9318,-0.8154,-0.6742,-0.5807,-0.5084,-0.4638,-0.4005,-0.3593,-0.398,-0.3627,0.0,0.0,0.0,-0.2013,0.0,0.0,0.0,0.0,0.0,0.0,0.0,0.0,0.0,0.0,0.0,0.0,0.0,0.0,0.0,0.0,0.0,0.0,0.0,0.0,0.0,0.0,0.0,1.6735,1.6362,1.686,1.6988,1.6667,1.6716,1.7121,1.7823,1.7838,1.8712,2.0312,2.0501,2.0586,2.0585,2.0605,2.0596,2.0585,2.0392,2.035,2.0408,2.0389,2.0408,2.0384,2.0007,2.0795,2.2145,-1.7731,-1.8388,-1.897,0.0,-1.8731,-1.938,0.0,0.0,0.0,0.0,-2.221,-2.2618,-2.2909,-2.3392,-2.3735,-2.3816,-2.4248,0.0,0.0,0.0,0.0,-2.4426,-2.2848,-2.2048,-2.2269,-1.9128,0.0,-1.4977,0.0,0.0,-0.8391,-0.7759,-0.7064,-0.6294,0.0,0.0,-0.9001,-0.8295,-0.8666,-0.9744,-0.9644,-0.9508,0.0,0.0,-1.0517,-0.9566,-1.1566,-1.2277,-1.2164,-1.1286,-1.0521,-0.9776,-0.8962,-0.8133,-0.7197,-0.5898,-0.5356,-0.4897,-0.357,-0.327,-0.3179,-0.2397,-0.1838,-0.1366,0.0,0.0,0.0,0.0,0.0,0.0,0.0,0.0,0.0,0.0,0.0,0.0,0.0,0.0,0.0,0.0,0.0,0.0,0.0,0.0,0.0,0.0,0.0,0.0,0.0,0.0,0.0,1.6972,1.7546,1.7792,1.7633,1.8429,1.9106,1.962,1.9631,1.9865,2.0292,2.0345,2.0392,2.0466,2.0552,2.0605,2.0596,2.0539,2.0465,2.0485,2.1312,2.185,2.2064,2.1224,2.1777,2.2989,-1.7564,0.0,0.0,-1.9882,0.0,0.0,-2.1037,0.0,0.0,-2.0771,-2.1653,0.0,-2.1781,-2.2641,-2.3392,-2.3671,-2.3844,0.0,-2.364,0.0,0.0,-2.3584,-2.339,-2.3261,-2.321,-2.065,0.0,-1.6265,0.0,0.0,-0.8387,-0.7591,-0.6815,-0.607,0.0,-0.663,0.0,-0.8004,-0.8285,-0.8674,-0.8709,0.0,0.0,-0.9214,-0.9034,-0.8431,-0.936,-1.0051,-1.0455,-0.9878,-0.9322,-0.8717,-0.7932,-0.7152,-0.6334,-0.5237,-0.4668,-0.4119,-0.2987,-0.2728,-0.2439,-0.1149,-0.04,0.0354,0.1408,0.3703,0.566,0.0,0.0,0.0,0.0,0.0,0.0,0.0,0.0,0.0,0.0,0.0,0.0,0.0,0.0,0.0,0.0,0.0,0.0,0.0,0.0,0.0,0.0,0.0,0.0,1.7581,1.8254,1.8613,1.8582,1.917,1.9599,1.9864,1.9855,2.0021,2.0304,2.0307,2.0331,2.0358,2.0473,2.0523,2.0566,2.0591,2.0551,2.0677,2.2714,2.3465,2.3331,2.2748,2.2951,2.3559,0.0,0.0,0.0,0.0,0.0,0.0,0.0,-2.0567,0.0,-1.9678,0.0,-2.1791,-2.0841,-2.194,-2.2972,-2.3522,0.0,-2.3038,-2.2614,-2.3034,-2.2926,-2.2051,-2.3216,-2.382,-2.3657,-2.1954,0.0,0.0,0.0,0.0,-0.8383,-0.7463,-0.6675,0.0,0.0,0.0,0.0,-0.7462,-0.7738,-0.7807,-0.785,-0.7913,-0.7977,-0.7588,-0.772,-0.7957,-0.7131,-0.7675,-0.8789,-0.8723,-0.8495,-0.807,-0.7211,-0.637,-0.5567,-0.468,-0.3849,-0.3126,-0.2629,-0.2137,-0.144,-0.02,0.0797,0.1789,0.2996,0.5566,0.8171,0.9909,1.1074,1.229,0.0,0.0,0.0,0.0,0.0,0.0,0.0,0.0,0.0,0.0,0.0,0.0,0.0,0.0,0.0,0.0,0.0,0.0,0.0,0.0,0.0,1.8151,1.8895,0.0,1.9295,0.0,1.9305,1.93,1.93,1.9658,2.0307,2.0295,2.0307,2.0288,2.0361,2.0424,2.0483,2.0566,2.0726,2.1229,2.4177,2.4934,2.4341,2.4283,2.4148,2.4083,0.0,0.0,0.0,0.0,0.0,-2.0174,-2.0782,-2.136,-2.1604,-2.1164,-2.2218,-2.272,-2.2068,-2.265,-2.3045,-2.2898,-2.3069,0.0,0.0,0.0,0.0,-2.2078,-2.1926,-2.1808,-2.1771,-2.0494,-1.8508,0.0,0.0,-1.1521,-0.8381,-0.7671,-0.7032,0.0,0.0,0.0,-0.7777,-0.7729,0.0,-0.8386,-0.7757,-0.7319,-0.7023,-0.6804,-0.6747,-0.6746,-0.6198,-0.7201,-0.8761,-0.8424,-0.8068,-0.7647,-0.6771,-0.5968,-0.5073,-0.3871,-0.3192,-0.2629,-0.1769,-0.0968,-0.02,0.0436,0.1534,0.2859,0.4379,0.705,0.9689,1.1317,1.279,1.3701,1.3388,0.0,0.0,0.0,0.0,0.0,0.0,0.0,0.0,0.0,0.0,0.0,0.0,0.0,0.0,0.0,0.0,0.0,0.0,0.0,0.0,0.0,0.0,0.0,0.0,0.0,1.9298,1.9313,1.9308,1.965,2.0301,2.0304,2.0298,2.0307,2.0376,2.0407,2.0411,2.0492,2.1366,2.2859,2.4799,2.5395,2.5197,2.5178,2.5101,2.5022,0.0,0.0,0.0,0.0,0.0,0.0,0.0,-2.1242,0.0,-2.0507,-2.1539,-2.1917,-2.091,-2.1941,-2.2496,-2.1928,-2.1859,-2.1696,-2.1317,-2.0781,-2.0493,-2.0493,-2.0407,0.0,-2.0366,-1.9795,-1.8055,-1.5094,0.0,-1.1689,-0.8382,-0.7745,-0.7154,-0.6591,0.0,-0.6454,0.0,0.0,0.0,-0.7462,-0.7119,-0.657,-0.5892,-0.5807,-0.5655,-0.5449,-0.501,-0.5754,-0.6978,-0.722,-0.7218,-0.6922,-0.6036,-0.5373,-0.4668,-0.3612,-0.2834,-0.2172,-0.1505,-0.0668,0.0234,0.1133,0.2192,0.3543,0.5575,0.8036,1.0369,1.192,1.3438,1.4048,1.2717,1.0841,0.0,0.0,0.0,0.0,0.0,0.0,0.0,0.0,0.0,0.0,0.0,0.0,0.0,0.0,0.0,0.0,0.0,0.0,0.0,0.0,0.0,0.0,0.0,0.0,0.0,1.9305,1.93,1.9471,1.9777,1.9783,1.9962,2.0289,2.023,2.0244,2.04,2.1128,2.2285,2.3691,2.5069,2.5576,2.5543,2.5447,2.539,2.5341,0.0,-2.1711,0.0,0.0,-2.1427,0.0,-2.082,-2.0893,-2.0701,-1.9931,-2.0803,-2.1046,-1.9947,-2.1014,-2.1575,-2.0908,-2.0484,-2.0003,-1.9425,-1.8995,-1.878,-1.878,-1.8789,-1.8835,-1.893,-1.8887,-1.7448,0.0,0.0,0.0,-0.8626,-0.7855,-0.7274,0.0,0.0,0.0,0.0,0.0,-0.6672,-0.6407,-0.6307,-0.5794,-0.5085,-0.482,-0.456,-0.4279,-0.3881,-0.4189,-0.4891,-0.5583,-0.5937,-0.5952,-0.5161,-0.4599,-0.4055,-0.3253,-0.2335,-0.1507,-0.1136,-0.0301,0.07,0.1857,0.2874,0.4172,0.6495,0.8693,1.0691,1.2295,1.362,1.3989,1.2264,1.0753,0.0,0.0,0.0,0.0,0.0,0.0,0.0,0.0,0.0,0.0,0.0,0.0,0.0,0.0,0.0,0.0,0.0,0.0,0.0,0.0,0.0,1.8627,1.8984,0.0,1.9299,1.9305,1.9308,1.9309,1.9291,1.9295,1.9624,2.0193,2.006,2.023,2.0716,2.2145,2.3223,2.4102,2.5195,2.5642,2.5685,2.5505,2.5428,2.539,0.0,0.0,0.0,0.0,0.0,0.0,-2.0406,-2.0774,-2.1039,-2.1198,-2.1326,-2.1374,-2.1214,-2.0681,-2.0245,-2.0116,-1.9518,-1.9127,-1.9046,-1.8382,-1.799,-1.799,-1.7049,-1.6691,-1.7043,-1.6862,-1.5863,0.0,0.0,-1.1631,-0.9372,-0.8083,-0.7556,-0.7643,0.0,0.0,0.0,-0.6711,-0.6431,-0.6165,-0.5525,-0.5168,-0.4992,-0.3885,-0.3462,-0.3371,-0.2955,-0.3114,-0.3496,-0.3556,-0.4108,-0.4694,-0.4199,-0.3496,-0.2794,-0.2275,-0.1203,-0.0167,-0.0133,0.0835,0.1942,0.2498,0.3566,0.4972,0.6901,0.8912,1.0886,1.2667,1.3689,1.3809,1.2349,1.1842,1.0797,0.0,0.0,0.0,0.0,0.0,0.0,0.0,0.0,0.0,0.0,0.0,0.0,0.0,0.0,0.0,0.0,0.0,0.0,1.7577,0.0,1.7542,1.795,1.8841,1.9299,1.9305,1.9301,1.9301,1.9301,1.9291,1.9495,1.9843,1.9953,2.0593,2.1702,2.3417,2.4062,2.4102,2.5254,2.5683,2.5693,2.5604,2.5505,2.5409,0.0,0.0,0.0,0.0,0.0,0.0,0.0,-2.0278,-2.0273,-2.0369,-2.0842,-2.0751,-1.9702,-1.9593,-1.9242,-1.8503,-1.8187,-1.777,-1.7107,-1.654,-1.6215,-1.6215,-1.5551,-1.5242,-1.5433,-1.5532,-1.482,0.0,0.0,0.0,-0.9046,-0.7874,-0.722,-0.6995,0.0,-0.6427,-0.6331,-0.6499,-0.6165,-0.5525,-0.5203,-0.4683,-0.3933,-0.3216,-0.2761,-0.2468,-0.2034,-0.1966,-0.2095,-0.2095,-0.3049,-0.4108,-0.3408,-0.2951,-0.2498,-0.1503,-0.0635,0.0067,0.0334,0.1204,0.2178,0.2889,0.3824,0.5159,0.732,0.9022,1.0722,1.2678,1.3881,1.429,1.3454,1.2603,1.1626,0.0,0.0,0.0,0.0,0.0,0.0,0.0,0.0,0.0,0.0,0.0,0.0,0.0,0.0,0.0,0.0,0.0,0.0,1.6217,0.0,1.675,1.7787,1.88,1.9308,1.9297,1.9297,1.9289,1.9305,1.9291,1.9471,1.9839,2.0585,2.1481,2.2511,2.3774,2.4581,2.5078,2.5527,2.5703,2.5683,2.5629,2.557,2.5505,-2.1147,0.0,-2.0659,0.0,-2.0226,-1.9669,-1.9725,-1.9708,-1.9702,-1.9697,-1.9122,-1.8576,-1.8218,-1.819,-1.7929,-1.7252,-1.702,-1.654,-1.5668,-1.5285,-1.5043,-1.4937,-1.4379,0.0,-1.4501,-1.4324,-1.3792,-1.2887,-1.1402,0.0,-0.9016,-0.7596,-0.6785,0.0,-0.6336,-0.6079,-0.578,-0.6059,-0.5675,-0.4904,-0.4553,-0.388,-0.3061,-0.2498,-0.2006,-0.1577,-0.1239,-0.1139,-0.1139,-0.1139,-0.1966,-0.2955,-0.2431,-0.2098,-0.1729,-0.0767,0.0033,0.0668,0.1003,0.1705,0.2603,0.3468,0.4332,0.5555,0.7903,0.9318,1.0784,1.3,1.4221,1.4793,1.4466,1.3521,1.2707,1.2357,0.0,0.0,0.0,0.0,0.0,0.0,0.0,0.0,0.0,0.0,0.0,0.0,0.0,0.0,0.0,0.0,0.0,0.0,0.0,0.0,0.0,1.8078,1.8861,1.8861,1.9164,1.9823,2.0715,2.0215,2.0177,2.0587,2.1484,2.2399,2.3351,2.4245,2.5047,2.5703,2.5684,2.5684,2.5684,2.5644,2.5629,2.5587,-2.0314,-2.0299,-2.0177,-1.9782,-1.9717,-1.9421,-1.8544,-1.9136,-1.9708,-1.9691,-1.5979,-1.4402,-1.7383,-1.6585,-1.6079,-1.6651,-1.6144,-1.5624,-1.5134,-1.5104,-1.4907,0.0,0.0,-1.3544,-1.447,-1.3141,-1.2646,-1.3103,0.0,0.0,-0.9552,-0.7348,-0.6391,-0.647,-0.5937,-0.5773,-0.5868,-0.5327,-0.4914,-0.4505,-0.3225,-0.2732,-0.2596,-0.1669,-0.1072,-0.0706,-0.0706,-0.0706,-0.0706,-0.0706,-0.0737,-0.0801,-0.1204,-0.0735,-0.0033,0.0,0.0936,0.1981,0.1981,0.2636,0.3486,0.4381,0.5186,0.6397,0.8657,0.985,1.1217,1.3764,1.4726,1.5089,1.5097,1.4738,1.4205,1.3413,0.0,0.0,0.0,0.0,0.0,0.0,1.1223,1.1275,1.2937,0.0,0.0,0.0,0.0,0.0,0.0,0.0,0.0,1.6716,1.4912,0.0,1.3459,1.637,1.7812,1.7818,1.8843,2.0987,2.4081,2.2351,2.184,2.2293,2.2632,2.3321,2.4245,2.5043,2.5504,2.5684,2.5625,2.5644,2.5703,2.5703,2.5664,2.56,-1.8324,-1.8547,-1.8631,-1.817,-1.8049,-1.7842,-1.7198,-1.7803,-1.7961,-1.6915,-1.47,-1.3731,-1.5107,-1.5203,-1.5184,0.0,-1.528,-1.5134,0.0,-1.4095,-1.3677,-1.3544,-1.2683,-1.2342,-1.266,-1.183,-1.1454,-1.1589,0.0,0.0,0.0,-0.5869,-0.5324,-0.5197,-0.4925,-0.4733,-0.4592,-0.4631,-0.4112,-0.3253,-0.286,-0.2332,-0.1671,-0.1106,-0.0807,-0.0605,0.0034,0.0269,0.0302,0.0569,0.0669,0.0635,0.0501,0.0468,0.0601,0.1204,0.1676,0.2145,0.2735,0.3097,0.3519,0.4392,0.5397,0.6589,0.8108,1.0344,1.2506,1.381,1.4639,1.5096,1.5098,1.4878,1.4579,1.4231,1.4034,0.0,0.0,0.0,0.0,0.0,0.0,1.3082,0.0,1.2931,0.0,0.0,0.0,0.0,0.0,0.0,0.0,0.0,1.5582,0.0,1.6402,1.732,1.7808,1.7812,1.8121,2.0355,2.4145,2.2731,2.2167,2.235,2.3283,2.386,2.4206,2.5043,2.5404,2.5447,2.5554,2.5605,2.5644,2.5684,2.5684,2.5664,-1.7093,-1.7399,-1.7562,-1.7065,-1.7126,-1.7051,-1.6487,-1.6418,-1.597,-1.4668,-1.332,-1.262,-1.301,-1.3586,0.0,-1.447,-1.4568,-1.4428,-1.3998,-1.3276,-1.2763,-1.2636,-1.1886,-1.1505,-1.1483,-1.074,0.0,-1.0329,-0.8518,-0.6896,-0.5564,-0.5036,-0.4443,-0.3899,-0.3947,-0.3698,-0.3257,-0.3437,-0.3079,-0.2392,-0.2065,-0.1605,-0.1005,-0.0403,-0.0168,-0.0067,0.0671,0.094,0.0973,0.1204,0.1406,0.1573,0.1573,0.1505,0.1538,0.1878,0.2245,0.2606,0.3159,0.3551,0.4006,0.4833,0.5853,0.707,0.8835,1.1206,1.3248,1.3962,1.4635,1.5125,1.5178,1.502,1.488,1.4801,1.4644,1.4528,1.454,0.0,0.0,0.0,0.0,0.0,0.0,1.2366,0.0,0.0,0.0,0.0,0.0,0.0,0.0,1.4397,1.6104,0.0,1.7803,1.7794,1.781,1.7826,1.8813,2.1022,2.4172,2.3195,2.2927,2.3269,2.3858,2.4264,2.4582,2.5139,2.537,2.5399,2.5493,2.5566,2.5644,2.5664,2.5684,2.5703,-1.6283,-1.6564,-1.6727,-1.6347,-1.6542,-1.6589,-1.6084,-1.5034,-1.3989,-1.2995,-1.1929,-1.1267,-1.1326,-1.1962,-1.2901,-1.4187,0.0,0.0,-1.3026,-1.2554,-1.2152,-1.1774,-1.1207,-1.0874,-1.0795,-0.9884,-0.9341,-0.9178,-0.7514,-0.6214,-0.5317,-0.4634,-0.3711,-0.2629,-0.298,-0.2711,-0.1956,-0.1956,-0.1923,-0.1791,-0.0971,-0.0605,-0.047,0.0403,0.0739,0.0807,0.1206,0.1338,0.1338,0.1371,0.1709,0.2081,0.2081,0.2411,0.2679,0.2181,0.2639,0.3261,0.3327,0.3946,0.4782,0.5598,0.6482,0.7858,1.0523,1.2244,1.3485,1.4156,1.4705,1.513,1.5266,1.5184,1.5099,1.5119,1.5005,1.492,1.4934,1.4884,0.0,0.0,0.0,0.0,0.0,1.0667,1.0058,0.0,0.0,0.0,0.0,0.0,1.3991,1.755,1.646,1.6454,1.7797,1.7792,1.7805,1.7828,2.0537,2.2659,2.4176,2.378,2.4021,2.478,2.4356,2.4601,2.5303,2.5303,2.537,2.5486,2.5428,2.5511,2.5682,2.5625,2.5644,2.5703,-1.3994,-1.4129,-1.424,-1.4072,-1.3863,-1.3717,-1.3873,-1.3678,-1.3047,-1.1854,-1.1039,-1.0809,-1.1597,-1.1825,-1.2079,-1.2425,-1.2601,-1.2566,-1.2139,-1.163,-1.1297,-1.1207,-1.0321,-0.9864,-0.9845,-0.8829,-0.7848,-0.6959,-0.5972,-0.4922,-0.383,-0.3537,-0.2767,-0.1636,-0.1733,-0.1667,-0.1468,-0.1468,-0.1067,-0.0466,-0.0234,0.0234,0.0837,0.1071,0.1173,0.1206,0.1678,0.1845,0.1878,0.2245,0.2639,0.2999,0.2999,0.3298,0.3532,0.2775,0.2679,0.2973,0.3663,0.4205,0.4801,0.565,0.7291,0.9183,1.105,1.2386,1.3398,1.4018,1.456,1.4967,1.5055,1.5167,1.5245,1.5246,1.5231,1.5207,1.5202,1.4805,1.4302,0.0,1.2608,1.1785,1.1539,1.1415,1.0964,0.0,0.0,0.0,0.0,1.2499,1.3999,1.6188,1.5976,1.6433,1.7796,1.7813,1.7809,1.7844,2.0771,2.288,2.4194,2.43,2.4507,2.4799,2.4938,2.512,2.5303,2.5303,2.5322,2.5341,2.539,2.5455,2.555,2.5592,2.5644,2.5703,-1.2558,-1.2608,-1.268,-1.2773,-1.2594,-1.2574,-1.3118,-1.2705,-1.1786,-1.0331,-1.001,-1.005,-1.0369,-1.0619,-1.0657,-1.0417,-1.1239,-1.1656,-1.1468,-1.0743,-1.0321,-1.0321,-0.9549,-0.9039,-0.8756,-0.7931,-0.6899,-0.57,-0.47,-0.3843,-0.3187,-0.2566,-0.1821,-0.1005,-0.0802,-0.0602,-0.0368,-0.02,0.0167,0.0601,0.0601,0.0869,0.1338,0.154,0.1609,0.1676,0.2147,0.2314,0.2347,0.2613,0.2841,0.3035,0.3035,0.3331,0.3593,0.3101,0.3266,0.3658,0.4151,0.4718,0.5487,0.6665,0.8344,1.0042,1.1307,1.2434,1.3371,1.3984,1.4484,1.4866,1.5025,1.5136,1.5229,1.529,1.5336,1.5282,1.5149,1.4599,1.3867,1.2909,1.2009,1.1088,1.0202,1.0367,1.0763,1.1364,1.2524,0.0,1.32,1.395,1.4834,1.577,1.5786,1.615,1.6863,1.7478,1.8498,1.9871,2.1803,2.3239,2.4205,2.4444,2.464,2.4818,2.5061,2.5214,2.5303,2.5303,2.5303,2.5303,2.5341,2.5409,2.5495,2.5535,2.5619,2.5703,-1.1518,-1.1437,-1.1415,-1.1689,-1.1737,-1.1964,-1.2677,-1.1724,-1.0359,-0.888,-0.9059,-0.9151,-0.8756,-0.9119,-0.9199,-0.8756,-0.9884,-1.0667,-1.0667,-0.9864,-0.9359,-0.9359,-0.8878,-0.8316,-0.778,-0.6996,-0.6014,-0.4843,-0.3589,-0.2883,-0.2734,-0.1712,-0.0938,-0.0471,-0.0067,0.0368,0.0807,0.1139,0.1338,0.1406,0.1406,0.1438,0.1538,0.1945,0.2114,0.2181,0.2613,0.2779,0.2812,0.2878,0.2944,0.2973,0.2973,0.3266,0.3616,0.3616,0.4167,0.4788,0.4724,0.5408,0.6532,0.7998,0.9367,1.0583,1.1468,1.2491,1.3403,1.3962,1.4412,1.4794,1.5037,1.5094,1.512,1.5109,1.5245,1.5157,1.4558,1.4114,1.3218,1.1534,1.099,1.0239,0.8902,0.8872,1.014,1.2999,1.3198,1.3319,1.3592,1.5003,1.5802,1.5802,1.5802,1.59,1.6097,1.7216,1.9403,2.2588,2.3115,2.3656,2.4194,2.4413,2.461,2.476,2.4917,2.5077,2.5264,2.5264,2.5274,2.5303,2.5303,2.539,2.5515,2.5492,2.5573,2.5703,-1.0306,-0.9726,-0.9288,-0.9591,-0.9689,-0.9895,-1.0636,-0.9815,-0.9022,-0.8747,-0.848,-0.8407,-0.8675,-0.8756,-0.8797,-0.8716,-0.8918,-0.907,-0.907,-0.8918,-0.8837,-0.8837,-0.8316,-0.7731,-0.7168,-0.5484,-0.4345,-0.373,-0.2804,-0.1954,-0.1229,-0.0929,-0.0336,0.0471,0.0571,0.0805,0.1204,0.1271,0.154,0.1878,0.1878,0.2111,0.248,0.2547,0.258,0.2646,0.3068,0.3196,0.3261,0.3663,0.4021,0.4307,0.4307,0.4628,0.4985,0.4985,0.5327,0.5602,0.5212,0.6243,0.7685,0.8831,0.9906,1.0879,1.1803,1.2747,1.3526,1.3864,1.443,1.4876,1.4928,1.5119,1.5027,1.4325,1.4781,1.4602,1.2794,1.2883,1.2621,1.1139,1.0432,1.005,1.0024,0.9263,0.9983,1.2986,1.3183,1.384,1.5326,1.5654,1.5796,1.5798,1.5802,1.6349,1.7481,1.7715,1.9857,2.3921,2.4005,2.4096,2.4194,2.4469,2.4566,2.4561,2.4741,2.4904,2.5046,2.5046,2.5152,2.5303,2.5303,2.5428,2.5572,2.5511,2.5573,2.5703,-0.9304,-0.8996,-0.8675,-0.8626,-0.8618,-0.8578,-0.8529,-0.8115,-0.7628,-0.7251,-0.71,-0.6996,-0.6862,-0.7148,-0.7183,-0.6904,-0.7141,-0.7183,-0.6904,-0.7765,-0.8144,-0.7792,-0.7266,-0.6523,-0.5531,-0.4342,-0.341,-0.278,-0.1839,-0.1183,-0.0767,-0.0204,0.0269,0.0706,0.1176,0.151,0.1709,0.1942,0.2178,0.238,0.2606,0.2838,0.3035,0.3303,0.3401,0.3434,0.3593,0.3691,0.3723,0.3923,0.4123,0.428,0.428,0.4724,0.5257,0.5257,0.5571,0.5998,0.6433,0.7386,0.8464,0.9353,1.0422,1.1403,1.1979,1.2777,1.3487,1.3824,1.4228,1.4598,1.485,1.5,1.4935,1.4511,1.4317,1.3852,1.2783,1.219,1.1633,1.1027,1.0695,1.0207,0.9498,0.9993,1.1151,1.3072,1.3207,1.3952,1.5703,1.5786,1.6114,1.685,1.6895,1.7954,2.0201,2.0901,2.2065,2.3667,2.4024,2.4205,2.4198,2.4321,2.4429,2.4512,2.4716,2.4883,2.501,2.5111,2.5214,2.5303,2.5303,2.5409,2.5534,2.5511,2.5554,2.5644,-0.8521,-0.839,-0.817,-0.7747,-0.7609,-0.7416,-0.6826,-0.6578,-0.6258,-0.5677,-0.58,-0.5749,-0.5346,-0.5674,-0.5754,-0.5346,-0.5669,-0.5754,-0.5346,-0.641,-0.6959,-0.6615,-0.5927,-0.5104,-0.4041,-0.331,-0.2592,-0.1882,-0.1102,-0.0605,-0.037,0.037,0.0807,0.1041,0.1711,0.2047,0.2181,0.2547,0.2712,0.2712,0.3035,0.3163,0.3196,0.3658,0.3826,0.3858,0.4053,0.4151,0.4156,0.4253,0.4318,0.4312,0.4403,0.4871,0.5394,0.5567,0.5998,0.6622,0.7472,0.8308,0.9107,0.9741,1.0861,1.187,1.2158,1.2846,1.3539,1.3842,1.4157,1.4478,1.4832,1.4933,1.484,1.4463,1.38,1.309,1.2467,1.1589,1.0979,1.0867,1.105,1.075,0.9618,1.09,1.2377,1.3705,1.3812,1.4403,1.5728,1.5788,1.6402,1.7748,1.7797,1.9077,2.1736,2.323,2.3736,2.3267,2.3905,2.419,2.419,2.419,2.4284,2.4426,2.4591,2.4766,2.4981,2.5107,2.5233,2.5303,2.5303,2.537,2.5486,2.5485,2.5538,2.5605,-0.7953,-0.753,-0.6979,-0.6428,-0.6204,-0.6033,-0.5976,-0.5331,-0.4828,-0.479,-0.511,-0.5346,-0.5308,-0.5346,-0.5346,-0.5303,-0.5346,-0.5346,-0.5303,-0.4894,-0.4894,-0.5389,-0.4299,-0.3663,-0.357,-0.2368,-0.1493,-0.0978,-0.0793,-0.0269,0.0605,0.0672,0.1142,0.1914,0.1981,0.2247,0.2646,0.2679,0.2712,0.2712,0.2746,0.2746,0.2779,0.3196,0.3355,0.3458,0.4274,0.4564,0.4634,0.5055,0.5214,0.5277,0.5641,0.5789,0.5998,0.6678,0.7415,0.7991,0.7763,0.8695,0.9805,1.017,1.1173,1.2158,1.2498,1.3227,1.3853,1.3881,1.4407,1.485,1.4895,1.499,1.4687,1.343,1.3123,1.237,1.0482,1.0872,1.1119,1.0521,1.1209,1.1802,1.1916,1.1873,1.2864,1.5421,1.5607,1.5669,1.5784,1.5791,1.6417,1.7754,1.78,1.8572,2.0162,2.2235,2.3353,2.3472,2.397,2.419,2.419,2.419,2.4209,2.4228,2.4247,2.4461,2.4818,2.4832,2.5031,2.5303,2.5303,2.5341,2.5409,2.5409,2.5482,2.5605,-0.694,-0.6647,-0.6307,-0.5744,-0.5561,-0.5524,-0.5534,-0.4952,-0.4509,-0.4509,-0.4351,-0.4092,-0.3727,-0.3683,-0.3548,-0.3149,-0.3149,-0.3149,-0.3149,-0.2929,-0.3058,-0.3672,-0.2896,-0.2427,-0.2322,-0.1576,-0.0892,-0.0345,0.0,0.047,0.1072,0.1377,0.1678,0.2014,0.2314,0.2547,0.2712,0.2712,0.2712,0.2746,0.3303,0.3499,0.3597,0.4269,0.4526,0.459,0.4922,0.5023,0.5055,0.5246,0.5467,0.5703,0.5851,0.6244,0.6811,0.7579,0.835,0.8915,0.8778,0.9415,1.0281,1.0982,1.1791,1.2482,1.2778,1.3227,1.3652,1.3856,1.4095,1.4407,1.4832,1.4877,1.4588,1.3725,1.3151,1.2458,1.1499,1.1278,1.1333,1.1663,1.2224,1.2657,1.2799,1.2715,1.352,1.5621,1.5801,1.58,1.5814,1.6584,1.7263,1.7789,1.8415,1.9304,2.0484,2.2418,2.3346,2.3319,2.3919,2.4203,2.419,2.419,2.419,2.4209,2.4321,2.4526,2.4804,2.4891,2.5072,2.5303,2.5303,2.5322,2.5341,2.539,2.5421,2.5485,-0.6053,-0.5916,-0.5744,-0.513,-0.5,-0.4957,-0.4787,-0.426,-0.3858,-0.3858,-0.3385,-0.2857,-0.2453,-0.2406,-0.2228,-0.183,-0.1786,-0.1739,-0.1514,-0.1157,-0.1378,-0.2355,-0.1839,-0.1485,-0.1402,-0.0686,-0.0145,0.0206,0.0723,0.1159,0.154,0.1845,0.2081,0.2247,0.2547,0.2712,0.2712,0.2712,0.2779,0.294,0.3532,0.3858,0.4091,0.4794,0.5087,0.5087,0.5246,0.5372,0.5491,0.5491,0.5765,0.6121,0.6244,0.6892,0.7753,0.8456,0.9074,0.9607,0.9803,1.0172,1.0637,1.1298,1.2025,1.2649,1.2834,1.3192,1.3542,1.3842,1.3979,1.421,1.4738,1.4766,1.4481,1.3818,1.3123,1.2509,1.2128,1.1645,1.1652,1.2589,1.3064,1.3406,1.3461,1.3565,1.3979,1.4913,1.5477,1.5973,1.6402,1.7298,1.7803,1.7789,1.8924,1.9923,2.0798,2.2295,2.3115,2.3212,2.3876,2.419,2.419,2.419,2.419,2.4209,2.441,2.4607,2.4818,2.4937,2.5111,2.5303,2.5303,2.5303,2.5303,2.5341,2.539,2.5409,-0.531,-0.5308,-0.5087,-0.4478,-0.4387,-0.422,-0.3667,-0.3078,-0.2672,-0.2672,-0.2184,-0.1786,-0.1786,-0.1784,-0.1784,-0.1784,-0.1784,-0.1514,-0.0931,0.0221,0.0089,-0.1695,-0.1201,-0.088,-0.088,0.028,0.0841,0.0729,0.131,0.1734,0.2017,0.2017,0.225,0.2716,0.2716,0.2716,0.2716,0.2712,0.294,0.329,0.329,0.3593,0.4058,0.4441,0.4602,0.4666,0.5151,0.5554,0.5921,0.589,0.6191,0.6579,0.699,0.7897,0.8871,0.9289,0.9646,1.0059,1.0729,1.091,1.091,1.0897,1.1766,1.261,1.261,1.3125,1.3663,1.387,1.416,1.4464,1.4658,1.4707,1.4386,1.3462,1.2859,1.2352,1.1871,1.1801,1.2125,1.2998,1.3583,1.3979,1.4088,1.4362,1.414,1.329,1.4831,1.6412,1.7747,1.7799,1.7811,1.7811,1.9224,2.0264,2.0798,2.1669,2.2468,2.3212,2.3876,2.4208,2.419,2.419,2.419,2.4209,2.441,2.4607,2.4818,2.4937,2.5111,2.5303,2.5303,2.5303,2.5303,2.5303,2.5341,2.5409,-0.502,-0.4538,-0.4036,-0.335,-0.2846,-0.2536,-0.2364,-0.2186,-0.2051,-0.2051,-0.2144,-0.1966,-0.1252,-0.0803,-0.0357,0.0045,0.049,0.0801,0.0978,0.1335,0.1292,0.0757,0.0898,0.1003,0.1003,0.1358,0.1667,0.1952,0.2142,0.2352,0.2631,0.2722,0.2788,0.2842,0.2842,0.2842,0.287,0.3056,0.3196,0.3355,0.3978,0.4307,0.4473,0.4922,0.5087,0.5145,0.5478,0.5904,0.6317,0.6226,0.6715,0.7476,0.7842,0.8344,0.8939,0.9725,1.0443,1.0992,1.107,1.149,1.1856,1.1829,1.22,1.2649,1.2834,1.3192,1.3493,1.3663,1.3896,1.4134,1.4441,1.4414,1.4278,1.4034,1.3601,1.3203,1.3002,1.3158,1.3362,1.3617,1.4296,1.4651,1.4407,1.4991,1.5315,1.5033,1.6381,1.7371,1.7788,1.7799,1.7794,1.7813,1.8909,1.9925,2.0805,2.1952,2.2744,2.3212,2.3649,2.3976,2.419,2.419,2.419,2.4209,2.441,2.4607,2.4818,2.4937,2.5111,2.5303,2.5303,2.5303,2.5303,2.5303,2.5303,2.5322,-0.4159,-0.368,-0.319,-0.2477,-0.2029,-0.1786,-0.1786,-0.1652,-0.1564,-0.1564,-0.1475,-0.1118,-0.0179,0.0268,0.067,0.1206,0.183,0.214,0.214,0.2366,0.2499,0.2499,0.2526,0.2276,0.1801,0.2046,0.2287,0.2492,0.2694,0.2865,0.2995,0.308,0.3076,0.2991,0.3213,0.3324,0.3353,0.3774,0.4034,0.4202,0.4762,0.5076,0.528,0.5779,0.598,0.6008,0.64,0.6846,0.7247,0.7145,0.7752,0.86,0.8773,0.9222,0.9817,1.0527,1.1191,1.1735,1.179,1.2217,1.2731,1.2811,1.2942,1.3083,1.3255,1.3787,1.4348,1.4617,1.4759,1.4923,1.5166,1.5175,1.4982,1.4618,1.4269,1.3957,1.3769,1.3835,1.4019,1.4342,1.4783,1.5091,1.5021,1.5504,1.6028,1.6538,1.7355,1.7802,1.779,1.7809,1.7803,1.7786,1.9555,2.078,2.1383,2.2246,2.2873,2.3189,2.3544,2.3876,2.419,2.419,2.419,2.4209,2.4495,2.4685,2.4818,2.503,2.5203,2.5303,2.5303,2.5303,2.5303,2.5303,2.5303,2.5303,-0.3001,-0.2798,-0.2537,-0.1862,-0.1661,-0.166,-0.166,-0.1345,-0.1075,-0.1075,-0.0449,0.0314,0.112,0.1343,0.1521,0.1875,0.2453,0.2763,0.2763,0.3306,0.3581,0.3581,0.3581,0.3084,0.1964,0.2497,0.2713,0.2615,0.3076,0.329,0.3218,0.3193,0.3229,0.3292,0.3868,0.4102,0.4141,0.4694,0.5179,0.5515,0.5553,0.5813,0.6263,0.6789,0.7006,0.7078,0.7627,0.8105,0.8456,0.8472,0.9062,0.9766,0.9752,1.0363,1.1118,1.1547,1.1997,1.2392,1.2691,1.3091,1.3502,1.3784,1.3883,1.3865,1.3801,1.4718,1.5714,1.615,1.6253,1.6302,1.6427,1.6458,1.6148,1.5242,1.4885,1.4607,1.4255,1.4067,1.4278,1.5013,1.5134,1.5329,1.577,1.593,1.6486,1.7706,1.7788,1.7799,1.78,1.779,1.7919,1.8184,2.0858,2.2295,2.2312,2.2583,2.2873,2.3189,2.3544,2.3876,2.419,2.419,2.419,2.4228,2.4623,2.4785,2.4814,2.516,2.5303,2.5303,2.5303,2.5303,2.5303,2.5303,2.5303,2.5303,-0.2272,-0.1824,-0.1387,-0.115,-0.0724,-0.0377,-0.0377,-0.0321,-0.0269,-0.0269,-0.009,0.0313,0.1119,0.2326,0.2904,0.2539,0.3037,0.3398,0.3398,0.3534,0.3581,0.3581,0.3581,0.349,0.3217,0.3353,0.3382,0.3353,0.3487,0.3662,0.3951,0.4081,0.4319,0.4659,0.4819,0.4853,0.4883,0.5219,0.5403,0.5515,0.5893,0.6122,0.6263,0.6789,0.7006,0.7108,0.7833,0.8425,0.8885,0.9114,0.9688,1.0403,1.0876,1.1142,1.143,1.2064,1.2764,1.3381,1.3351,1.3898,1.4423,1.4258,1.4766,1.5204,1.4613,1.506,1.5634,1.5733,1.5883,1.601,1.6011,1.6028,1.5983,1.5814,1.5311,1.4913,1.4891,1.4852,1.4907,1.5074,1.5418,1.5697,1.5799,1.6741,1.749,1.778,1.7795,1.7809,1.7783,1.7814,1.8885,2.125,2.196,2.231,2.2298,2.2573,2.2873,2.3189,2.3544,2.3876,2.419,2.419,2.419,2.4228,2.4623,2.4747,2.4686,2.5122,2.5303,2.5303,2.5303,2.5303,2.5303,2.5303,2.5303,2.5303,-0.1639,-0.1343,-0.095,-0.0519,-0.0201,0.0,0.0,0.0,0.0,0.0,0.0,0.0582,0.215,0.2773,0.304,0.3126,0.3398,0.3581,0.3581,0.3581,0.3581,0.3581,0.3836,0.3965,0.3965,0.4272,0.4144,0.3581,0.3836,0.4093,0.4295,0.4647,0.4938,0.5214,0.5506,0.5636,0.5666,0.6068,0.6205,0.6251,0.6809,0.7005,0.7083,0.7908,0.8211,0.8274,0.8976,0.9393,0.9722,1.0485,1.0996,1.1419,1.2078,1.2267,1.2316,1.2664,1.3316,1.3918,1.3943,1.4615,1.5267,1.5258,1.5769,1.6136,1.559,1.6082,1.6686,1.6812,1.6912,1.6991,1.6991,1.6991,1.6874,1.645,1.5934,1.5533,1.5448,1.5225,1.5165,1.5418,1.5639,1.5794,1.5805,1.8318,1.9647,1.8896,1.8185,1.812,1.8809,1.9555,2.066,2.2243,2.23,2.2385,2.2569,2.2824,2.3117,2.3437,2.3628,2.3876,2.419,2.419,2.419,2.4228,2.4567,2.4657,2.4648,2.5111,2.5303,2.5303,2.5303,2.5303,2.5303,2.5303,2.5303,2.536,-0.1006,-0.0929,-0.0697,-0.0107,0.0,0.0,0.0,0.0,0.0142,0.0547,0.027,0.0941,0.3322,0.3001,0.2862,0.3534,0.3581,0.3581,0.3581,0.3581,0.3622,0.3751,0.4176,0.4434,0.4565,0.5043,0.4836,0.3884,0.4351,0.4604,0.4739,0.5216,0.5524,0.5604,0.613,0.6349,0.6349,0.681,0.7063,0.7189,0.7704,0.7953,0.816,0.9119,0.9518,0.9597,1.0196,1.0386,1.0481,1.1774,1.2269,1.246,1.3035,1.3198,1.3232,1.3301,1.3677,1.4165,1.4491,1.5195,1.587,1.6301,1.6581,1.6756,1.6584,1.7183,1.7861,1.81,1.8125,1.8125,1.8125,1.8082,1.7766,1.6942,1.648,1.613,1.5841,1.5448,1.5359,1.5741,1.5799,1.589,1.6134,1.9631,2.142,2.0223,1.9018,1.8842,2.0061,2.1496,2.2302,2.2302,2.2309,2.2504,2.2903,2.3098,2.3369,2.3692,2.3774,2.3917,2.419,2.419,2.419,2.4209,2.4476,2.4582,2.4573,2.5091,2.5303,2.5303,2.5303,2.5303,2.5303,2.5303,2.538,2.564,-0.0168,-0.0167,-0.0111,0.0,0.0,0.0,0.0,0.0,0.0763,0.285,0.1281,0.0936,0.3353,0.349,0.349,0.3578,0.3581,0.3581,0.3581,0.3581,0.3792,0.4264,0.4347,0.4652,0.5173,0.526,0.5216,0.5091,0.513,0.5437,0.5959,0.605,0.6343,0.6768,0.6852,0.6894,0.6894,0.6979,0.7321,0.7787,0.787,0.8201,0.8675,0.9279,0.9518,0.9637,1.0562,1.0656,1.0473,1.1788,1.2602,1.3082,1.3163,1.3198,1.3301,1.3682,1.3971,1.4228,1.4847,1.5389,1.5955,1.6581,1.6763,1.6935,1.7495,1.7704,1.7811,1.7856,1.7839,1.7839,1.7839,1.7618,1.7296,1.6866,1.6501,1.6176,1.5856,1.5741,1.5741,1.5799,1.5797,1.6283,1.7504,1.9253,2.042,2.0654,2.0508,2.0471,2.0675,2.1718,2.2304,2.2304,2.2293,2.2504,2.2903,2.3098,2.3369,2.3692,2.3996,2.4151,2.419,2.419,2.419,2.4209,2.4476,2.4473,2.4299,2.5015,2.5303,2.5303,2.5303,2.5303,2.5303,2.5303,2.5793,2.6447,0.0,0.0,0.0,0.0,0.0,0.0,0.0,0.0466,0.15,0.3375,0.2197,0.1831,0.3417,0.3581,0.3707,0.4008,0.3751,0.3884,0.4487,0.3972,0.3968,0.487,0.4913,0.5173,0.5787,0.6081,0.6246,0.6246,0.5953,0.5922,0.6227,0.652,0.6774,0.6979,0.6979,0.7196,0.7489,0.7489,0.7821,0.8357,0.8675,0.8918,0.9199,0.9765,1.0108,1.0437,1.1159,1.1319,1.1253,1.2106,1.2731,1.3198,1.3198,1.345,1.3721,1.3848,1.4461,1.5068,1.5088,1.558,1.6191,1.6686,1.6926,1.7199,1.7681,1.7811,1.7811,1.7811,1.7811,1.7811,1.7811,1.7526,1.7199,1.6866,1.6528,1.6191,1.5856,1.6084,1.6533,1.7165,1.7324,1.7829,1.9009,2.0454,2.1393,2.1609,2.162,2.163,2.163,2.2062,2.231,2.231,2.231,2.2552,2.3067,2.3177,2.3459,2.3976,2.4132,2.419,2.419,2.419,2.419,2.4209,2.4329,2.4436,2.4573,2.5091,2.5303,2.5303,2.5303,2.5591,2.6024,2.6024,2.6582,2.739]},{"header":{"parameterUnit":"m.s-1","parameterCategory":1,"la1":30.6,"la2":28.766,"lo1":-90.7593,"lo2":-88.6598,"dx":0.0162,"dy":0.0183,"nx":116,"ny":114,"refTime":"2022-12-09T18:00:00:Z","depth":0,"parameterNumber":3,"parameterNumberName":"V-component_of_WINDS"},"data":[0.0,0.0,0.0,0.0,0.0,0.0,0.0,0.0,0.0,0.0,0.0,0.0,0.0,0.0,0.0,0.0,0.0,0.0,0.0,0.0,0.0,0.0,0.0,0.0,0.0,0.0,0.0,0.0,0.0,0.0,0.0,0.0,0.0,0.0,0.0,0.0,0.0,0.0,0.0,0.0,0.0,0.0,0.0,0.0,0.0,0.0,0.0,0.0,0.0,0.0,0.0,0.0,0.0,0.0,0.0,0.0,0.0,0.0,0.0,0.0,0.0,0.0,0.0,0.0,0.0,0.0,0.0,0.0,0.0,0.0,0.0,0.0,0.0,0.0,0.0,0.0,0.0,0.0,0.0,0.0,0.0,0.0,0.0,0.0,0.0,0.0,0.0,0.0,0.0,0.0,0.0,0.0,0.0,0.0,0.0,0.0,0.0,0.0,0.0,0.0,0.0,0.0,0.0,0.0,0.0,0.0,0.0,0.0,0.0,0.0,0.0,0.0,0.0,0.0,0.0,0.0,0.0,0.0,0.0,0.0,0.0,0.0,0.0,0.0,0.0,0.0,0.0,0.0,0.0,0.0,0.0,0.0,0.0,0.0,0.0,0.0,0.0,0.0,0.0,0.0,0.0,0.0,0.0,0.0,0.0,0.0,0.0,0.0,0.0,0.0,0.0,0.0,0.0,0.0,0.0,0.0,0.0,0.0,0.0,0.0,0.0,0.0,0.0,0.0,0.0,0.0,0.0,0.0,0.0,0.0,0.0,0.0,0.0,0.0,0.0,0.0,0.0,0.0,0.0,0.0,0.0,0.0,0.0,0.0,0.0,0.0,0.0,0.0,0.0,0.0,0.0,0.0,0.0,0.0,0.0,0.0,0.0,0.0,0.0,0.0,0.0,0.0,0.0,0.0,0.0,0.0,0.0,0.0,0.0,0.0,0.0,0.0,0.0,0.0,0.0,0.0,0.0,0.0,0.0,0.0,0.0,0.0,0.0,0.0,0.0,0.0,0.0,0.0,0.0,0.0,0.0,0.0,0.0,0.0,0.0,0.0,0.0,0.0,0.0,0.0,0.0,0.0,0.0,0.0,0.0,0.0,0.0,0.0,0.0,0.0,0.0,0.0,0.0,0.0,0.0,0.0,0.0,0.0,0.0,0.0,0.0,0.0,0.0,0.0,0.0,0.0,0.0,0.0,0.0,0.0,0.0,0.0,0.0,0.0,0.0,0.0,0.0,0.0,0.0,0.0,0.0,0.0,0.0,0.0,0.0,0.0,0.0,0.0,0.0,0.0,0.0,0.0,0.0,0.0,0.0,0.0,0.0,0.0,0.0,0.0,0.0,0.0,0.0,0.0,0.0,0.0,0.0,0.0,0.0,0.0,0.0,0.0,0.0,0.0,0.0,0.0,0.0,0.0,0.0,0.0,0.0,0.0,0.0,0.0,0.0,0.0,0.0,0.0,0.0,0.0,0.0,0.0,0.0,0.0,0.0,0.0,0.0,0.0,0.0,0.0,0.0,0.0,0.0,0.0,0.0,0.0,0.0,0.0,0.0,0.0,0.0,0.0,0.0,0.0,0.0,0.0,0.0,0.0,0.0,0.0,0.0,0.0,0.0,0.0,0.0,0.0,0.0,0.0,0.0,0.0,0.0,0.0,0.0,0.0,0.0,0.0,0.0,0.0,0.0,0.0,0.0,0.0,0.0,0.0,0.0,0.0,0.0,0.0,0.0,0.0,0.0,0.0,0.0,0.0,0.0,0.0,0.0,0.0,0.0,0.0,0.0,0.0,0.0,0.0,0.0,0.0,0.0,0.0,0.0,0.0,0.0,0.0,0.0,0.0,0.0,0.0,0.0,0.0,0.0,0.0,0.0,0.0,0.0,0.0,0.0,0.0,0.0,0.0,0.0,0.0,0.0,0.0,0.0,0.0,0.0,0.0,0.0,0.0,0.0,0.0,0.0,0.0,0.0,0.0,0.0,0.0,0.0,0.0,0.0,0.0,0.0,0.0,0.0,0.0,0.0,0.0,0.0,0.0,0.0,0.0,0.0,0.0,0.0,0.0,0.0,0.0,0.0,0.0,0.0,0.0,0.0,0.0,0.0,0.0,0.0,0.0,0.0,0.0,0.0,0.0,0.0,0.0,0.0,0.0,0.0,0.0,0.0,0.0,0.0,0.0,0.0,0.0,0.0,0.0,0.0,0.0,0.0,0.0,0.0,0.0,0.0,0.0,0.0,0.0,0.0,0.0,0.0,0.0,0.0,0.0,0.0,0.0,0.0,0.0,0.0,0.0,0.0,0.0,0.0,0.0,0.0,0.0,0.0,0.0,0.0,0.0,0.0,0.0,0.0,0.0,0.0,0.0,0.0,0.0,0.0,0.0,0.0,0.0,0.0,0.0,0.0,0.0,0.0,0.0,0.0,0.0,0.0,0.0,0.0,0.0,0.0,0.0,0.0,0.0,0.0,0.0,0.0,0.0,0.0,0.0,0.0,0.0,0.0,0.0,0.0,0.0,0.0,0.0,0.0,0.0,0.0,0.0,0.0,0.0,0.0,0.0,0.0,0.0,0.0,0.0,0.0,0.0,0.0,0.0,0.0,0.0,0.0,0.0,0.0,0.0,0.0,0.0,0.0,0.0,0.0,0.0,0.0,0.0,0.0,0.0,0.0,0.0,0.0,0.0,0.0,0.0,0.0,0.0,0.0,0.0,0.0,0.0,0.0,0.0,0.0,0.0,0.0,0.0,0.0,0.0,0.0,0.0,0.0,0.0,0.0,0.0,0.0,0.0,0.0,0.0,0.0,0.0,0.0,0.0,0.0,0.0,0.0,0.0,0.0,0.0,0.0,0.0,0.0,0.0,0.0,0.0,0.0,0.0,0.0,0.0,0.0,0.0,0.0,0.0,0.0,0.0,0.0,0.0,0.0,0.0,0.0,0.0,0.0,0.0,0.0,0.0,0.0,0.0,0.0,0.0,0.0,0.0,0.0,0.0,0.0,0.0,0.0,0.0,0.0,0.0,0.0,0.0,0.0,0.0,0.0,0.0,0.0,0.0,0.0,0.0,0.0,0.0,0.0,0.0,0.0,0.0,0.0,0.0,0.0,0.0,0.0,0.0,0.0,0.0,0.0,0.0,0.0,0.0,0.0,0.0,0.0,0.0,0.0,0.0,0.0,0.0,0.0,0.0,0.0,0.0,0.0,0.0,0.0,0.0,0.0,0.0,0.0,0.0,0.0,0.0,0.0,0.0,0.0,0.0,0.0,0.0,0.0,0.0,0.0,0.0,0.0,0.0,0.0,0.0,0.0,0.0,0.0,0.0,0.0,0.0,0.0,0.0,0.0,0.0,0.0,0.0,0.0,0.0,0.0,0.0,0.0,0.0,0.0,0.0,0.0,0.0,0.0,0.0,0.0,0.0,0.0,0.0,0.0,0.0,0.0,0.0,0.0,0.0,0.0,0.0,0.0,0.0,0.0,0.0,0.0,0.0,0.0,0.0,0.0,0.0,0.0,0.0,0.0,0.0,0.0,0.0,0.0,0.0,0.0,0.0,0.0,0.0,0.0,0.0,0.0,0.0,0.0,0.0,0.0,0.0,0.0,0.0,0.0,0.0,0.0,0.0,0.0,0.0,0.0,0.0,0.0,0.0,0.0,0.0,0.0,0.0,0.0,0.0,0.0,0.0,0.0,0.0,0.0,0.0,0.0,0.0,0.0,0.0,0.0,0.0,0.0,0.0,0.0,0.0,0.0,0.0,0.0,0.0,0.0,0.0,0.0,0.0,0.0,0.0,0.0,0.0,0.0,0.0,0.0,0.0,0.0,0.0,0.0,0.0,0.0,0.0,0.0,0.0,0.0,0.0,0.0,0.0,0.0,0.0,0.0,0.0,0.0,0.0,0.0,0.0,0.0,0.0,0.0,0.0,0.0,0.0,0.0,0.0,0.0,0.0,0.0,0.0,0.0,0.0,0.0,0.0,0.0,0.0,0.0,0.0,0.0,0.0,0.0,0.0,0.0,0.0,0.0,0.0,0.0,0.0,0.0,0.0,0.0,0.0,0.0,0.0,0.0,0.0,0.0,0.0,0.0,0.0,0.0,0.0,0.0,0.0,0.0,0.0,0.0,0.0,0.0,0.0,0.0,0.0,0.0,0.0,0.0,0.0,0.0,0.0,0.0,0.0,0.0,0.0,0.0,0.0,0.0,0.0,0.0,0.0,0.0,0.0,0.0,0.0,0.0,0.0,0.0,0.0,0.0,0.0,0.0,0.0,0.0,0.0,0.0,0.0,0.0,0.0,0.0,0.0,0.0,0.0,0.0,0.0,0.0,0.0,0.0,0.0,0.0,0.0,0.0,0.0,0.0,0.0,0.0,0.0,0.0,0.0,0.0,0.0,0.0,0.0,0.0,0.0,0.0,0.0,0.0,0.0,0.0,0.0,0.0,0.0,0.0,0.0,0.0,0.0,0.0,0.0,0.0,0.0,0.0,0.0,0.0,0.0,0.0,0.0,0.0,0.0,0.0,0.0,0.0,0.0,0.0,0.0,0.0,0.0,0.0,0.0,0.0,0.0,0.0,0.0,0.0,0.0,0.0,0.0,0.0,0.0,0.0,0.0,0.0,0.0,0.0,0.0,0.0,0.0,0.0,0.0,0.0,0.0,0.0,0.0,0.0,0.0,0.0,0.0,0.0,0.0,0.0,0.0,0.0,0.0,0.0,0.0,0.0,0.0,0.0,0.0,0.0,0.0,0.0,0.0,0.0,0.0,0.0,0.0,0.0,0.0,0.0,0.0,0.0,0.0,0.0,0.0,0.0,0.0,0.0,0.0,0.0,0.0,0.0,0.0,0.0,0.0,0.0,0.0,0.0,0.0,0.0,0.0,0.0,0.0,0.0,0.0,0.0,0.0,0.0,0.0,0.0,0.0,0.0,0.0,0.0,0.0,0.0,0.0,0.0,0.0,0.0,0.0,0.0,0.0,0.0,0.0,0.0,0.0,0.0,0.0,0.0,0.0,0.0,0.0,0.0,0.0,0.0,0.0,0.0,0.0,0.0,0.0,0.0,0.0,0.0,0.0,0.0,0.0,0.0,0.0,0.0,0.0,0.0,0.0,0.0,0.0,0.0,0.0,0.0,0.0,0.0,0.0,0.0,0.0,0.0,0.0,0.0,0.0,0.0,0.0,0.0,0.0,0.0,0.0,0.0,0.0,0.0,0.0,0.0,0.0,0.0,0.0,0.0,0.0,0.0,0.0,0.0,0.0,0.0,0.0,0.0,0.0,0.0,0.0,0.0,0.0,0.0,0.0,0.0,0.0,0.0,0.0,0.0,0.0,0.0,0.0,0.0,0.0,0.0,0.0,0.0,0.0,0.0,0.0,0.0,0.0,0.0,0.0,0.0,0.0,0.0,0.0,0.0,0.0,0.0,0.0,0.0,0.0,0.0,0.0,0.0,0.0,0.0,0.0,0.0,0.0,0.0,0.0,0.0,0.0,0.0,0.0,0.0,0.0,0.0,0.0,0.0,0.0,0.0,0.0,0.0,0.0,0.0,0.0,0.0,0.0,0.0,0.0,0.0,0.0,0.0,0.0,0.0,0.0,0.0,0.0,0.0,0.0,0.0,0.0,0.0,0.0,0.0,0.0,0.0,0.0,0.0,0.0,0.0,0.0,0.0,0.0,0.0,0.0,0.0,0.0,0.0,0.0,0.0,0.0,0.0,0.0,0.0,0.0,0.0,0.0,0.0,0.0,0.0,0.0,0.0,0.0,0.0,0.0,0.0,0.0,0.0,0.0,0.0,0.0,0.0,0.0,0.0,0.0,0.0,0.0,0.0,0.0,0.0,0.0,0.0,0.0,0.0,0.0,0.0,0.0,0.0,0.0,0.0,0.0,0.0,0.0,0.0,0.0,0.0,0.0,0.0,0.0,0.0,0.0,0.0,0.0,0.0,0.0,0.0,0.0,0.0,0.0,0.0,0.0,0.0,0.0,0.0,0.0,0.0,0.0,0.0,0.0,0.0,0.0,0.0,0.0,0.0,0.0,0.0,0.0,0.0,0.0,0.0,0.0,0.0,0.0,0.0,0.0,0.0,0.0,0.0,0.0,0.0,0.0,0.0,0.0,-1.6547,0.0,0.0,0.0,0.0,0.0,0.0,0.0,0.0,0.0,0.0,0.0,0.0,0.0,0.0,0.0,0.0,0.0,0.0,0.0,0.0,0.0,0.0,0.0,0.0,-0.7459,-0.787,-0.7744,-0.8113,0.0,0.0,0.0,0.0,0.0,0.0,0.0,0.0,0.0,-0.5488,-0.5211,-0.3387,-0.2736,-0.3224,-0.3911,-0.4396,-0.4734,0.0,0.0,0.0,0.0,0.0,0.0,0.0,0.0,0.0,0.0,0.0,0.0,0.0,0.0,0.0,0.0,0.0,0.0,0.0,0.0,0.0,0.0,0.0,0.0,0.0,0.0,0.0,0.0,0.0,0.0,0.0,0.0,0.0,0.0,0.0,0.0,0.0,0.0,0.0,0.0,0.0,0.0,0.0,0.0,0.0,0.0,0.0,0.0,0.0,0.0,0.0,0.0,0.0,0.0,0.0,0.0,0.0,0.0,0.0,0.0,0.0,0.0,0.0,0.0,0.0,0.0,0.0,0.0,0.0,0.0,0.0,-1.7652,0.0,0.0,0.0,0.0,0.0,0.0,0.0,0.0,0.0,0.0,0.0,0.0,0.0,0.0,0.0,0.0,0.0,0.0,0.0,0.0,0.0,-0.5919,-0.5941,-0.6679,-0.7083,-0.6873,-0.7359,-0.7723,-0.7821,-0.856,0.0,0.0,0.0,0.0,-0.8488,-0.6847,-0.556,-0.4713,-0.3423,-0.2985,-0.3384,-0.4285,-0.463,-0.454,-0.5499,0.0,0.0,0.0,0.0,0.0,0.0,0.0,0.0,0.0,0.0,0.0,0.0,0.0,0.0,0.0,0.0,0.0,0.0,0.0,0.0,0.0,0.0,0.0,0.0,0.0,0.0,0.0,0.0,0.0,0.0,0.0,0.0,0.0,0.0,0.0,0.0,0.0,0.0,0.0,0.0,0.0,0.0,0.0,0.0,0.0,0.0,0.0,0.0,0.0,0.0,0.0,0.0,0.0,0.0,0.0,0.0,0.0,0.0,0.0,0.0,0.0,0.0,0.0,-1.6851,-1.671,-1.5983,-1.5906,-1.6311,-1.7091,-1.7824,-1.8398,-1.8931,-2.0014,0.0,0.0,0.0,0.0,0.0,0.0,0.0,0.0,0.0,0.0,0.0,0.0,0.0,0.0,0.0,0.0,0.0,0.0,0.0,-0.4694,-0.4583,-0.5595,-0.6254,-0.6223,-0.6613,-0.706,-0.7519,-0.8198,0.0,0.0,0.0,-0.8658,-0.7589,-0.6218,-0.5119,-0.4378,-0.3612,-0.3341,-0.3576,-0.4573,-0.5156,-0.5365,-0.6309,-0.7113,-0.7756,0.0,0.0,0.0,0.0,0.0,0.0,0.0,0.0,0.0,0.0,0.0,0.0,0.0,0.0,0.0,0.0,0.0,0.0,0.0,0.0,0.0,0.0,0.0,0.0,0.0,0.0,0.0,0.0,0.0,0.0,0.0,0.0,0.0,0.0,0.0,0.0,0.0,0.0,0.0,0.0,0.0,-1.3567,-1.2022,0.0,0.0,0.0,0.0,0.0,0.0,0.0,0.0,0.0,0.0,0.0,0.0,0.0,-1.5918,-1.6953,-1.7506,-1.7757,-1.7631,-1.7202,-1.662,-1.5881,-1.5405,-1.5856,-1.7024,-1.7682,0.0,-1.8352,-1.8969,0.0,0.0,0.0,0.0,0.0,0.0,0.0,0.0,0.0,0.0,0.0,0.0,0.0,0.0,0.0,0.0,0.0,0.0,0.0,0.0,0.0,-0.403,-0.4649,-0.4841,-0.5474,-0.6167,-0.6892,-0.7767,0.0,0.0,-0.8512,-0.804,-0.6967,-0.5856,-0.4796,-0.3803,-0.3633,-0.3721,-0.3958,-0.5318,-0.5936,-0.5976,-0.761,-0.8222,-0.8032,-0.8544,0.0,0.0,0.0,0.0,0.0,0.0,0.0,0.0,0.0,0.0,0.0,0.0,0.0,0.0,0.0,0.0,0.0,0.0,0.0,0.0,0.0,0.0,0.0,0.0,0.0,0.0,0.0,0.0,0.0,0.0,0.0,0.0,0.0,0.0,0.0,0.0,0.0,0.0,0.0,-1.3862,-1.2004,-1.0648,-1.1405,-1.2327,0.0,0.0,0.0,0.0,0.0,0.0,0.0,0.0,0.0,-1.567,-1.5553,-1.5801,-1.6321,-1.6852,-1.6926,-1.649,-1.6639,-1.6341,-1.5618,-1.5381,-1.6045,-1.7373,-1.763,-1.8251,-1.9132,-1.937,-1.9326,-1.9124,0.0,0.0,0.0,0.0,-2.1041,-2.091,0.0,0.0,0.0,0.0,0.0,0.0,0.0,0.0,0.0,0.0,0.0,0.0,-0.1822,-0.2445,-0.305,-0.3429,-0.441,-0.5442,-0.6415,-0.7458,-0.8101,-0.8235,-0.8054,-0.746,-0.6409,-0.5446,-0.4448,-0.3451,-0.3744,-0.4043,-0.4304,-0.5869,-0.6463,-0.6278,-0.8514,-0.913,-0.8511,-0.936,-0.9563,-0.9267,0.0,0.0,0.0,0.0,0.0,0.0,0.0,0.0,0.0,0.0,0.0,0.0,0.0,0.0,0.0,0.0,0.0,0.0,0.0,0.0,0.0,0.0,0.0,0.0,0.0,0.0,0.0,0.0,0.0,0.0,0.0,0.0,0.0,0.0,0.0,0.0,0.0,-1.2476,-1.0776,-0.9537,-1.021,-1.0988,0.0,0.0,0.0,0.0,0.0,0.0,-1.4558,-1.4978,-1.5404,-1.5676,-1.5571,-1.5591,-1.5925,-1.63,-1.6254,-1.5884,-1.6308,-1.6191,-1.5576,-1.542,-1.6187,-1.7578,-1.7578,-1.8447,-1.9825,-1.9795,-1.9696,-1.9623,-1.9761,-1.9736,-1.976,-2.1013,-2.1241,-2.1206,0.0,0.0,0.0,0.0,0.0,0.0,0.0,0.0,0.0,0.0,0.0,-0.1109,-0.0382,-0.1081,-0.1777,-0.2246,-0.3658,-0.5058,-0.6327,-0.7282,-0.7906,-0.8093,-0.7726,-0.6987,-0.5864,-0.4796,-0.4018,-0.3612,-0.4009,-0.4304,-0.4505,-0.5932,-0.6463,-0.6278,-0.8514,-0.9581,-0.9748,-1.0164,-1.0845,-1.1557,-1.0546,0.0,0.0,0.0,0.0,0.0,0.0,0.0,0.0,0.0,0.0,0.0,0.0,0.0,0.0,0.0,0.0,0.0,0.0,0.0,0.0,0.0,0.0,0.0,0.0,0.0,0.0,0.0,0.0,0.0,0.0,0.0,0.0,0.0,0.0,0.0,0.0,0.0,0.0,-0.8453,-0.9769,0.0,0.0,0.0,0.0,-1.4239,-1.4359,-1.4629,-1.5018,-1.5102,-1.5046,-1.4848,-1.4831,-1.5365,-1.6451,-1.6498,-1.6702,-1.7121,-1.6723,-1.6359,-1.6045,-1.5576,-1.6187,-1.7578,-1.7578,-1.8447,-1.9798,-1.9825,-1.9484,-1.9107,-1.959,-1.9488,-1.9172,-2.0407,-2.1187,-2.1744,0.0,0.0,0.0,-0.7656,-0.6633,-0.5562,-0.4523,-0.3436,-0.2377,-0.1361,-0.0632,0.0047,0.0688,0.082,0.0311,-0.1099,-0.2472,-0.417,-0.6256,-0.6918,-0.7408,-0.7827,-0.726,-0.6343,-0.5128,-0.4593,-0.4134,-0.3717,-0.3877,-0.4029,-0.4227,-0.5553,-0.6172,-0.6175,-0.8314,-0.9275,-0.9436,-1.0745,-1.1333,-1.137,-1.1603,-1.1196,0.0,0.0,0.0,0.0,0.0,0.0,0.0,0.0,0.0,0.0,0.0,0.0,0.0,0.0,0.0,0.0,0.0,0.0,0.0,0.0,0.0,0.0,0.0,0.0,0.0,0.0,0.0,0.0,0.0,0.0,0.0,0.0,0.0,0.0,0.0,0.0,0.0,-1.0409,-1.1234,0.0,-1.2867,-1.3366,-1.3792,-1.419,-1.42,-1.44,-1.4849,-1.4934,-1.4968,-1.5176,-1.5459,-1.5851,-1.6237,-1.6517,-1.6718,-1.6896,-1.6705,-1.6455,-1.6065,-1.593,-1.6465,-1.7578,-1.7578,-1.8447,-1.9798,-1.9798,-1.9698,-1.9522,-1.9712,-1.9685,-1.963,-2.0497,-2.1185,-2.1809,0.0,0.0,0.0,-0.7887,-0.669,-0.5577,-0.4892,-0.3649,-0.2344,-0.1182,0.0117,0.1234,0.202,0.263,0.2226,0.0335,-0.137,-0.3322,-0.5587,-0.6388,-0.6903,-0.7227,-0.6513,-0.5793,-0.5057,-0.465,-0.4343,-0.4116,-0.3938,-0.3921,-0.4019,-0.5389,-0.594,-0.5949,-0.8105,-0.9137,-0.9324,-1.1047,-1.1769,-1.1796,-1.2548,-1.2476,-1.2054,0.0,0.0,0.0,0.0,0.0,0.0,0.0,0.0,0.0,0.0,0.0,0.0,0.0,0.0,0.0,0.0,0.0,0.0,0.0,0.0,0.0,0.0,0.0,0.0,0.0,0.0,0.0,0.0,0.0,0.0,0.0,0.0,0.0,0.0,0.0,-1.2016,-1.19,-1.2366,-1.2967,-1.3689,-1.3994,-1.4199,-1.4336,-1.4355,-1.4541,-1.4971,-1.5,-1.5127,-1.54,-1.584,-1.6125,-1.6125,-1.6481,-1.6773,-1.6937,-1.6753,-1.6665,-1.6533,-1.6213,-1.6593,-1.7431,-1.7323,-1.807,-1.9423,-1.9423,-1.9579,-1.9798,-1.9798,-1.9798,-1.985,-2.0295,-2.0868,-2.1568,0.0,0.0,-0.8154,-0.7367,-0.6455,-0.5577,-0.4794,-0.3717,-0.2414,-0.0792,0.0929,0.2436,0.3572,0.4222,0.3874,0.2119,-0.0331,-0.2534,-0.4243,-0.5638,-0.6363,-0.6266,-0.5571,-0.5341,-0.5664,-0.5011,-0.4678,-0.4713,-0.4222,-0.4005,-0.4055,-0.5371,-0.5796,-0.5585,-0.799,-0.9182,-0.9494,-1.1137,-1.2271,-1.307,-1.34,-1.3836,-1.4272,0.0,0.0,0.0,0.0,0.0,0.0,0.0,0.0,0.0,0.0,0.0,0.0,0.0,0.0,0.0,0.0,0.0,0.0,0.0,0.0,0.0,0.0,0.0,0.0,0.0,0.0,0.0,0.0,0.0,0.0,0.0,0.0,0.0,-1.4767,-1.3394,-1.2547,-1.2621,-1.2949,-1.3168,-1.3177,-1.3784,-1.4346,-1.4831,-1.4861,-1.5037,-1.5391,-1.541,-1.541,-1.541,-1.584,-1.6135,-1.6145,-1.6523,-1.6943,-1.7389,-1.6953,-1.6963,-1.7349,-1.6515,-1.6568,-1.7221,-1.6759,-1.7368,-1.8715,-1.8715,-1.915,-1.9798,-1.9798,-1.9798,-1.9798,-1.9798,-2.0258,-2.1122,-0.8158,-0.8293,-0.8284,-0.7924,-0.7286,-0.6707,-0.639,-0.558,-0.4326,-0.2412,0.0088,0.2265,0.3746,0.5362,0.5503,0.3453,0.153,-0.063,-0.3163,-0.4115,-0.4779,-0.5135,-0.532,-0.5297,-0.5065,-0.5503,-0.5535,-0.5135,-0.4566,-0.4274,-0.4319,-0.5131,-0.5459,-0.5438,-0.7792,-0.9035,-0.9533,-1.1428,-1.2751,-1.3638,-1.406,-1.4544,-1.5043,0.0,0.0,0.0,0.0,0.0,0.0,0.0,0.0,0.0,0.0,0.0,0.0,0.0,0.0,0.0,0.0,0.0,0.0,0.0,0.0,0.0,0.0,0.0,0.0,0.0,0.0,0.0,0.0,0.0,0.0,0.0,0.0,-1.6236,-1.3439,-1.3432,-1.3612,-1.3516,-1.3989,-1.4651,-1.5517,-1.5716,-1.5889,-1.6012,-1.6023,-1.5857,-1.54,-1.541,-1.541,-1.541,-1.584,-1.6221,-1.6543,-1.6982,-1.7439,-1.7839,-1.7676,-1.7533,-1.7368,-1.7145,-1.74,-1.7969,-1.7838,-1.8469,-1.9475,-1.9475,-1.9631,-1.9798,-1.9798,-1.9798,-1.9798,-1.9798,-2.0794,-2.2484,-0.7937,-0.8131,-0.824,-0.8115,-0.7599,-0.7179,-0.7104,-0.6478,-0.5406,-0.3731,-0.0745,0.1717,0.2989,0.52,0.5861,0.4089,0.2312,0.046,-0.1565,-0.2498,-0.32,-0.3704,-0.4262,-0.473,-0.4983,-0.5479,-0.5725,-0.5658,-0.5087,-0.4783,-0.4778,-0.5254,-0.5544,-0.5777,-0.7482,-0.8692,-0.9539,-1.1091,-1.2352,-1.3385,-1.3878,-1.4809,-1.5956,-1.6265,-1.6141,-1.5875,-1.6312,-1.6325,-1.6273,-1.7274,0.0,0.0,0.0,0.0,0.0,0.0,0.0,0.0,0.0,0.0,0.0,0.0,0.0,0.0,0.0,0.0,0.0,0.0,0.0,0.0,0.0,0.0,0.0,0.0,-1.7932,-1.6823,-1.4696,-1.4901,-1.5347,-1.5391,-1.5731,-1.6234,-1.6901,-1.6978,-1.6978,-1.6978,-1.6652,-1.6322,-1.5864,-1.5584,-1.541,-1.541,-1.584,-1.6182,-1.6445,-1.6894,-1.7232,-1.7474,-1.7658,-1.7484,-1.7119,-1.7132,-1.7399,-1.7854,-1.7658,-1.8224,-1.9319,-1.9319,-1.9527,-1.9798,0.0,0.0,0.0,0.0,-2.1851,-2.3716,-0.7665,-0.7895,-0.809,-0.8088,-0.7662,-0.7324,-0.7367,-0.6905,-0.6144,-0.495,-0.1897,0.0475,0.1341,0.3819,0.4967,0.378,0.2214,0.0943,0.0146,-0.0886,-0.1707,-0.2153,-0.2834,-0.3818,-0.5143,-0.5164,-0.5484,-0.6181,-0.5577,-0.5317,-0.5312,-0.5525,-0.5857,-0.6226,-0.7209,-0.833,-0.9482,-1.0501,-1.1623,-1.2747,-1.3385,-1.4852,-1.6712,-1.7044,-1.7042,-1.6859,-1.7166,-1.6957,-1.6708,-1.7643,0.0,0.0,0.0,0.0,0.0,0.0,0.0,0.0,0.0,0.0,0.0,0.0,0.0,0.0,0.0,0.0,0.0,0.0,0.0,0.0,0.0,0.0,0.0,0.0,-1.8361,-1.8154,-1.7601,-1.7445,-1.747,-1.7577,-1.7578,-1.7633,-1.7743,-1.7743,-1.7743,-1.7743,-1.7034,-1.6606,-1.6492,0.0,0.0,0.0,0.0,-1.6076,-1.6125,-1.6455,-1.6651,-1.6708,-1.7129,-1.7109,-1.6665,-1.6665,-1.6908,-1.728,-1.6859,-1.7523,-1.8821,-1.8821,-1.9202,-1.9798,-1.9901,-1.9901,-2.0054,-2.1414,-2.3081,-2.4765,-0.7021,-0.7546,-0.7969,-0.809,-0.8009,-0.8059,-0.8442,-0.829,-0.7781,-0.6736,-0.4592,-0.2717,-0.1534,0.0564,0.1693,0.1245,0.1156,0.1021,0.074,0.0169,-0.0362,-0.0846,-0.195,-0.309,-0.4218,-0.5007,-0.5693,-0.6212,-0.5594,-0.5286,-0.5286,-0.5356,-0.541,-0.5549,-0.7257,-0.8372,-0.9131,-1.0937,-1.2076,-1.2802,-1.4001,-1.509,-1.6032,-1.6324,-1.6903,-1.7657,-1.8143,-1.8248,-1.836,-1.9714,-2.0126,-2.0218,-2.1335,-2.1714,0.0,0.0,0.0,0.0,0.0,0.0,0.0,0.0,0.0,0.0,0.0,0.0,0.0,0.0,0.0,0.0,0.0,0.0,0.0,-2.1083,-2.0955,-2.0933,-2.0823,-2.0374,-1.9469,-1.7775,-1.7578,-1.7841,-1.8447,-1.8501,-1.8501,-1.8501,-1.7786,-1.7146,-1.6549,-1.5806,-1.541,-1.541,-1.5498,-1.5703,-1.6115,-1.6213,-1.6373,-1.6722,0.0,0.0,-1.6665,-1.6665,-1.7206,-1.8085,-1.7986,-1.8559,-1.9579,-1.9579,-1.9695,-1.985,-2.0396,-2.0597,-2.0759,-2.2066,-2.3459,-2.4805,-0.6932,-0.7533,-0.8023,-0.8075,-0.8297,-0.8526,-0.8776,-0.888,-0.8712,-0.8033,-0.6149,-0.4511,-0.3649,-0.1753,-0.0437,-0.0124,0.1036,0.189,0.2187,0.2052,0.1785,0.143,-0.0269,-0.1721,-0.2891,-0.424,-0.5238,-0.585,-0.5992,-0.6065,-0.6065,-0.6086,-0.6223,-0.6433,-0.7453,-0.8334,-0.9188,-1.0541,-1.1453,-1.2096,-1.3208,-1.4085,-1.4879,-1.6011,-1.6876,-1.7546,-1.8329,-1.8735,-1.9087,-2.0378,-2.084,-2.1161,-2.2634,-2.3101,-2.3198,0.0,0.0,0.0,0.0,0.0,0.0,0.0,0.0,0.0,0.0,0.0,0.0,0.0,0.0,-2.2337,0.0,0.0,-2.1976,-2.1735,-2.1688,-2.1697,-2.1697,-2.1424,-2.0743,-1.9362,-1.8915,-1.8874,-1.9202,-1.9254,-1.9254,-1.9254,-1.8232,-1.7413,-1.709,-1.6026,-1.541,-1.541,-1.541,-1.5518,-1.5732,-1.5732,-1.585,-1.6074,-1.6289,-1.6289,-1.6074,-1.6299,-1.6968,-1.7947,-1.7947,-1.8627,-1.9798,-1.9798,-2.0003,-2.0346,-2.1015,-2.1245,-2.1431,-2.2715,-2.3821,-2.4808,-0.7095,-0.7707,-0.8171,-0.8211,-0.8538,-0.8795,-0.885,-0.9092,-0.9165,-0.8871,-0.7307,-0.607,-0.5661,-0.4047,-0.2447,-0.1079,0.0987,0.2637,0.3677,0.4042,0.4053,0.368,0.1694,-0.01,-0.1543,-0.3201,-0.4503,-0.5426,-0.6307,-0.6765,-0.6827,-0.6975,-0.7198,-0.7526,-0.7793,-0.843,-0.9327,-1.0095,-1.0804,-1.1461,-1.2309,-1.3045,-1.3827,-1.5657,-1.6669,-1.7211,-1.8145,-1.8783,-1.9353,-2.0322,-2.0953,-2.1575,-2.3015,-2.3707,-2.4105,-2.4792,-2.4994,0.0,0.0,0.0,0.0,0.0,0.0,0.0,0.0,0.0,-2.3068,-2.2773,-2.2257,-2.1957,-2.2131,-2.2113,-2.2058,-2.2058,-2.2045,-2.2072,-2.2072,-2.1834,-2.1498,-2.1048,-2.0518,-2.0181,-2.0181,-2.0042,-2.0003,-2.0003,-1.8448,-1.7532,-1.7622,-1.6105,-1.5322,-1.541,-1.541,-1.541,-1.541,-1.541,-1.541,-1.542,-1.5762,-1.5752,-1.543,-1.595,-1.6711,-1.7633,-1.7895,-1.8715,-1.9798,-1.9798,-2.0207,-2.0845,-2.1472,-2.1805,-2.2049,-2.3256,-2.4069,-2.4731,-0.7321,-0.7951,-0.8412,-0.8604,-0.8677,-0.8789,-0.903,-0.9091,-0.91,-0.8986,-0.8666,-0.8387,-0.8205,-0.7194,-0.5266,-0.2138,0.0208,0.2386,0.4422,0.5469,0.5673,0.4945,0.3519,0.1637,-0.0756,-0.2115,-0.3584,-0.5241,-0.6036,-0.6615,-0.698,-0.7353,-0.754,-0.7608,-0.834,-0.8874,-0.9293,-1.0356,-1.1144,-1.1743,-1.2533,-1.3053,-1.3481,-1.4722,-1.5993,-1.7181,-1.7822,-1.8562,-1.9291,-1.9948,-2.0731,-2.145,-2.1835,-2.2494,-2.3284,-2.4012,0.0,-2.4461,-2.5072,0.0,0.0,-2.5032,-2.4923,-2.461,0.0,0.0,-2.2387,-2.144,-2.1771,-2.2146,-2.183,-2.2671,-2.3372,-2.3372,-2.3375,-2.3406,-2.3406,-2.2425,-2.1669,-2.1595,-2.1532,-2.1506,-2.1506,-2.1015,-2.0696,-2.0696,-1.843,-1.7238,-1.7556,-1.5873,-1.5029,-1.54,-1.541,-1.541,-1.541,-1.541,-1.541,-1.541,-1.5459,-1.5459,-1.541,-1.6144,-1.6864,-1.7688,-1.8992,-1.9643,-1.9798,-1.9798,-2.0207,-2.0845,-2.1472,-2.2053,-2.2649,-2.3363,-2.4015,-2.4612,-0.7518,-0.8077,-0.8476,-0.8771,-0.888,-0.8929,-0.8921,-0.899,-0.8972,-0.879,-0.871,-0.8543,-0.8172,-0.7193,-0.5579,-0.3142,-0.0317,0.2396,0.4893,0.6484,0.7253,0.7027,0.5187,0.3225,0.1213,-0.1094,-0.3075,-0.4778,-0.6313,-0.7358,-0.7993,-0.8601,-0.887,-0.8909,-0.9445,-0.9843,-1.0204,-1.1144,-1.1782,-1.2242,-1.3042,-1.343,-1.3621,-1.445,-1.5414,-1.6486,-1.7603,-1.8414,0.0,-1.9844,-2.0394,-2.0889,-2.1559,-2.1622,-2.1843,-2.3686,-2.3871,0.0,-2.5027,0.0,0.0,0.0,-2.4893,-2.4561,-2.3692,-2.3041,-2.2471,-2.2027,-2.204,-2.2099,-2.2046,-2.2712,-2.3142,0.0,-2.3095,-2.3165,-2.2888,-2.239,-2.1943,-2.1742,-2.1427,-2.1091,-2.0643,-2.0415,-2.0162,-1.9785,-1.7747,-1.6632,-1.6782,-1.5231,-1.46,-1.5039,-1.5049,-1.5166,-1.541,-1.541,-1.541,-1.541,-1.541,-1.541,-1.541,-1.57,-1.6472,-1.7688,-1.915,-1.9798,-1.985,-2.0194,-2.0733,-2.139,-2.2007,-2.268,-2.3231,-2.3508,-2.3789,-2.4088,-0.765,-0.8171,-0.8563,-0.8846,-0.8945,-0.8915,-0.8689,-0.8714,-0.8659,-0.8415,-0.8379,-0.8183,-0.7693,-0.6888,-0.5697,-0.3995,-0.1063,0.1892,0.4714,0.6881,0.8207,0.8601,0.6859,0.4896,0.2862,-0.0311,-0.2931,-0.4977,-0.724,-0.8771,-0.9578,-1.0243,-1.0562,-1.0576,-1.0845,-1.1152,-1.1504,-1.208,-1.2556,-1.2972,-1.3587,-1.3878,-1.4004,-1.4504,-1.4926,-1.5444,-1.6996,-1.7945,-1.8545,-1.8983,-1.9523,-2.0031,-2.0314,-2.0256,-2.0508,-2.2634,-2.3121,-2.3285,-2.4697,0.0,0.0,-2.4957,-2.4856,-2.4561,-2.3634,-2.2987,-2.2542,-2.2361,-2.2143,-2.2027,-2.2202,-2.2722,-2.298,-2.2655,-2.2876,-2.2964,-2.2493,-2.2205,-2.1812,-2.1277,-2.0863,-2.0271,-1.9417,-1.957,-1.9608,-1.9261,-1.7243,-1.6042,-1.6177,-1.4738,-1.416,-1.459,-1.4717,-1.4932,-1.5234,-1.5352,-1.541,-1.541,-1.541,-1.5526,-1.57,-1.613,-1.7013,-1.8286,-1.9319,-1.9798,-1.985,-2.0497,-2.1161,-2.1758,-2.2452,-2.3054,-2.3595,-2.3595,-2.3595,-2.367,-0.7708,-0.829,-0.8724,-0.8869,-0.8784,-0.8633,-0.8354,-0.8209,-0.8059,-0.7853,-0.7811,-0.7663,-0.7263,-0.7006,-0.623,-0.4621,-0.2236,0.0499,0.3648,0.6399,0.8275,0.9141,0.8612,0.6804,0.363,0.0088,-0.3171,-0.6161,-0.9082,-1.0916,-1.1714,-1.2259,-1.2517,-1.253,-1.2576,-1.2826,-1.3133,-1.3157,-1.3469,-1.3971,-1.413,-1.4334,-1.4592,-1.4817,-1.4461,-1.4082,-1.5838,-1.6969,-1.7532,-1.692,-1.7838,-1.8955,-1.7363,-1.8,0.0,-2.0365,-2.1698,-2.3101,0.0,0.0,-2.4234,-2.4697,-2.4798,-2.4519,-2.3446,-2.2888,-2.2412,-2.1765,-2.1838,-2.2,-2.2005,-2.2768,-2.3367,-2.3375,-2.3371,-2.3271,-2.2853,-2.1956,-2.1005,-2.0059,-1.9955,-1.9458,0.0,-1.8728,-1.9311,-1.9858,-1.7183,-1.5721,-1.6154,-1.4501,-1.3721,-1.4087,-1.4561,-1.4795,-1.4805,-1.5205,-1.541,-1.541,-1.541,-1.5748,-1.6549,-1.795,-1.898,-1.9747,-1.9798,-1.9798,-1.985,-2.0497,-2.1161,-2.1758,-2.2452,-2.3054,-2.3595,-2.3595,-2.3595,-2.3595,-0.7998,-0.8476,-0.8826,-0.9005,-0.8799,-0.8533,-0.821,-0.802,-0.7843,-0.7695,-0.7662,0.0,0.0,0.0,0.0,0.0,-0.3656,-0.1485,0.0869,0.3618,0.5857,0.7335,0.7495,0.5852,0.2289,0.0152,-0.3214,-0.7933,-0.9271,-1.0544,-1.1731,-1.1737,-1.174,-1.174,-1.1579,-1.1572,-1.1718,-1.2198,-1.2618,-1.2993,-1.3613,-1.412,-1.4606,-1.5835,-1.5565,-1.4699,0.0,-1.6214,-1.6137,-1.6471,0.0,0.0,-1.7737,0.0,0.0,-1.9172,0.0,-2.2956,-2.3197,0.0,-2.3244,-2.3802,-2.388,-2.3702,-2.3276,-2.3265,-2.3129,-2.247,-2.2575,-2.277,-2.2634,-2.2972,-2.3223,-2.3091,-2.2982,-2.2704,-2.2018,-2.1144,-2.0106,-1.8775,-1.799,0.0,0.0,0.0,0.0,-1.7609,-1.5578,-1.4456,-1.4618,-1.3638,-1.3281,-1.3711,-1.3857,-1.4072,-1.4355,-1.4469,-1.4535,-1.4561,-1.4998,-1.5324,-1.5647,-1.702,-1.7972,-1.8576,-1.907,-1.9484,-1.9901,-2.0953,-2.152,-2.1805,-2.2905,-2.3421,-2.3595,-2.3595,-2.3595,-2.3638,-0.8195,-0.8632,-0.8947,-0.9087,-0.8784,0.0,0.0,0.0,0.0,0.0,0.0,0.0,0.0,0.0,0.0,0.0,0.0,-0.3544,-0.1605,0.0683,0.2838,0.4777,0.4978,0.3658,0.0716,-0.1216,-0.4396,-0.8946,-0.9833,-1.0916,-1.2114,-1.189,-1.1767,-1.1762,-1.1608,-1.1535,-1.1582,-1.218,-1.2869,-1.3603,-1.3793,-1.443,-1.5319,-1.5988,-1.5489,0.0,-1.5124,-1.507,-1.4784,-1.5137,0.0,0.0,0.0,0.0,0.0,0.0,-2.0244,-2.2043,-2.2219,-2.2201,-2.2262,-2.282,-2.3145,-2.3246,-2.3009,-2.3341,-2.3567,-2.3087,-2.3159,-2.3289,-2.3236,-2.3441,-2.3626,-2.3702,-2.3389,-2.2743,-2.1628,-2.0416,-1.8896,-1.6978,-1.593,-1.5377,0.0,0.0,0.0,-1.6077,-1.4653,-1.3815,-1.3815,-1.3248,-1.3008,-1.3271,-1.3428,-1.3633,-1.3906,-1.4033,-1.4221,-1.446,-1.5182,-1.5588,-1.5833,-1.6973,-1.7654,-1.803,-1.8523,-1.9018,-1.9618,-2.0887,-2.1546,-2.1837,-2.3084,-2.3595,-2.3595,-2.3595,-2.3837,-2.4184,-0.8313,-0.8745,-0.9089,0.0,0.0,0.0,0.0,0.0,0.0,0.0,0.0,0.0,0.0,0.0,0.0,0.0,0.0,0.0,-0.3742,-0.2301,-0.0596,0.1508,0.129,0.0407,-0.114,-0.3818,-0.6554,-0.9296,-1.0757,-1.1935,-1.2823,-1.2608,-1.2515,-1.2536,-1.2569,-1.263,-1.2667,-1.3021,-1.4088,-1.5491,-1.4546,-1.5171,-1.6515,-1.5382,-1.4421,-1.3636,-1.3674,-1.3727,0.0,0.0,0.0,0.0,0.0,0.0,0.0,0.0,0.0,-2.0518,-2.1101,-2.1242,-2.1339,-2.1831,-2.2607,-2.3095,-2.2602,-2.3159,-2.3715,-2.356,-2.354,-2.3641,0.0,0.0,-2.4514,-2.5106,-2.4449,-2.3244,-2.158,-1.97,-1.7485,0.0,0.0,0.0,0.0,0.0,0.0,-1.5182,0.0,-1.3721,-1.3721,-1.319,-1.2881,-1.2881,-1.3271,-1.3477,-1.3477,-1.3877,-1.4378,-1.5051,-1.5793,-1.6447,-1.7025,-1.7807,-1.8141,-1.8166,-1.8166,-1.8435,-1.9074,-2.0352,-2.1159,-2.1715,-2.2993,-2.352,-2.355,-2.355,-2.4251,-2.5105,0.0,0.0,0.0,0.0,0.0,0.0,0.0,0.0,0.0,0.0,0.0,0.0,0.0,0.0,0.0,0.0,0.0,0.0,-0.6636,-0.533,-0.398,-0.2622,-0.1711,-0.2354,-0.4718,-0.5149,-0.7072,-1.062,-1.0805,-1.1226,-1.1849,-1.1509,-1.1434,-1.1614,-1.1339,-1.1549,-1.2127,-1.2627,-1.3193,-1.376,-1.3773,-1.4024,-1.4518,-1.5455,-1.506,-1.4136,-1.4776,0.0,0.0,0.0,0.0,0.0,0.0,0.0,-1.7969,0.0,0.0,-2.0419,-2.0521,-2.0365,-2.0365,-2.1079,-2.1798,-2.2351,-2.2475,-2.3549,-2.4403,-2.3969,-2.4186,-2.4506,0.0,0.0,0.0,-2.4885,-2.3927,0.0,-2.0745,-1.8644,0.0,-1.4111,0.0,-1.2009,-1.158,-1.1846,0.0,0.0,-1.2957,-1.289,-1.2355,-1.2696,-1.2881,-1.2881,-1.2988,-1.3037,-1.3037,-1.3145,-1.3496,-1.4155,-1.476,-1.5394,-1.598,-1.6658,-1.7187,-1.7589,-1.7589,-1.7907,-1.852,-1.9651,-2.0237,-2.0469,-2.1701,-2.2473,-2.2906,-2.2906,-2.3636,-2.4632,0.0,0.0,0.0,0.0,0.0,0.0,0.0,0.0,0.0,0.0,0.0,0.0,0.0,0.0,0.0,0.0,0.0,0.0,0.0,-0.7597,-0.6839,-0.6064,-0.5448,-0.582,-0.7301,-0.7157,-0.8516,-1.1446,-1.0592,-1.0631,-1.1477,-1.0698,-1.0349,-1.0399,-1.0531,-1.0756,-1.1069,-1.1901,-1.2736,0.0,0.0,-1.3932,-1.4967,-1.5452,-1.5172,-1.4637,0.0,0.0,0.0,0.0,0.0,-1.5898,-1.5429,-1.6506,-1.7942,-1.791,0.0,-2.0379,-2.0258,-2.0041,-1.9982,-2.0387,-2.1016,-2.1629,-2.1838,-2.3107,-2.4173,-2.3984,-2.4441,0.0,0.0,0.0,0.0,0.0,0.0,0.0,-2.0004,-1.7592,-1.5066,0.0,-1.1048,0.0,-1.0364,-1.0712,-1.1065,0.0,-1.2304,-1.2725,-1.2295,-1.2666,-1.2881,-1.2881,-1.2881,-1.2881,-1.2881,-1.2881,-1.319,-1.3805,-1.4422,-1.5017,-1.5632,-1.6238,-1.6697,-1.6999,0.0,-1.7295,-1.79,-1.9062,-1.9684,-2.002,-2.1226,-2.2024,-2.2571,-2.2884,-2.367,-2.4675,0.0,0.0,0.0,0.0,0.0,0.0,0.0,0.0,0.0,-0.7914,-0.802,-0.8197,0.0,0.0,0.0,0.0,0.0,0.0,0.0,0.0,-0.9053,-0.8697,-0.8984,-0.9126,-0.9081,-0.9222,-1.0044,-1.1612,-1.0244,-1.0167,-1.1251,-1.0166,-0.9555,-0.9404,-1.0254,-1.0473,-1.0313,-1.1461,-1.272,-1.3899,-1.3364,-1.4399,-1.6187,0.0,0.0,0.0,0.0,0.0,0.0,0.0,-1.4981,-1.5312,-1.5148,-1.6383,-1.7872,-1.7888,-1.9087,-2.0363,-2.019,-2.0084,-2.0003,-1.988,-2.0456,-2.1069,-2.1079,-2.2402,-2.3661,-2.3865,0.0,0.0,-2.5284,0.0,-2.5524,-2.5948,0.0,-2.2069,-1.9055,-1.6293,-1.3334,-1.0056,-0.9047,-0.8903,-0.9614,-0.9762,-1.0064,-1.0618,-1.19,-1.2666,-1.2774,-1.2832,-1.2881,-1.2881,-1.2881,-1.2881,-1.2881,-1.2881,-1.3232,-1.3945,-1.4463,-1.5062,-1.5732,-1.6238,-1.6522,-1.6522,-1.6522,-1.6752,-1.7269,-1.8467,-1.922,-1.976,-2.0951,-2.1712,-2.2238,-2.2886,-2.3777,-2.4757,0.0,0.0,0.0,0.0,0.0,0.0,0.0,0.0,0.0,0.0,-0.8319,-0.8288,0.0,0.0,0.0,0.0,0.0,0.0,0.0,0.0,0.0,-0.9668,-0.9822,-0.9934,0.0,0.0,0.0,0.0,0.0,-1.0091,-1.0092,-1.0049,-1.0089,-1.0213,-1.0942,-1.1542,-1.2086,-1.2861,-1.3381,-1.3711,-1.4175,-1.4446,-1.4602,-1.5242,0.0,0.0,0.0,0.0,0.0,0.0,-1.5285,-1.5921,-1.5299,-1.6309,-1.7751,-1.7868,-1.9081,-2.0394,-2.0424,-2.0296,-2.0156,-2.0139,-2.0742,-2.1288,-2.1133,-2.2648,0.0,0.0,0.0,-2.5341,-2.539,-2.5341,0.0,-2.5063,0.0,0.0,0.0,0.0,-1.0665,0.0,0.0,0.0,0.0,0.0,0.0,0.0,0.0,-1.1425,-1.1972,-1.2559,-1.2881,-1.2881,-1.2881,-1.2881,-1.2881,-1.2881,-1.345,-1.4523,-1.4628,-1.5287,-1.6337,-1.6466,-1.6522,-1.6522,-1.6522,0.0,-1.6723,-1.7815,-1.8337,-1.8509,-1.9626,-2.0628,-2.1487,-2.161,-2.263,-2.3918,0.0,0.0,0.0,0.0,0.0,0.0,0.0,-0.7496,-0.7679,-0.8489,-0.9074,-0.9389,-0.9367,-0.9142,-0.9122,0.0,0.0,0.0,0.0,0.0,0.0,0.0,0.0,0.0,0.0,0.0,0.0,0.0,0.0,0.0,0.0,0.0,0.0,0.0,0.0,0.0,-1.0796,-1.1856,-1.2237,-1.2241,-1.3449,-1.4137,0.0,0.0,0.0,0.0,0.0,0.0,0.0,0.0,-1.4676,-1.5221,-1.4604,-1.556,-1.6987,-1.7528,-1.8651,-1.9822,-2.0324,-2.0353,-2.0258,-2.0258,-2.0539,-2.0796,-2.0714,0.0,0.0,0.0,0.0,-2.478,-2.4783,0.0,0.0,0.0,0.0,0.0,0.0,0.0,0.0,0.0,0.0,0.0,0.0,0.0,0.0,0.0,0.0,-1.0559,-1.1266,-1.1931,-1.2501,-1.2881,-1.2881,-1.2881,-1.2881,-1.2881,-1.3331,-1.4233,-1.4562,-1.5152,-1.6051,-1.638,-1.6522,-1.6522,-1.6522,-1.668,-1.6993,-1.7787,-1.8263,-1.8612,-1.9406,-2.0303,-2.1185,-2.1566,-2.2507,-2.361,0.0,0.0,0.0,0.0,0.0,0.0,0.0,-0.736,-0.7525,-0.8552,-0.9639,-1.0248,-1.0123,-0.9875,-0.9759,0.0,0.0,0.0,0.0,0.0,0.0,0.0,0.0,0.0,0.0,0.0,0.0,0.0,0.0,0.0,0.0,0.0,0.0,0.0,0.0,0.0,0.0,0.0,-1.1078,0.0,0.0,0.0,0.0,0.0,0.0,0.0,0.0,0.0,0.0,0.0,-1.3738,-1.3876,-1.3561,-1.4817,-1.6543,-1.732,-1.8368,-1.9425,-2.0119,-2.0286,-2.0241,-2.0241,-2.0219,-2.0227,-2.0247,-2.0935,0.0,0.0,0.0,-2.3954,-2.396,0.0,0.0,0.0,0.0,0.0,0.0,0.0,0.0,0.0,0.0,0.0,0.0,0.0,0.0,0.0,-0.9562,-1.0012,-1.0965,-1.1516,-1.2138,-1.2881,-1.2881,-1.2881,-1.2881,-1.2881,-1.3263,-1.4019,-1.4494,-1.5062,-1.582,-1.6281,-1.6522,-1.6522,-1.6522,-1.6795,-1.7353,-1.7867,-1.8419,-1.8968,-1.9588,-2.0311,-2.1087,-2.1762,-2.2485,-2.3241,0.0,0.0,0.0,0.0,0.0,0.0,0.0,-0.7192,-0.765,-0.9361,-0.948,-0.9846,-1.0946,-1.1265,-1.1252,0.0,0.0,0.0,0.0,0.0,0.0,0.0,0.0,0.0,0.0,0.0,0.0,0.0,0.0,0.0,0.0,0.0,0.0,0.0,0.0,0.0,0.0,0.0,0.0,0.0,0.0,0.0,0.0,0.0,0.0,0.0,0.0,0.0,0.0,0.0,0.0,-1.2075,-1.2264,-1.4653,-1.7416,-1.7613,0.0,0.0,-1.9991,-2.0034,-2.0036,-2.0036,-1.999,-1.9968,-2.0078,0.0,0.0,0.0,-2.2506,-2.3125,-2.3181,0.0,0.0,0.0,0.0,-1.7697,0.0,0.0,0.0,0.0,0.0,0.0,0.0,0.0,0.0,0.0,-0.891,-0.971,-1.1616,-1.1765,-1.2138,-1.2881,-1.2881,-1.2881,-1.2881,-1.2881,-1.3467,-1.463,-1.4652,-1.5287,-1.6423,-1.6466,-1.6522,-1.6522,-1.6522,-1.6795,0.0,-1.7867,-1.8419,-1.8991,-1.9899,-2.055,-2.1039,-2.1481,-2.1969,-2.2412,0.0,0.0,0.0,0.0,0.0,0.0,-0.745,-0.6996,-0.7342,-0.9156,-1.0534,-1.1857,-1.3215,-1.3853,-1.3383,-1.1364,0.0,0.0,0.0,0.0,0.0,0.0,0.0,0.0,0.0,0.0,0.0,0.0,0.0,0.0,0.0,0.0,0.0,0.0,0.0,0.0,0.0,0.0,0.0,0.0,0.0,0.0,0.0,0.0,0.0,0.0,0.0,0.0,0.0,0.0,0.0,0.0,-1.1908,-1.3684,0.0,0.0,-1.6842,-1.7531,-1.8817,-1.9068,-1.9075,-1.9526,-1.9619,-1.9688,-1.9971,0.0,0.0,-2.1475,-2.1947,-2.2229,-2.2246,-2.2637,-2.3004,-2.3141,-2.0671,0.0,0.0,0.0,0.0,0.0,0.0,0.0,0.0,0.0,0.0,0.0,-0.8804,-0.9309,-1.0517,-1.0965,-1.1525,-1.2236,-1.2666,-1.2881,-1.2881,-1.2881,-1.3525,-1.4698,-1.4722,-1.5306,-1.6522,-1.6522,-1.6522,-1.6522,-1.6522,-1.6795,0.0,-1.7867,-1.8419,-1.8991,-1.9919,-2.0583,-2.1055,-2.146,-2.1899,-2.231,0.0,0.0,0.0,0.0,0.0,-0.7957,-0.7793,-0.7511,-0.7915,-0.9609,-1.1466,-1.3188,-1.4629,-1.532,-1.4802,-1.2673,-1.1973,0.0,0.0,0.0,0.0,0.0,0.0,0.0,0.0,0.0,-1.0521,-1.1677,-1.1624,0.0,0.0,0.0,0.0,0.0,0.0,0.0,0.0,0.0,0.0,0.0,0.0,0.0,0.0,0.0,0.0,0.0,0.0,0.0,0.0,0.0,0.0,0.0,0.0,-1.2357,-1.3682,0.0,-1.5545,-1.6083,-1.7679,-1.811,-1.8313,-1.8934,-1.9239,-1.9447,0.0,0.0,0.0,-2.0946,-2.1185,-2.1245,-2.1333,-2.1833,-2.2272,-2.2401,-2.0666,-1.8021,-1.4387,0.0,0.0,0.0,0.0,0.0,0.0,0.0,0.0,-0.8699,-0.8804,-0.9008,-0.9465,-1.0167,-1.0922,-1.1783,-1.2316,-1.2677,-1.2881,-1.2881,-1.3412,-1.4428,-1.4608,-1.526,-1.6238,-1.6423,-1.6522,-1.6522,-1.668,-1.6951,0.0,-1.8066,-1.8574,-1.9006,-2.0093,-2.0715,-2.1071,-2.1598,-2.2032,-2.231,0.0,0.0,0.0,0.0,0.0,0.0,-0.8608,-0.8985,-0.9758,-1.1106,-1.1986,-1.3092,-1.4625,-1.4982,-1.5145,-1.5254,-1.3554,0.0,0.0,0.0,0.0,0.0,0.0,0.0,0.0,0.0,-1.0755,-1.2096,-1.1876,-1.2478,-1.378,0.0,0.0,0.0,0.0,0.0,0.0,0.0,0.0,0.0,0.0,0.0,0.0,0.0,0.0,0.0,0.0,0.0,0.0,0.0,0.0,0.0,0.0,-1.0741,-1.1011,-1.3874,-1.5464,-1.6386,-1.679,-1.7359,-1.7892,-1.83,-1.8855,-1.935,0.0,0.0,0.0,-2.0046,-2.0111,-2.0196,-2.0454,-2.0464,-2.0723,-2.166,-2.0893,-1.8885,-1.5129,0.0,0.0,0.0,0.0,0.0,0.0,0.0,0.0,-0.8752,-0.8804,0.0,-0.8804,-0.9465,-1.0438,-1.1746,-1.1791,-1.2164,-1.2881,-1.2881,-1.3203,-1.3841,-1.44,-1.5025,-1.5632,-1.6238,-1.6522,-1.6522,-1.7076,-1.7312,0.0,-1.8458,-1.8893,-1.9029,-2.0434,-2.1007,-2.1103,-2.1974,-2.2282,-2.231,0.0,0.0,0.0,0.0,0.0,0.0,0.0,-0.8669,-0.9235,-1.099,-1.2056,-1.3467,-1.5657,-1.6035,-1.6372,-1.7025,-1.4863,0.0,0.0,0.0,0.0,0.0,0.0,0.0,0.0,0.0,-1.1164,-1.2516,-1.3561,-1.4049,-1.4019,-1.4442,-1.3936,0.0,0.0,0.0,0.0,0.0,0.0,0.0,0.0,0.0,0.0,0.0,0.0,0.0,0.0,0.0,0.0,0.0,0.0,0.0,0.0,0.0,0.0,-1.0929,-1.1854,-1.3011,-1.4176,-1.4561,-1.4905,-1.5893,-1.6669,-1.7432,-1.8353,0.0,0.0,-1.9779,-1.9964,-2.0067,-2.02,-2.0272,-2.0837,-2.2372,-2.1174,-1.8999,0.0,0.0,0.0,0.0,0.0,0.0,0.0,0.0,-0.7235,-0.7996,-0.8049,-0.8268,-0.8752,-0.9008,-0.974,-1.1065,-1.1545,-1.2164,-1.2881,-1.2881,-1.3412,-1.4428,-1.4608,-1.5203,-1.6238,-1.6782,-1.7034,-1.7076,-1.7626,-1.7626,-1.7394,-1.8458,-1.8688,-1.8521,-2.0317,-2.0991,-2.1103,-2.1991,-2.231,-2.231,0.0,0.0,0.0,0.0,0.0,0.0,0.0,-0.9259,-0.9744,-1.1064,-1.2262,-1.3754,-1.5765,-1.6063,-1.6586,-1.7758,-1.6067,0.0,0.0,0.0,0.0,0.0,0.0,0.0,-1.0699,-1.0959,-1.1814,-1.3281,-1.4326,-1.4791,-1.4815,-1.5413,-1.4852,-1.3388,-1.3387,0.0,0.0,0.0,0.0,0.0,0.0,0.0,-1.7692,0.0,0.0,0.0,0.0,0.0,0.0,0.0,0.0,0.0,0.0,0.0,0.0,0.0,-0.8922,-0.9928,-1.2114,-1.2964,-1.3498,-1.4655,-1.5375,0.0,0.0,0.0,0.0,-1.8347,-1.8802,-1.9209,-1.9471,-1.9703,-2.026,-2.1569,-1.9893,-1.7478,0.0,0.0,0.0,0.0,0.0,0.0,0.0,0.0,-0.619,-0.7235,-0.7557,-0.7841,-0.8222,-0.8521,-0.9103,-1.0078,-1.0802,-1.167,-1.2618,-1.2492,-1.2942,-1.4059,-1.4111,-1.4622,-1.5603,-1.6305,-1.6784,-1.7022,-1.7722,-1.7846,0.0,-1.8765,-1.8991,-1.8835,-2.0385,-2.1086,-2.1306,-2.2032,-2.236,-2.2436,0.0,0.0,0.0,0.0,0.0,0.0,0.0,-1.0433,-1.0948,-1.1261,-1.2559,-1.3887,-1.5085,-1.5271,-1.5981,-1.7665,0.0,0.0,0.0,0.0,0.0,0.0,0.0,0.0,-1.1651,-1.168,-1.2469,-1.4114,-1.4235,-1.4809,-1.5876,-1.6201,-1.5413,-1.3785,-1.4322,-1.3662,0.0,0.0,0.0,0.0,0.0,-1.7176,0.0,0.0,0.0,0.0,0.0,0.0,0.0,0.0,0.0,0.0,0.0,0.0,0.0,0.0,0.0,0.0,0.0,-1.2013,-1.3104,-1.4141,-1.4603,-1.4994,-1.5603,-1.5848,0.0,-1.6152,-1.6967,-1.7868,-1.8554,-1.8844,-1.9153,-1.9648,-1.7446,0.0,0.0,0.0,0.0,0.0,0.0,0.0,0.0,-0.4732,-0.4888,-0.6377,-0.7127,-0.746,-0.7279,-0.7957,-0.8474,-0.8911,-0.9723,-1.0745,-1.211,-1.1785,-1.2043,-1.2967,-1.3128,-1.349,-1.4106,-1.5095,-1.5911,0.0,-1.7514,-1.7978,-1.8154,-1.9266,-1.9681,-1.9677,-2.0667,-2.1275,-2.1672,-2.2163,-2.25,-2.2746,0.0,0.0,0.0,0.0,0.0,0.0,0.0,0.0,0.0,0.0,-1.2261,-1.3245,-1.4195,-1.4901,-1.5994,0.0,0.0,0.0,0.0,0.0,0.0,0.0,0.0,0.0,-1.1309,-1.1371,-1.1701,-1.2324,-1.3495,-1.4199,-1.451,-1.6105,-1.5986,-1.45,-1.5023,-1.4583,0.0,0.0,0.0,0.0,-1.7249,-1.771,0.0,0.0,0.0,0.0,-1.5105,-1.4627,0.0,0.0,0.0,0.0,0.0,0.0,0.0,0.0,-0.5651,-0.6039,-0.7235,0.0,-0.9747,-1.0965,-1.1738,-1.2547,0.0,-1.4752,-1.5456,-1.5958,-1.6604,-1.7581,-1.9163,-1.8631,-1.8172,-1.8854,-1.6363,-1.3496,-1.1082,0.0,0.0,0.0,0.0,0.0,0.0,-0.3505,-0.3955,-0.5325,-0.5626,-0.6156,-0.7097,-0.7324,-0.7911,-0.9013,-0.9231,-0.9943,-1.1112,-1.1443,-1.1948,-1.2617,-1.3022,-1.3696,-1.4647,-1.5668,-1.6379,-1.6867,-1.7598,-1.792,-1.8055,-1.914,-1.9621,-1.9713,-2.0975,-2.1668,-2.2029,-2.2449,-2.2815,-2.3069,0.0,0.0,0.0,0.0,0.0,0.0,0.0,0.0,0.0,0.0,0.0,-1.2875,-1.3349,-1.4535,0.0,0.0,0.0,0.0,0.0,0.0,0.0,0.0,0.0,-1.1964,-1.1412,-1.163,-1.1775,-1.1775,-1.237,-1.2862,-1.3288,-1.474,-1.5107,-1.459,-1.4695,-1.4326,0.0,0.0,0.0,0.0,-1.6936,0.0,0.0,0.0,0.0,0.0,-1.4433,-1.3631,0.0,-1.0194,-0.9177,-0.8389,0.0,0.0,0.0,0.0,-0.3135,-0.3576,-0.448,-0.6476,-0.8577,-0.9743,-1.0485,-1.1216,-1.2295,-1.297,-1.3478,-1.3916,-1.4831,-1.559,-1.5841,-1.5125,-1.4309,0.0,-1.0977,0.0,0.0,0.0,0.0,0.0,0.0,0.0,0.0,0.0,-0.3061,-0.4105,-0.4747,-0.5344,-0.5971,-0.6557,-0.7144,-0.7757,-0.8524,-0.9523,-1.0834,-1.0944,-1.1479,-1.2439,-1.2525,-1.3208,-1.441,-1.5148,-1.5857,-1.657,-1.7117,-1.7625,-1.8108,-1.9088,-1.9718,-2.0113,-2.1175,-2.1931,-2.2398,-2.2626,-2.3021,-2.3437,0.0,0.0,0.0,0.0,0.0,0.0,0.0,0.0,0.0,0.0,0.0,0.0,0.0,0.0,0.0,0.0,0.0,0.0,0.0,0.0,0.0,0.0,-1.3548,-1.2963,-1.1742,-1.1921,-1.1779,-1.1368,-1.0634,-1.0708,-1.1597,-1.2647,-1.3696,-1.4677,-1.4211,-1.3793,0.0,0.0,0.0,-1.6327,-1.6188,0.0,0.0,0.0,0.0,0.0,0.0,0.0,0.0,-0.9337,-0.7435,-0.5415,-0.1499,0.0,0.0,0.0,0.0,0.0,-0.1882,-0.4477,-0.7251,-0.906,-0.9744,-1.0159,-1.0849,-1.1134,-1.138,-1.1734,-1.2644,-1.2913,-1.1462,-1.0445,0.0,0.0,0.0,0.0,0.0,0.0,0.0,0.0,0.0,0.0,-0.1952,-0.1886,-0.2175,-0.2965,-0.408,-0.4693,-0.4638,-0.5774,-0.639,-0.6313,-0.7805,-0.9239,-1.0656,-1.0428,-1.0909,-1.2174,-1.2,-1.2598,-1.3888,-1.4374,-1.5128,-1.6068,-1.6498,0.0,-1.8115,-1.8936,-1.9778,-2.0574,-2.1317,-2.2084,-2.2797,-2.2848,-2.3259,-2.3842,0.0,0.0,0.0,0.0,0.0,0.0,0.0,0.0,0.0,0.0,0.0,0.0,0.0,0.0,0.0,0.0,0.0,0.0,0.0,0.0,0.0,-1.6138,-1.506,-1.3822,-1.24,-1.1267,-1.0099,-0.8849,-0.7231,-0.6872,-0.7788,-1.0381,-1.3153,-1.5976,-1.5042,-1.452,-1.4351,-1.515,-1.5555,-1.5672,-1.5984,0.0,0.0,0.0,0.0,0.0,0.0,0.0,0.0,-0.785,-0.5395,-0.3729,-0.1078,0.0,0.0,0.0,0.0,0.0,0.1159,0.0324,-0.1446,-0.6768,-0.7894,-0.8025,-0.9239,-1.0368,-1.1351,-1.2128,-1.1518,-1.0749,-1.0366,-0.7564,-0.4541,0.0,0.0,0.0,0.0,0.0,0.0,0.0,0.0,-0.0436,-0.1057,-0.1071,-0.1547,-0.268,-0.2951,-0.3478,-0.4389,-0.5095,-0.5913,-0.6833,-0.7624,-0.8561,-0.9716,-1.0078,-1.0613,-1.1227,-1.1959,-1.2842,-1.3854,-1.4631,-1.5313,-1.5876,0.0,-1.6879,-1.7494,-1.8381,-1.9428,-2.0582,-2.1309,-2.2223,-2.3165,-2.3437,-2.3903,-2.4408,0.0,0.0,0.0,0.0,0.0,0.0,0.0,0.0,0.0,0.0,0.0,0.0,0.0,0.0,0.0,0.0,0.0,0.0,0.0,0.0,0.0,-1.7134,-1.6747,-1.5447,-1.3079,-1.0888,-0.8612,-0.6253,-0.3681,-0.3072,-0.4454,-0.9186,-1.2658,-1.4948,-1.4741,-1.4602,-1.4515,-1.5047,-1.537,-1.5472,0.0,0.0,0.0,0.0,0.0,0.0,0.0,0.0,0.0,0.0,-0.2252,-0.0363,0.1964,0.0,0.0,0.0,0.0,0.0,0.4689,0.4165,0.3232,0.164,-0.1951,-0.5786,-0.8479,-1.0354,-1.1822,-1.2889,-1.1516,-0.9334,-0.6739,0.0,-0.0122,0.3232,0.0,0.0,0.0,0.0,0.0,0.0,0.0,0.0236,-0.037,-0.0725,-0.1118,-0.1697,-0.2317,-0.294,-0.3473,-0.4336,-0.5203,-0.6035,-0.6961,-0.7934,-0.9039,-0.9855,-1.0667,-1.1431,-1.208,-1.3039,-1.4205,-1.4831,-1.5359,-1.5814,0.0,-1.6635,-1.7117,-1.8092,-1.9036,-1.9967,-2.1135,-2.2187,-2.3089,-2.3971,-2.4503,-2.4776,0.0,0.0,0.0,0.0,0.0,0.0,0.0,0.0,0.0,0.0,0.0,0.0,0.0,0.0,0.0,0.0,0.0,0.0,0.0,0.0,-1.9055,-1.7807,-1.6603,-1.4776,-1.2229,-0.9478,-0.6125,-0.2096,0.0776,0.0729,-0.2265,-0.8077,-1.1899,-1.3939,-1.4553,-1.4966,-1.5184,-1.5224,-1.5435,-1.5726,0.0,0.0,0.0,0.0,0.0,0.0,0.0,0.0,0.0,0.0,0.0,0.0,0.0,0.0,0.0,0.5015,0.5584,0.6542,0.7472,0.7046,0.6798,0.8841,0.3758,-0.2469,-0.5331,-0.7588,-0.9399,-1.0652,-0.9047,-0.6186,-0.2111,0.1476,0.0,0.796,0.0,0.0,0.0,0.0,0.0,0.0,0.1079,0.065,0.0045,-0.0403,-0.0761,-0.0895,-0.1739,-0.241,-0.2684,-0.3759,-0.4675,-0.5277,-0.636,-0.7491,-0.8675,-0.9391,-1.0421,-1.1811,-1.2425,-1.3344,-1.4533,-1.512,-1.558,-1.5926,-1.634,-1.667,-1.6975,-1.7881,-1.866,-1.9438,-2.0691,-2.1882,-2.3047,-2.4151,-2.4752,-2.5037,0.0,0.0,0.0,0.0,0.0,0.0,0.0,0.0,0.0,0.0,0.0,0.0,0.0,0.0,0.0,0.0,0.0,0.0,0.0,0.0,-1.9283,-1.8553,-1.283,-0.9223,-0.8317,-0.5976,-0.1571,0.4948,0.6868,0.4431,-0.2107,-0.6422,-1.0483,-1.421,-1.5393,-1.6395,-1.7124,-1.6034,-1.6024,-1.6593,-1.5102,0.0,0.0,0.0,0.0,0.0,0.0,0.0,0.0,0.0,0.0,0.0,0.0,0.0,0.6403,0.5953,0.6949,0.8269,0.8605,0.8588,0.8838,1.0309,0.6817,0.2982,0.2898,0.1091,-0.0973,-0.2372,-0.1135,0.088,0.0,0.7571,1.0904,0.0,0.0,0.0,0.0,0.0,0.3847,0.2716,0.1567,0.0674,0.0045,-0.0045,-0.0314,-0.0851,-0.0984,-0.152,-0.264,-0.377,-0.4696,-0.5305,-0.6155,-0.7303,-0.8675,-0.8454,-0.9498,-1.1811,-1.3073,-1.3985,-1.4533,-1.5695,-1.6231,-1.6301,-1.6952,-1.7248,-1.7296,-1.7685,-1.8427,-1.9356,-1.9759,-2.1297,-2.3297,-2.3721,-2.439,-2.5114,0.0,0.0,0.0,0.0,0.0,0.0,0.0,0.0,0.0,0.0,0.0,0.0,0.0,0.0,0.0,0.0,0.0,0.0,0.0,-1.8572,-1.8838,-1.9215,-1.265,-0.5709,0.135,0.2677,0.5164,0.894,0.8445,0.5149,-0.0855,-0.5176,-0.9521,-1.3697,-1.4869,-1.6144,-1.7345,-1.6643,-1.6514,-1.6683,-1.5338,-1.3121,0.0,0.0,0.0,0.0,0.0,0.0,0.0,0.0,0.6754,0.7327,0.7034,0.7245,0.7503,0.6979,0.7699,0.8756,0.9227,1.0444,1.1778,1.268,1.1686,1.0234,0.9394,0.5165,0.1354,0.1111,0.1098,0.2269,0.0,0.0,1.1775,0.0,0.0,0.0,0.0,0.6844,0.5455,0.3948,0.3005,0.2002,0.0672,0.0895,0.085,0.0268,-0.0134,-0.067,-0.1435,-0.2565,-0.3735,-0.4848,-0.5181,-0.6225,-0.8007,-0.8415,-0.9506,-1.1189,-1.2631,-1.3717,-1.4533,-1.5551,-1.608,-1.6328,-1.6773,-1.7101,-1.7344,-1.7827,-1.8381,-1.8986,-2.014,-2.184,-2.3638,-2.3941,-2.4579,-2.5299,0.0,0.0,0.0,0.0,0.0,0.0,0.0,0.0,0.0,0.0,0.0,0.0,0.0,0.0,0.0,0.0,0.0,0.0,-1.7417,-1.7686,-1.7939,-1.8305,-1.0493,-0.2268,0.5987,0.9708,1.2102,1.3179,1.1152,0.6844,0.0445,-0.4459,-0.9107,-1.3439,-1.458,-1.6174,-1.7924,-1.7066,-1.6987,-1.7308,-1.5887,-1.3517,0.0,0.0,0.0,0.0,0.0,0.0,0.0,0.0,0.8168,0.7902,0.798,0.8177,0.8312,0.7927,0.8614,0.9662,1.0437,1.1444,1.2613,1.4142,1.4044,1.3449,1.2969,0.892,0.5262,0.5168,0.4562,0.5148,0.8814,0.0,0.0,0.0,0.0,0.0,0.9334,0.8359,0.7086,0.5371,0.4504,0.3353,0.1647,0.1804,0.1747,0.1184,0.0697,0.0132,-0.0494,-0.164,-0.2859,-0.4168,-0.4687,-0.5789,-0.7561,-0.8311,-0.9478,-1.096,-1.2102,-1.3182,-1.4207,-1.5291,-1.596,-1.6291,-1.6871,-1.7264,-1.7486,-1.798,-1.8415,-1.8913,-2.0191,-2.1646,-2.3076,-2.3602,-2.4328,-2.51,0.0,0.0,0.0,0.0,0.0,0.0,0.0,0.0,0.0,0.0,0.0,0.0,0.0,0.0,0.0,0.0,0.0,0.0,-1.5606,-1.6546,-1.6634,-1.5645,-0.5514,0.1315,0.3881,1.3995,1.8863,1.8091,1.5695,1.0115,0.1558,-0.4294,-0.9346,-1.3623,-1.473,-1.6723,-1.9186,-1.7281,-1.7412,-1.8629,-1.6769,-1.4809,-1.2226,0.0,0.0,0.0,0.0,0.0,0.0,0.0,0.8665,0.8614,0.9126,0.9078,0.8817,0.8731,0.979,1.1237,1.2366,1.1387,1.086,1.4328,1.3152,1.1582,1.3251,1.2879,1.1831,1.0487,1.0215,1.0512,1.1513,1.174,0.0,0.0,0.0,0.0,1.0983,1.0002,0.8692,0.7004,0.587,0.4543,0.2876,0.2554,0.2204,0.1635,0.1408,0.0886,-0.0134,-0.1201,-0.2239,-0.3274,-0.4841,-0.6268,-0.7488,-0.8015,-0.9295,-1.13,-1.1706,-1.2471,-1.3553,-1.5088,-1.594,-1.6236,-1.7322,-1.7794,-1.7816,-1.8103,-1.8608,-1.9261,-1.9651,-2.0421,-2.1444,-2.2506,-2.3494,-2.4413,0.0,0.0,0.0,0.0,0.0,0.0,0.0,0.0,0.0,0.0,0.0,0.0,0.0,0.0,0.0,0.0,0.0,0.0,-1.6096,-1.6103,-1.6063,-1.6095,-0.528,0.2548,0.6418,1.282,1.598,1.5647,1.203,0.6712,-0.0093,-0.4911,-0.924,-1.3024,-1.4524,-1.647,-1.8515,-1.7498,-1.7895,-1.909,-1.7752,-1.4956,-1.1031,0.0,0.0,0.0,0.0,0.0,0.0,0.0,0.0,0.0,0.9093,0.9602,1.0165,0.9193,0.9712,1.0577,1.0521,1.1705,1.3079,1.3597,1.4416,1.4986,1.4483,1.3459,1.2374,1.1511,1.1567,1.1762,1.1771,0.0,0.0,0.0,0.0,0.0,1.1995,1.0833,0.9596,0.8652,0.732,0.5848,0.4332,0.3864,0.3337,0.2574,0.2156,0.1554,0.0621,-0.0439,-0.1589,-0.2826,-0.395,-0.5229,-0.6711,-0.7694,-0.8973,-1.0599,-1.1395,-1.2366,-1.3538,-1.4313,-1.5037,-1.5646,-1.5967,-1.6638,-1.7584,-1.852,-1.9179,-1.9651,-1.9922,-2.0632,-2.1568,-2.1974,-2.3056,-2.4334,0.0,0.0,0.0,0.0,0.0,0.0,0.0,0.0,0.0,0.0,-1.2687,-1.3118,0.0,0.0,0.0,0.0,0.0,0.0,-1.5523,-1.5296,-1.5063,-1.4958,-0.5474,0.271,0.8895,1.2391,1.3528,1.234,0.9307,0.5068,-0.027,-0.5934,-1.017,-1.3038,-1.4816,-1.6503,-1.8021,-1.7569,-1.7974,-1.8861,-1.7997,-1.5958,-1.2783,0.0,0.0,0.0,0.0,0.0,0.0,0.0,0.0,0.0,0.9417,0.991,1.0571,1.0225,1.0784,1.1658,1.226,1.3467,1.4643,1.4995,1.561,1.5929,1.5217,1.3799,0.0,0.0,1.2417,1.2422,1.2376,1.2354,0.0,0.0,1.2544,1.2461,1.272,1.1667,1.0545,0.978,0.8525,0.7134,0.5627,0.5049,0.4484,0.3707,0.3204,0.255,0.1676,0.0634,-0.0525,-0.1871,-0.3395,-0.4809,-0.6103,-0.7756,-0.9148,-1.0307,-1.1254,-1.2258,-1.3281,-1.3965,-1.4599,-1.518,-1.5564,-1.6448,-1.7691,-1.8429,-1.921,-1.9945,-2.0055,-2.0525,-2.1178,-2.1637,-2.2429,-2.3368,0.0,0.0,0.0,0.0,0.0,0.0,0.0,0.0,0.0,-1.237,-1.1665,-1.1742,0.0,0.0,0.0,-1.4709,-1.4054,-1.3768,-1.4281,-1.4351,-1.3934,-1.3023,-0.6029,0.1933,1.0631,1.1861,1.1138,0.8461,0.739,0.4744,0.052,-0.6779,-1.1224,-1.3214,-1.5003,-1.6388,-1.7419,-1.7243,-1.7541,-1.8084,-1.764,-1.7179,-1.5846,-0.7577,0.0,0.0,0.0,0.0,0.0,0.0,0.0,0.0,0.9895,1.0059,1.0431,1.1347,1.2366,1.3623,1.5695,1.5709,1.5588,1.7431,1.6555,1.5321,1.5586,1.4156,1.2836,1.3254,0.0,1.2756,1.3185,1.3232,1.3198,1.3198,1.3198,1.3198,1.3198,1.2437,0.0,0.0,0.9554,0.8316,0.6824,0.6145,0.5528,0.4942,0.4412,0.3714,0.2841,0.1911,0.0802,-0.053,-0.3043,-0.4784,-0.5619,-0.808,-0.9665,-1.0379,-1.1373,-1.2231,-1.3004,-1.3884,-1.4469,-1.4827,-1.5778,-1.6805,-1.784,-1.8001,-1.8833,-1.9991,-2.0096,-2.0246,-2.0492,-2.1363,-2.1698,-2.1926,0.0,0.0,0.0,0.0,0.0,0.0,0.0,0.0,-1.2753,-1.218,-1.205,-1.2229,-1.2858,-1.2539,0.0,-1.365,-1.3413,-1.3372,-1.3757,-1.3856,-1.3831,-1.3625,-0.6951,0.0278,0.7817,0.7491,0.6562,0.5281,0.6097,0.4413,0.037,-0.4129,-0.799,-1.1256,-1.2106,-1.3548,-1.5246,-1.4854,-1.5775,-1.743,-1.6708,-1.5166,-1.2823,-0.8606,-0.4693,0.0,0.0,0.0,0.0,0.0,0.0,0.0,0.9402,1.0283,1.1282,1.0467,1.1521,1.2942,1.2815,1.4114,1.5609,1.6157,1.6337,1.631,1.6099,1.5242,1.4418,1.4264,1.3888,1.3635,1.3735,1.3459,1.3198,1.3198,1.3198,1.3198,0.0,0.0,0.0,0.0,0.0,0.0,0.0,0.7103,0.6279,0.5624,0.5194,0.4564,0.3689,0.2787,0.1696,0.0361,-0.2165,-0.405,-0.5226,-0.7887,-0.9779,-1.0858,-1.217,-1.3059,-1.3534,-1.3529,-1.3887,-1.4556,-1.5647,-1.6276,-1.6613,-1.8036,-1.8818,-1.9164,-2.0056,-2.0404,-2.0429,-2.0692,-2.1177,-2.1753,0.0,0.0,0.0,0.0,0.0,0.0,0.0,0.0,-1.3476,-1.2372,-1.2083,-1.1955,-1.1944,-1.1547,0.0,0.0,-1.2559,-1.2794,-1.3456,-1.3732,-1.3008,-1.1147,-0.7116,-0.2392,0.3017,0.4138,0.4733,0.4842,0.5875,0.4335,0.0314,-0.2297,-0.5265,-0.8417,-1.025,-1.1873,-1.3256,-1.3882,-1.497,-1.6254,-1.5779,-1.4666,-1.2902,-0.9178,-0.6037,-0.3072,0.1044,0.0,0.0,0.0,0.0,0.0,0.0,0.0,1.1084,1.0914,1.1672,1.2743,1.3618,1.4905,1.6147,1.6799,1.6864,1.67,1.6533,1.6059,1.5521,1.518,1.447,1.3901,1.3901,1.3514,1.3198,0.0,0.0,0.0,0.0,0.0,0.0,0.0,0.0,0.0,0.0,0.0,0.0,0.0,0.0,0.5897,0.485,0.4167,0.2993,0.1271,-0.1436,-0.3673,-0.5315,-0.8297,-1.0274,-1.1299,-1.2745,-1.3696,-1.4178,-1.4007,-1.4192,-1.4664,-1.5262,-1.5805,-1.6347,-1.7714,-1.8551,-1.9047,-2.0059,-2.0435,-2.0402,-2.0437,-2.0694,-2.1088,0.0,0.0,0.0,0.0,0.0,0.0,0.0,0.0,0.0,-1.2668,-1.2216,-1.1786,-1.1237,-1.0593,-1.0522,0.0,0.0,0.0,-1.3113,-1.365,-1.2513,-0.9293,-0.7895,-0.539,-0.1511,0.1373,0.363,0.5223,0.5838,0.4576,0.1581,-0.0139,-0.2327,-0.491,-0.7948,-1.0049,-1.1355,-1.2786,-1.3883,-1.4654,-1.442,-1.4121,-1.338,-0.9457,-0.7145,-0.5511,-0.1851,0.0606,0.2176,0.2532,0.0,0.0,0.0,0.0,1.055,1.1399,1.1882,1.2623,1.4816,1.5829,1.6571,1.7867,1.7585,0.0,1.6917,1.667,1.6367,1.6039,1.4984,1.4117,0.0,0.0,0.0,0.0,0.0,0.0,0.0,0.0,0.0,0.0,0.0,0.0,0.0,0.0,0.0,0.0,0.0,0.7309,0.619,0.5748,0.461,0.2603,-0.0649,-0.3257,-0.5089,-0.8773,-1.0995,-1.1769,-1.3251,-1.421,-1.4688,-1.466,-1.4755,-1.494,-1.4952,-1.5427,-1.6253,-1.713,-1.8045,-1.8964,-1.9812,-2.0243,-2.0381,-2.0319,-2.0293,-2.0356,0.0,0.0,0.0,0.0,0.0,0.0,0.0,0.0,0.0,0.0,-1.3207,-1.3136,-1.1701,-1.0449,-0.9817,-1.0091,-1.0787,-1.151,-1.2228,0.0,0.0,-1.3408,-1.1507,-0.7871,-0.2347,-0.1138,0.1127,0.453,0.4861,0.5688,0.0,0.0,0.1742,-0.0388,-0.302,-0.619,-0.9522,-0.9353,-1.0576,-1.2537,-1.1882,-1.14,-1.0885,-0.9583,-0.8455,-0.7415,-0.6031,-0.4264,-0.2244,0.0076,0.2786,0.0,0.0,0.0,1.0306,1.0212,1.1015,1.1975,1.2162,1.3924,1.6111,1.7766,1.7932,1.7589,0.0,0.0,1.7076,0.0,1.5752,0.0,0.0,0.0,0.0,0.0,0.0,0.0,0.0,0.0,0.0,0.0,0.0,0.0,0.0,0.0,0.0,0.0,0.8811,0.828,0.7498,0.732,0.662,0.5241,0.0632,-0.2256,-0.3179,-0.8738,-1.18,-1.2403,-1.3879,-1.459,-1.4619,-1.4771,-1.4934,-1.5071,-1.5119,-1.5247,-1.5428,-1.6308,-1.7185,-1.8058,-1.8808,-1.96,-2.03,-2.0058,-2.0001,-2.0041,0.0,0.0,0.0,0.0,0.0,0.0,0.0,0.0,0.0,0.0,0.0,-1.2843,-1.1559,-1.026,-0.9638,-1.0033,-1.0689,-1.1499,-1.2428,-1.392,-1.4296,-1.324,-1.03,-0.7264,-0.4197,0.014,0.347,0.5684,0.6403,0.7768,0.0,0.7506,0.5649,0.0,0.1307,-0.1948,-0.5497,-0.7181,-0.9162,-1.1128,-1.0465,-1.0846,-1.1639,-1.032,-0.9605,-0.9173,-0.8145,-0.6788,-0.5149,-0.3058,0.0137,0.3637,0.5846,0.0,0.0,0.0,1.0379,1.1124,1.2722,1.441,1.615,0.0,1.798,1.7479,1.7344,0.0,1.6747,0.0,0.0,0.0,0.0,0.0,0.0,0.0,0.0,0.0,0.0,0.0,0.0,0.0,0.0,0.0,0.0,0.0,0.0,0.0,0.9997,0.953,0.8636,0.8387,0.77,0.6461,0.2662,-0.0486,-0.2833,-0.8207,-1.1515,-1.2746,-1.3805,-1.4206,-1.4051,-1.4127,-1.4474,-1.4998,-1.5018,-1.5038,-1.5094,-1.6006,-1.6841,-1.76,-1.8458,-1.9287,-2.002,-1.9884,-1.9858,-1.988,0.0,0.0,0.0,0.0,0.0,0.0,0.0,0.0,0.0,0.0,0.0,-1.1548,-1.0299,0.0,0.0,0.0,-0.9055,-1.0326,-1.2293,-1.3564,-1.3683,-1.2431,-0.876,-0.6065,-0.4619,0.1622,0.5652,0.7242,0.8014,0.0,1.103,0.9804,0.8795,0.0,0.5256,0.1884,0.0,0.0,-0.6866,-0.949,-0.9625,-1.0764,-1.2221,-1.0789,-1.0379,-1.0438,-0.9123,-0.7941,-0.6762,-0.5223,-0.2008,0.1748,0.4149,0.6284,0.0,0.0,0.0,1.0455,1.3133,1.4298,1.5262,1.7453,1.7463,1.699,0.0,0.0,1.6738,0.0,0.0,0.0,0.0,0.0,0.0,0.0,0.0,0.0,0.0,0.0,0.0,0.0,0.0,0.0,0.0,0.0,0.0,0.0,1.1214,1.0811,0.992,0.9776,0.9082,0.7739,0.4643,0.133,-0.2176,-0.7651,-1.1081,-1.243,-1.3178,-1.3404,-1.3174,-1.321,-1.36,-1.4221,-1.4455,-1.4573,-1.4695,-1.5403,-1.6259,-1.7213,-1.7863,-1.8715,-1.9582,-1.9511,-1.9529,-1.9537,0.0,0.0,0.0,0.0,0.0,0.0,0.0,0.0,0.0,0.0,0.0,-0.914,-0.725,-0.3921,-0.2237,-0.3289,-0.4449,-0.6901,-1.1094,-1.1335,-1.1609,-1.2288,-0.865,0.0,-0.215,0.1888,0.551,0.8682,0.8678,0.0,1.1182,1.066,1.0749,1.1243,0.8869,0.4858,-0.0084,0.0,0.0,-0.7176,-0.932,-1.0615,-1.1203,-1.0543,0.0,0.0,0.0,0.0,0.0,0.0,-0.3092,-0.0144,0.3277,0.5377,0.6906,0.0,0.0,0.0,1.1929,1.2112,0.0,1.564,1.6151,1.6132,0.0,0.0,0.0,0.0,0.0,0.0,0.0,0.0,0.0,0.0,0.0,0.0,0.0,0.0,0.0,0.0,0.0,0.0,0.0,0.0,0.0,0.0,1.2505,1.2072,1.1506,1.194,1.1406,0.9623,0.6193,0.2865,-0.0308,-0.7217,-1.083,-1.1122,-1.1914,-1.2199,-1.1987,-1.2177,-1.2297,-1.2396,-1.3206,-1.3728,-1.3962,-1.3992,-1.5079,-1.672,-1.6581,-1.7548,-1.8999,-1.8753,-1.8753,-1.8837,0.0,0.0,0.0,0.0,0.0,0.0,0.0,0.0,0.0,0.0,0.0,0.0,0.0,-0.3549,-0.2304,-0.2639,-0.4573,-0.6417,-0.798,-0.9582,-1.0441,-1.0438,-0.6037,-0.2716,-0.0853,0.4472,0.8,0.9569,0.8987,0.9177,1.0106,0.9978,0.9872,0.9811,1.0135,0.7696,0.3342,0.3508,0.0,0.0,0.0,-0.6109,-0.8414,0.0,0.0,0.0,0.0,0.0,0.0,0.0,0.0,0.0,0.2105,0.3816,0.5341,0.7567,0.8853,0.9926,0.0,0.0,0.0,1.4518,1.561,1.6168,1.637,0.0,0.0,0.0,0.0,0.0,0.0,0.0,0.0,0.0,0.0,0.0,0.0,0.0,0.0,0.0,0.0,0.0,0.0,0.0,0.0,0.0,0.0,1.2753,1.2272,1.1608,1.0778,0.9732,0.7987,0.4432,-0.1039,-0.582,-0.8483,-0.9094,-1.029,-1.0756,-1.0555,-1.0846,-1.0982,-1.1005,-1.1319,-1.1955,-1.2823,-1.2823,-1.3905,-1.5539,-1.5466,-1.6526,-1.8091,-1.7997,-1.7994,-1.8061,0.0,0.0,0.0,0.0,0.0,0.0,0.0,0.0,0.0,-0.7115,0.0,0.0,0.0,0.0,0.0282,0.0009,-0.2175,-0.4073,-0.531,-0.734,-0.8761,-0.9362,-0.4211,-0.0991,-0.0248,0.5916,0.9466,1.0135,0.9352,0.923,0.9733,0.9693,0.9476,0.9188,1.0387,0.9216,0.0,0.0,0.0,-0.1186,0.0,0.0,-0.6122,0.0,0.0,0.0,0.0,0.0,0.0,0.0,0.0,0.0,0.0,0.0,0.0,0.0,0.0,0.9153,1.0176,1.0458,0.0,0.0,0.0,1.4677,1.5782,0.0,0.0,0.0,0.0,0.0,0.0,0.0,0.0,0.0,0.0,0.0,0.0,0.0,0.0,0.0,0.0,0.0,0.0,0.0,0.0,0.0,0.0,0.0,1.2997,1.1942,1.064,0.9109,0.7442,0.3931,-0.157,-0.4528,-0.642,-0.7275,-0.8766,-0.94,-0.9277,-0.9625,-0.9805,-0.9805,-0.9805,-1.0606,-1.1911,-1.2102,-1.3057,-1.4475,-1.4655,-1.5628,-1.6929,-1.7075,-1.7139,-1.7186,0.0,0.0,0.0,0.0,0.0,0.0,0.0,0.0,0.1941,-0.4494,0.0,0.0,0.0,0.0,0.0,0.5046,0.3128,0.0423,-0.3256,-0.4603,-0.6463,-0.9189,-0.3457,-0.02,-0.0207,0.5977,0.9606,1.0435,0.9813,0.975,1.0184,0.9932,0.9802,0.9777,0.9778,0.933,0.8617,0.0,0.613,0.0826,0.0,-0.1354,-0.4379,0.0,0.0,0.0,-0.3512,-0.2716,0.0,0.0,0.0,0.0,0.0,0.0,0.0,0.0,0.0,0.783,0.0,0.0,0.0,0.0,0.0,0.0,0.0,0.0,0.0,0.0,0.0,0.0,0.0,0.0,0.0,0.0,0.0,0.0,0.0,0.0,0.0,0.0,0.0,0.0,0.0,0.0,0.0,0.0,1.4709,1.4325,1.3695,1.3036,1.113,0.7861,0.4483,0.1344,-0.1558,-0.3425,-0.4823,-0.5739,-0.7346,-0.8122,-0.815,-0.8546,-0.875,-0.8761,-0.8761,-0.9703,-1.1273,-1.1793,-1.2617,-1.361,-1.4145,-1.4809,-1.5544,-1.5982,-1.615,-1.6219,0.0,0.0,0.0,0.0,0.0,1.3312,0.9534,0.6832,0.4092,0.0,0.0,0.0,0.4442,0.6577,0.7472,0.663,0.4678,0.2225,-0.0803,-0.3109,-0.5163,-0.693,-0.2646,0.0549,0.2121,0.6877,1.0051,1.1481,1.0346,0.985,0.9982,0.9859,0.9646,0.9358,0.926,0.8851,0.8268,0.8579,0.0,0.0,0.3777,0.2563,0.0,0.0,0.0,0.0,0.0,-0.0146,0.0,0.0,0.0335,0.0819,0.0,0.0,0.0,0.0,0.0,0.6672,0.6923,0.0,0.0,0.0,0.0,0.0,0.0,0.0,0.0,0.0,0.0,0.0,0.0,0.0,0.0,0.0,0.0,0.0,0.0,0.0,0.0,0.0,0.0,0.0,0.0,0.0,0.0,0.0,1.4496,1.3934,1.3229,1.063,0.8334,0.6483,0.4576,0.288,0.1423,-0.1634,-0.351,-0.4168,-0.5703,-0.6473,-0.649,-0.7172,-0.7694,-0.7993,-0.7993,-0.8579,-0.9518,-1.0008,-1.1004,-1.2273,-1.2714,-1.3653,-1.4774,-1.4911,-1.4986,-1.5032,0.0,0.0,1.2583,1.6827,1.6132,1.4084,1.1399,0.8789,0.6446,0.0,0.0,0.0,0.7647,0.889,0.9096,0.8042,0.6185,0.3865,0.1012,-0.1724,-0.4018,-0.5775,-0.2333,0.0671,0.2875,0.6792,0.9845,1.1929,1.064,0.9987,0.9991,0.9967,0.982,0.957,0.9438,0.9096,0.8632,0.0,0.0,0.0,0.584,0.0,0.0,0.4079,0.3675,0.0,0.0,0.0,0.1658,0.1675,0.1897,0.0,0.0,0.0,0.0,0.0,0.0,0.566,0.5485,0.5391,0.5442,0.0,0.0,0.0,0.0,1.2335,0.0,0.0,0.0,0.0,0.0,0.0,0.0,0.0,0.0,0.0,0.0,0.0,0.0,0.0,0.0,0.0,0.0,1.5018,1.4908,1.4745,1.4159,1.3229,1.1902,0.9193,0.7034,0.5651,0.44,0.3141,0.1908,-0.0922,-0.2619,-0.3171,-0.4784,-0.5552,-0.5567,-0.6416,-0.6943,-0.7207,-0.7384,-0.7813,-0.8437,-0.9056,-1.0015,-1.1179,-1.1844,-1.2734,-1.3696,-1.3835,-1.4057,-1.431,0.0,0.0,1.6921,1.7934,1.7155,1.5428,1.2712,1.0667,0.8865,0.0,0.6722,0.7522,1.041,1.0923,1.0509,0.913,0.7455,0.5208,0.2221,-0.0498,-0.2967,-0.5195,-0.2315,0.0385,0.2577,0.6007,0.91,1.181,1.0632,1.0059,1.0094,1.0157,1.0141,1.0113,0.9971,0.9748,0.9386,0.8503,0.0,0.6712,0.7179,0.6565,0.0,0.0,0.6197,0.0,0.4641,0.386,0.3066,0.3608,0.3796,0.0,0.0,0.0,0.0,0.0,0.4751,0.4942,0.381,0.3678,0.3932,0.0,0.0,0.0,1.0242,1.1476,0.0,0.0,0.0,0.0,0.0,0.0,0.0,0.0,0.0,0.0,0.0,0.0,0.0,0.0,0.0,0.0,1.5041,1.4839,1.4619,1.438,1.3575,1.2171,1.0076,0.828,0.6631,0.511,0.3985,0.2656,0.1103,-0.0696,-0.1958,-0.2702,-0.421,-0.4985,-0.5149,-0.5929,-0.6336,-0.6457,-0.685,-0.7262,-0.7747,-0.8579,-0.944,-1.0409,-1.1333,-1.1993,-1.2461,-1.281,-1.3302,-1.3789,0.8995,1.264,1.587,1.7252,1.6391,1.5059,1.3666,1.2106,1.0967,1.073,1.0934,1.1488,1.2553,1.1567,1.0411,0.9259,0.7816,0.5581,0.2362,0.0429,-0.1628,-0.3937,-0.2037,0.0042,0.2089,0.4929,0.7746,1.0544,1.0024,0.9895,1.0094,1.0005,1.0037,1.0176,1.0093,0.993,0.9669,0.0,0.0,0.8373,0.7946,0.0,0.6719,0.7997,0.7682,0.6553,0.647,0.5725,0.4882,0.0,0.5823,0.6058,0.0,0.0,0.0,0.0,0.0,0.0,0.0,0.0,0.0,0.0,0.0,0.0,0.0,0.8121,0.0,0.0,0.0,0.0,0.0,0.0,0.0,0.0,0.0,0.0,0.0,0.0,0.0,0.0,0.0,0.0,1.4721,1.437,1.4005,1.3636,1.2146,1.0416,0.8605,0.6949,0.5485,0.4264,0.334,0.269,0.2356,0.0566,-0.1136,-0.2706,-0.3035,-0.3681,-0.4561,-0.4858,-0.5352,-0.6037,-0.6321,-0.6679,-0.7132,-0.7877,-0.9043,-1.0428,-1.0946,-1.1468,-1.1957,-1.2006,-1.2366,-1.2766,1.1536,1.3839,1.5862,1.7454,1.6767,1.5811,1.5274,1.3871,1.2733,1.2468,1.2573,1.2602,1.2405,1.1266,0.9944,0.8586,0.7732,0.6197,0.3554,0.2069,0.0256,-0.2051,-0.1633,-0.029,0.1997,0.3896,0.6507,0.9898,0.9642,0.9631,0.9904,0.9694,1.0013,1.0722,1.002,1.0044,0.0,0.0,0.8461,0.8543,0.8297,0.0,0.7821,0.8523,0.8406,0.775,0.6917,0.641,0.6193,0.6607,0.6877,0.0,0.0,0.7429,0.7306,0.0,0.5629,0.5661,0.0,0.0,0.0,0.2725,0.0,0.0,0.0,0.0,0.0,0.0,0.0,0.0,0.0,0.0,0.0,0.0,0.0,0.0,0.0,0.0,0.0,0.0,0.0,0.0,1.4195,1.3879,1.338,1.2606,1.1255,0.9856,0.8466,0.6936,0.5548,0.4328,0.3803,0.329,0.27,0.1338,-0.0033,-0.1348,-0.1968,-0.2721,-0.3565,-0.4086,-0.4731,-0.5504,-0.5853,-0.643,-0.7205,-0.7752,-0.8593,-0.9601,-1.006,-1.0705,-1.1394,-1.1394,-1.1726,-1.2138,1.3609,1.4834,1.5891,1.7501,1.71,1.6564,1.6512,1.5332,1.4204,1.3406,1.2918,1.2392,1.1693,1.0766,0.9506,0.7856,0.7791,0.6958,0.4887,0.3695,0.2052,-0.0262,-0.1113,-0.0558,0.1544,0.2772,0.5185,0.8902,0.9029,0.9258,0.9575,0.9312,0.9779,1.0805,0.9914,0.0,0.0,0.0,0.0,0.89,0.0,0.8643,0.8458,0.8995,0.8993,0.8517,0.7176,0.6965,0.7353,0.7515,0.0,0.7706,0.8315,0.8023,0.0,0.0,0.0,0.0,0.0,0.0,0.0,0.0,0.0,0.3469,0.0,0.0,0.0,0.0,0.0,0.0,0.0,0.0,0.0,0.0,0.0,0.0,0.0,0.0,0.0,0.0,0.0,0.0,0.0,1.3095,1.2505,1.1521,1.0463,0.9429,0.8429,0.7037,0.571,0.4535,0.4221,0.355,0.2456,0.1676,0.087,-0.0,-0.0999,-0.1892,-0.2732,-0.3464,-0.4213,-0.494,-0.5491,-0.6228,-0.7107,-0.7602,-0.8087,-0.8594,-0.9145,-0.9855,-1.0591,-1.0667,-1.1046,-1.1505,1.3512,1.4432,1.491,1.6137,1.6247,1.6172,1.6243,1.5773,1.5002,1.379,1.2578,1.1792,1.1698,0.0,0.0,0.0,0.0,0.0,0.5464,0.0,0.2995,0.0661,-0.0431,-0.0733,-0.0225,0.1372,0.3573,0.6406,0.7698,0.8617,0.9171,0.8903,0.8909,0.9196,1.0015,0.0,0.0,0.0,1.0524,0.0,1.0338,0.8997,0.0,1.0072,0.9971,0.8602,0.8475,0.8464,0.8479,0.0,0.8388,0.848,0.0,0.8213,0.9414,0.0,0.0,0.0,0.0,0.0,0.0,0.0,0.3969,0.0,0.0,0.0,0.0,0.0,0.0,0.0,0.0,0.0,0.0,0.0,0.0,0.0,0.0,0.0,0.0,0.0,0.0,0.0,0.0,0.0,1.0981,1.0513,0.9361,0.8257,0.7261,0.6014,0.4966,0.4103,0.329,0.2444,0.1473,0.1338,0.087,-0.0,-0.0134,-0.1068,-0.2702,-0.2978,-0.3549,-0.4352,-0.5306,-0.577,-0.5966,-0.6779,-0.7447,-0.8051,-0.8586,-0.8878,-0.903,-0.9518,-0.9972,-1.0446,1.1445,1.3101,1.4173,1.5125,1.5435,1.5765,1.6282,1.5301,1.4171,1.328,1.132,1.0054,0.0,0.0,0.0,0.0,0.0,0.7549,0.0,0.0,0.3874,0.1883,0.0186,-0.0429,0.0172,0.089,0.2701,0.5659,0.673,0.7746,0.8632,0.8324,0.8617,0.9434,0.9651,0.0,1.1033,0.0,0.0,0.0,0.0,0.0,0.0,1.0267,0.999,0.8744,0.9364,0.9381,0.9187,0.0,0.8931,0.0,0.0,0.0,0.0,0.0,0.0,0.0,0.0,0.0,0.0,0.0,0.0,0.0,0.3896,0.0,0.4812,0.0,0.0,0.0,0.0,0.0,0.0,0.0,0.0,0.0,0.0,0.0,0.0,0.0,0.0,0.0,0.0,0.0,0.0,0.0,0.0,0.7551,0.6687,0.5983,0.5113,0.4046,0.3442,0.2841,0.2117,0.1072,0.0369,0.0,0.0,-0.0773,-0.2213,-0.2741,-0.3456,-0.424,-0.4638,-0.5086,-0.5482,-0.5874,-0.6173,-0.6453,-0.7021,-0.7848,-0.8716,-0.8958,-0.935,-0.9853,0.8767,1.124,1.2994,1.3718,1.4276,1.483,1.5361,1.4143,1.2909,0.0,0.0,0.0,0.9184,0.8101,0.0,0.0,0.7438,0.7383,0.0,0.0,0.4412,0.2981,0.0855,0.0,0.0,0.0595,0.1925,0.4582,0.5591,0.6699,0.7842,0.7626,0.8118,0.9176,0.0,1.0049,1.1564,0.0,0.0,1.1328,1.1342,1.0762,0.9963,1.0703,1.0463,0.9817,1.0407,1.0312,0.9943,1.0213,0.9684,0.0,1.0548,0.0,0.0,0.0,0.0,0.0,0.7518,0.0,0.0,0.0,0.0,0.0,0.0,0.0,0.0,0.0,0.0,0.0,0.0,0.0,0.0,0.0,0.0,0.0,0.0,0.0,0.0,0.0,0.0,0.0,0.0,0.0,0.0,0.0,0.0,0.0,0.6099,0.5851,0.5171,0.4044,0.3644,0.3208,0.27,0.141,0.0643,0.0481,0.0143,-0.0403,-0.1225,-0.2581,-0.3454,-0.3947,-0.402,-0.4436,-0.5066,-0.5226,-0.5295,-0.5338,-0.5766,-0.6677,-0.7833,-0.83,-0.8716,-0.9131,0.5789,0.8762,1.1047,1.1584,1.2587,1.3127,1.2776,1.2192,0.0,0.0,0.0,0.0,0.0,0.0,0.0,0.0,0.0,0.8151,0.6931,0.0,0.4439,0.0,0.0,0.0382,0.0,0.0,0.1106,0.2506,0.4083,0.5472,0.6648,0.6765,0.7103,0.7617,0.8507,0.8999,0.9251,1.1408,1.3143,1.4465,1.453,1.3871,1.2763,0.0,1.1806,1.2248,1.1861,0.0,0.0,1.0598,1.0704,0.0,0.0,0.0,0.0,0.0,0.0,0.0,0.0,0.0,0.0,0.6796,0.0,0.0,0.0,0.0,0.2407,0.0,0.0,0.0,0.0,0.0,0.0,0.0,0.0,0.0,0.0,0.0,0.0,0.0,0.0,0.0,0.0,0.0,0.0,0.0,0.0,0.0,0.5255,0.5239,0.4858,0.4026,0.356,0.3105,0.2696,0.263,0.2316,0.1739,0.0545,0.0112,0.0234,-0.2386,-0.3479,-0.3351,-0.3533,-0.3935,-0.4494,-0.5056,-0.5291,-0.5287,-0.533,-0.5376,-0.5604,-0.7314,-0.7953,-0.8082,0.5536,0.7302,0.8873,0.9973,1.0715,1.1141,0.0,1.1117,0.0,0.0,0.0,0.0,0.0,0.0,0.8429,0.0,0.0,0.7004,0.6207,0.4892,0.0,0.0,0.0,0.1427,0.0,0.0,0.0,0.0,0.3461,0.4798,0.6212,0.6659,0.7118,0.7603,0.0,0.9549,0.0,0.0,0.0,0.0,0.0,1.3915,1.3572,0.0,0.0,1.1428,1.1275,1.1094,0.0,1.099,1.0747,1.0506,1.128,1.1153,1.0821,1.1341,1.1335,0.0,0.0,0.0,1.0927,0.9088,0.0,0.0,0.0,0.0,0.0,0.0,0.0,0.0,0.0,0.0,0.0,0.0,0.0,0.0,0.0,0.0,0.0,0.0,0.0,0.0,0.0,0.0,0.0,0.0,0.0,0.0,0.0,0.4815,0.4688,0.4402,0.4459,0.4108,0.3317,0.3025,0.2809,0.2601,0.2449,0.1612,0.0122,-0.0813,-0.1613,-0.2348,-0.3237,-0.3718,-0.3899,-0.4083,-0.4176,-0.422,-0.4578,-0.4683,-0.4865,-0.6252,-0.7014,-0.7497,0.5616,0.6367,0.7248,0.8616,0.9257,0.9578,0.0,0.0,0.0,0.0,0.9308,0.0,0.9725,0.0,0.881,0.0,0.7402,0.6802,0.636,0.5013,0.0,0.4874,0.3236,0.0,0.0,0.0,0.0,0.0,0.0,0.4032,0.5452,0.6332,0.7085,0.7694,0.0,0.9374,1.1377,0.0,1.335,0.0,0.0,1.4902,0.0,0.0,1.2479,1.1114,0.0,1.1566,1.1255,1.1618,1.1506,1.1424,1.2517,1.2399,1.2025,1.274,1.2724,1.2454,1.2407,1.273,0.0,1.0702,0.9989,0.0,0.7735,0.0,0.0,0.0,0.0,0.0,0.0,0.0,0.0,0.0,0.0,0.0,0.0,0.0,0.0,0.0,0.0,0.0,0.0,0.0,0.0,0.0,0.0,0.0,0.0,0.0,0.4783,0.4775,0.5069,0.4857,0.4056,0.3606,0.3388,0.3416,0.3479,0.2702,0.1281,0.0837,-0.0,-0.1207,-0.1967,-0.2551,-0.3004,-0.3404,-0.3581,-0.3629,-0.3995,-0.4112,-0.4264,-0.5437,-0.6365,-0.7249,0.5837,0.5961,0.621,0.0,0.8267,0.0,0.0,0.0,0.8476,0.0,0.923,0.9505,0.9879,0.9865,0.9562,0.891,0.8156,0.0,0.7326,0.5962,0.0,0.0,0.4138,0.3465,0.4392,0.0,0.0,0.0,0.0,0.0,0.4456,0.5855,0.6983,0.7811,0.7621,0.0,1.0362,1.2404,1.4214,1.5852,1.7177,1.6784,1.5269,1.4609,1.3013,1.1322,1.2837,1.27,1.1848,1.2291,1.2891,1.3366,1.2925,1.3432,1.4124,1.39,1.4105,1.4257,1.3565,1.3521,1.3293,1.1726,1.1164,0.0,0.0,0.0,0.6287,0.0,0.0,0.0,0.0,0.0,0.0,0.0,0.0,0.0,0.0,0.0,0.0,0.0,0.0,0.0,0.0,0.0,0.0,0.0,0.0,0.0,0.0,0.0,0.5116,0.5198,0.5437,0.5356,0.4937,0.4401,0.415,0.4238,0.3629,0.3426,0.3581,0.2426,0.1259,0.018,0.0045,-0.0629,-0.1801,-0.3093,-0.3588,-0.3598,-0.3595,-0.3598,-0.3732,-0.4849,-0.6061,-0.7249,0.5976,0.6467,0.6578,0.0,0.7284,0.8077,0.0,0.0,0.0,0.0,0.9657,0.9893,1.1173,1.0415,0.971,0.9562,0.8408,0.0,0.0,0.0,0.0,0.6488,0.5222,0.4486,0.4379,0.2688,0.0,0.1905,0.0,0.0,0.4723,0.6089,0.7188,0.802,0.0,0.0,1.1999,1.2592,1.4639,1.7488,1.7855,1.6635,0.0,0.0,1.3644,1.1299,1.1718,1.1804,1.1696,1.1637,1.1997,1.2513,1.2799,1.3273,1.3825,1.4152,1.4324,1.4426,1.4589,1.4599,1.4339,1.342,1.268,1.1993,0.0,0.0,0.0,0.0,0.0,0.0,0.0,0.0,0.0,0.0,0.0,0.0,0.0,0.0,0.0,0.0,0.0,0.0,0.0,0.0,0.0,0.0,0.0,0.0,0.0,0.0,0.0,0.6472,0.6386,0.604,0.5518,0.559,0.5433,0.5028,0.4397,0.3951,0.3578,0.3268,0.2957,0.2558,0.0763,-0.018,-0.0629,-0.275,-0.3609,-0.3612,-0.3758,-0.3853,-0.399,-0.4608,-0.5886,-0.7304,0.622,0.0,0.0,0.6749,0.0,0.0,0.7813,0.0,0.0,1.0075,1.0039,0.0,1.1158,1.0921,1.0415,0.9865,0.9332,0.0,0.8487,0.0,0.0,0.8236,0.6928,0.6233,0.6273,0.4108,0.0,0.2795,0.0,0.0,0.4649,0.6175,0.7372,0.824,0.0,0.9425,0.0,1.2871,1.4947,1.7303,1.8156,0.0,0.0,1.588,1.4599,1.2618,1.2365,1.2192,1.208,1.193,1.2148,1.2565,1.3007,1.3451,1.3898,1.4389,1.4584,1.4728,1.5018,1.5087,1.4978,1.4603,1.4096,1.3511,1.2853,1.083,0.8197,0.0,0.0,0.0,0.0,0.0,0.0,0.0,0.0,0.0,0.0,0.0,0.0,0.0,0.0,0.0,0.0,0.0,0.0,0.0,0.0,0.0,0.0,0.0,0.0,0.6793,0.678,0.6591,0.6263,0.6229,0.6039,0.5696,0.4813,0.4256,0.3947,0.3718,0.3585,0.3544,0.2152,0.0986,-0.009,-0.1485,-0.266,-0.3646,-0.3903,-0.4032,-0.4114,-0.437,-0.5299,-0.6478,0.0,0.0,0.0,0.0,0.0,0.0,0.0,0.7843,0.0,1.008,0.0,1.0569,1.0849,1.1361,1.1266,1.0167,0.0,1.0439,0.9657,0.9718,0.9969,1.0341,0.868,0.8028,0.8669,0.5831,0.0,0.0,0.0,0.0,0.4576,0.6207,0.7446,0.0,0.0,0.0,0.0,1.3393,1.5435,1.6552,1.8161,1.8198,1.7205,1.646,1.54,1.4281,1.3771,1.316,1.261,1.2633,1.2834,1.3105,1.342,1.3817,1.4223,1.4621,1.4881,1.503,1.5105,1.5202,1.5303,1.5311,1.5213,1.4834,1.38,1.167,0.8724,0.449,0.114,-0.1509,0.0,0.0,0.0,0.0,0.0,0.0,0.0,0.0,0.0,0.0,0.0,0.0,0.0,0.0,0.0,0.0,0.0,0.0,0.0,0.0,0.0,0.6832,0.7018,0.0,0.7118,0.0,0.6319,0.6271,0.5171,0.4629,0.4595,0.3991,0.3718,0.3714,0.3636,0.2417,0.0447,0.0135,-0.1222,-0.3173,-0.3667,-0.4005,-0.4237,-0.4227,-0.4639,-0.5339,0.0,0.0,0.0,0.0,0.0,0.9141,0.8875,0.9455,1.0189,1.1076,1.0896,1.1204,1.2359,1.1603,1.1116,1.1416,1.1065,0.0,0.0,0.0,0.0,1.0237,0.9026,0.8426,0.8521,0.6315,0.5176,0.0,0.0,0.4538,0.5237,0.6323,0.7219,0.0,0.0,0.0,1.2506,1.4847,0.0,1.7985,1.7946,1.7453,1.6646,1.5741,1.4805,1.3985,1.4002,1.3403,1.263,1.2787,1.3038,1.3312,1.3581,1.3974,1.4427,1.4835,1.5016,1.5105,1.523,1.5282,1.5311,1.5365,1.5235,1.4884,1.4101,1.1393,0.8203,0.5307,0.1035,-0.2601,-0.3902,0.0,0.0,0.0,0.0,0.0,0.0,0.0,0.0,0.0,0.0,0.0,0.0,0.0,0.0,0.0,0.0,0.0,0.0,0.0,0.0,0.0,0.0,0.0,0.0,0.0,0.6881,0.6839,0.6181,0.5867,0.5869,0.4781,0.4268,0.4224,0.3776,0.3369,0.2823,0.0805,-0.0233,-0.0748,-0.1788,-0.3118,-0.4443,-0.444,-0.4539,-0.4751,0.0,0.0,0.0,0.0,0.0,0.0,0.0,1.1835,0.0,1.2019,1.1453,1.1531,1.2564,1.2225,1.1899,1.1844,1.193,1.178,1.1454,1.1579,1.1653,1.1653,1.0794,0.0,1.0321,0.8301,0.6976,0.6329,0.0,0.5389,0.5417,0.6356,0.7154,0.7855,0.0,1.0636,0.0,0.0,0.0,1.686,1.762,1.7227,1.6188,1.574,1.5026,1.4289,1.4449,1.4064,1.3476,1.3437,1.3504,1.3659,1.3966,1.4276,1.4584,1.4901,1.5108,1.5217,1.5278,1.5298,1.5291,1.5251,1.5115,1.4756,1.3799,1.1061,0.8174,0.6371,0.162,-0.2954,-0.5431,-0.6973,0.0,0.0,0.0,0.0,0.0,0.0,0.0,0.0,0.0,0.0,0.0,0.0,0.0,0.0,0.0,0.0,0.0,0.0,0.0,0.0,0.0,0.0,0.0,0.0,0.0,0.6979,0.6458,0.6186,0.6188,0.5255,0.47,0.4405,0.4116,0.3843,0.3414,0.1015,0.0,-0.0052,-0.0656,-0.235,-0.4504,-0.4487,-0.4477,-0.4525,0.0,0.9384,0.0,0.0,1.1035,0.0,1.2448,1.3764,1.4294,1.313,1.2438,1.2335,1.2892,1.3068,1.2899,1.2377,1.2738,1.2805,1.2256,1.2633,1.2847,1.2847,1.2378,1.2057,1.1944,1.0362,0.9035,0.0,0.0,0.0,0.6068,0.6591,0.7338,0.0,0.0,0.0,0.0,0.0,1.6009,1.5759,1.7096,1.6947,1.5886,1.5764,1.5271,1.4682,1.4873,1.4728,1.4407,1.4174,1.4072,1.4108,1.4375,1.4585,1.4746,1.4983,1.5173,1.5297,1.529,1.531,1.5277,1.5121,1.4961,1.455,1.3391,1.0879,0.8428,0.7063,0.1884,-0.3391,-0.6555,-0.7993,0.0,0.0,0.0,0.0,0.0,0.0,0.0,0.0,0.0,0.0,0.0,0.0,0.0,0.0,0.0,0.0,0.0,0.0,0.0,0.0,0.0,0.8391,0.7912,0.0,0.7602,0.6979,0.6554,0.6367,0.6361,0.5761,0.5167,0.4569,0.4447,0.4116,0.342,0.1015,0.0,0.0,0.0,-0.1456,-0.361,-0.4268,-0.4484,-0.4477,0.0,0.0,0.0,0.0,0.0,0.0,1.3189,1.4013,1.4663,1.4501,1.4452,1.4417,1.4512,1.4081,1.3784,1.3696,1.329,1.2962,1.2907,1.2633,1.248,1.248,1.2387,1.2182,1.1823,1.1535,1.1159,0.0,0.0,0.8144,0.8183,0.731,0.7962,0.9916,0.0,0.0,0.0,1.5163,1.5918,1.6711,1.6275,1.6023,1.5833,1.5296,1.4996,1.4897,1.5025,1.4972,1.4848,1.4813,1.469,1.4555,1.4644,1.4848,1.5075,1.5222,1.5285,1.5292,1.5292,1.529,1.5268,1.5127,1.4851,1.4338,1.3186,1.1154,0.8934,0.6878,0.0777,-0.4587,-0.5957,-0.7764,-0.898,0.0,0.0,0.0,0.0,0.0,0.0,0.0,0.0,0.0,0.0,0.0,0.0,0.0,0.0,0.0,0.0,0.0,0.0,0.7964,0.0,0.818,0.7992,0.7949,0.7602,0.6979,0.693,0.693,0.693,0.6361,0.5775,0.5178,0.4652,0.4096,0.3437,0.0971,0.0,0.0,0.0,-0.0168,-0.0729,-0.3485,-0.4497,-0.448,0.0,0.0,0.0,0.0,0.0,0.0,0.0,1.528,1.5768,1.5772,1.5142,1.4733,1.4779,1.4235,1.3788,1.3443,1.3214,1.3089,1.3126,1.3216,1.3307,1.3307,1.3518,1.3604,1.3416,1.3091,1.2601,0.0,0.0,0.0,0.8851,0.8333,0.8956,1.0618,0.0,1.3941,1.4647,1.629,1.6711,1.6275,1.6012,1.5683,1.5344,1.5131,1.5081,1.5152,1.5196,1.5186,1.5149,1.5149,1.4986,1.4812,1.4908,1.5006,1.5127,1.5258,1.5299,1.5293,1.5309,1.5304,1.5255,1.5037,1.4787,1.4272,1.307,1.1291,0.9279,0.71,0.1337,-0.3796,-0.5334,-0.6666,-0.7842,0.0,0.0,0.0,0.0,0.0,0.0,0.0,0.0,0.0,0.0,0.0,0.0,0.0,0.0,0.0,0.0,0.0,0.0,0.7692,0.0,0.9142,0.8484,0.8717,0.8396,0.7553,0.7553,0.7356,0.6979,0.6784,0.6186,0.527,0.4422,0.403,0.3817,0.1871,0.0644,0.0,0.0,0.0,-0.0168,-0.1343,-0.297,-0.4497,1.4264,0.0,1.348,0.0,1.4561,1.4822,1.555,1.6102,1.6386,1.6237,1.5553,1.511,1.5084,1.4405,1.3819,1.3418,1.3238,1.3216,1.3382,1.3702,1.3967,1.4052,1.4568,0.0,1.4501,1.4512,1.4158,1.3403,1.2227,0.0,1.0792,1.0172,1.0498,0.0,1.3983,1.4859,1.4768,1.6646,1.6719,1.5554,1.562,1.5418,1.5043,1.5127,1.524,1.5329,1.5321,1.5329,1.5329,1.5329,1.5186,1.5025,1.5138,1.5168,1.5175,1.5274,1.5293,1.5298,1.5299,1.5257,1.5149,1.4874,1.4626,1.4102,1.2772,1.1303,0.9416,0.6624,0.1652,-0.2708,-0.4251,-0.5429,-0.651,-0.7609,0.0,0.0,0.0,0.0,0.0,0.0,0.0,0.0,0.0,0.0,0.0,0.0,0.0,0.0,0.0,0.0,0.0,0.0,0.0,0.0,0.0,0.9261,0.9047,0.8152,0.7987,0.7709,0.7386,0.6862,0.6217,0.542,0.4322,0.4,0.4117,0.3031,0.1587,0.0,0.0,0.0,0.0,0.0,-0.1343,-0.3312,1.5588,1.5576,1.5764,1.638,1.5967,1.5587,1.5699,1.6057,1.6102,1.5593,1.584,1.5995,1.5721,1.4738,1.4101,1.4096,1.3546,1.3404,1.3868,1.3901,1.4084,0.0,0.0,1.5242,1.4533,1.5591,1.597,1.5547,0.0,0.0,1.4779,1.3054,1.268,1.3489,1.4072,1.475,1.5488,1.5806,1.5469,1.4737,1.5009,1.5107,1.5111,1.5241,1.5334,1.5394,1.5394,1.5394,1.5394,1.5394,1.5353,1.5291,1.5304,1.5295,1.5293,1.5293,1.5303,1.5302,1.5302,1.5143,1.495,1.4672,1.4345,1.3718,1.225,1.1183,0.9329,0.5181,0.1321,-0.1619,-0.256,-0.4156,-0.517,-0.4717,0.0,0.0,0.0,0.0,0.0,0.0,-0.5233,-0.447,-0.4773,0.0,0.0,0.0,0.0,0.0,0.0,0.0,0.0,0.8748,0.9454,0.0,0.8824,0.9262,0.9223,0.869,0.8144,0.8056,0.8233,0.6515,0.5801,0.5921,0.4553,0.406,0.422,0.4416,0.2681,0.0,0.0,0.0,0.0,0.0,-0.0,-0.0503,1.6718,1.6995,1.7222,1.6943,1.6757,1.6493,1.6038,1.6101,1.6101,1.5912,1.5695,1.552,1.544,1.4875,1.4472,0.0,1.394,1.3868,0.0,1.4788,1.5123,1.5242,1.6016,1.6305,1.6059,1.6584,1.6822,1.6706,0.0,0.0,0.0,1.3995,1.3961,1.4279,1.5157,1.5362,1.5139,1.5759,1.562,1.4983,1.5063,1.5154,1.526,1.5331,1.5389,1.5398,1.5391,1.5408,1.5388,1.5341,1.5317,1.5299,1.5304,1.5305,1.5301,1.5304,1.5299,1.526,1.5126,1.5056,1.4943,1.471,1.4246,1.3584,1.2666,1.0344,0.7701,0.5336,0.268,0.0231,-0.172,-0.2892,-0.377,-0.4487,-0.5352,0.0,0.0,0.0,0.0,0.0,0.0,-0.1926,0.0,-0.0678,0.0,0.0,0.0,0.0,0.0,0.0,0.0,0.0,1.0216,0.0,0.9904,1.0,0.977,0.9223,0.8692,0.8224,0.7729,0.6464,0.594,0.5936,0.4684,0.4153,0.4214,0.4416,0.391,0.2843,0.0781,0.0,0.0,0.0,0.0,-0.0112,1.6797,1.6875,1.6959,1.677,1.6539,1.6251,1.5852,1.6063,1.618,1.5938,1.5874,1.5866,1.5853,1.5492,0.0,1.4533,1.4379,1.4491,1.488,1.5476,1.5902,1.6028,1.6664,1.6977,1.6944,1.7356,0.0,1.7535,1.69,1.6148,1.5288,1.5162,1.5,1.4808,1.5401,1.5402,1.5002,1.5502,1.5478,1.5105,1.5173,1.5267,1.5338,1.5385,1.5409,1.539,1.5376,1.5362,1.536,1.5304,1.5307,1.529,1.529,1.5278,1.5274,1.5295,1.5246,1.5168,1.5023,1.4935,1.482,1.455,1.4044,1.3296,1.2049,0.9403,0.6823,0.5429,0.3547,0.1456,-0.0729,-0.1711,-0.2557,-0.369,-0.4268,-0.465,-0.4865,0.0,0.0,0.0,0.0,0.0,0.0,0.2404,0.0,0.0,0.0,0.0,0.0,0.0,0.0,1.0751,1.112,0.0,1.0644,1.0429,1.0128,0.9779,0.9278,0.8708,0.8146,0.6761,0.6197,0.6126,0.48,0.4224,0.4334,0.4433,0.4473,0.4307,0.2399,0.1004,0.0,0.0,0.0,0.0,1.6283,1.5856,1.5598,1.6135,1.5766,1.5402,1.5397,1.6051,1.6306,1.5764,1.6344,1.6783,1.6791,1.6465,1.579,1.4755,0.0,0.0,1.5662,1.6068,1.6423,1.6815,1.7175,1.7318,1.7276,1.7924,1.8235,1.8208,1.8028,1.767,1.7123,1.6429,1.576,1.5105,1.498,1.4991,1.5108,1.5108,1.5113,1.5129,1.5321,1.5398,1.5383,1.5385,1.5392,1.5389,1.5324,1.5293,1.5293,1.529,1.5295,1.5289,1.5289,1.522,1.5195,1.5275,1.5163,1.5021,1.5007,1.4856,1.4608,1.4211,1.3743,1.2823,1.0662,0.8494,0.6614,0.5469,0.3906,0.2227,0.0466,-0.0597,-0.152,-0.2428,-0.3053,-0.3616,-0.4106,-0.3062,0.0,0.0,0.0,0.0,0.0,0.6665,0.8218,0.0,0.0,0.0,0.0,0.0,1.0833,1.246,1.2069,1.1575,1.1067,1.0585,1.0332,1.0293,0.9796,0.9502,0.9341,0.7327,0.6493,0.6524,0.49,0.4338,0.4519,0.4519,0.4473,0.4494,0.4484,0.2794,0.028,0.0056,0.0,0.0,1.8238,1.8084,1.7822,1.7456,1.7273,1.7015,1.6533,1.6593,1.6699,1.6543,1.6678,1.6804,1.6795,1.6732,1.6549,1.6266,1.6056,1.6083,1.648,1.6843,1.7069,1.7175,1.7698,1.798,1.7945,1.851,1.8947,1.925,1.8657,1.8052,1.7456,1.664,1.5894,1.5244,1.5214,1.5221,1.5242,1.5242,1.5256,1.5266,1.5291,1.5311,1.5329,1.5314,1.5326,1.5324,1.5319,1.5299,1.5295,1.5246,1.5163,1.5076,1.5076,1.5033,1.5,1.5158,1.5195,1.5121,1.4968,1.4785,1.4561,1.4253,1.3221,1.186,1.0259,0.8633,0.7086,0.5914,0.4417,0.2943,0.1749,0.053,-0.0532,-0.12,-0.2208,-0.2613,-0.1833,-0.0032,0.1946,0.0,0.5913,0.8024,1.039,1.1565,1.2284,0.0,0.0,0.0,0.0,1.2499,1.2385,1.3523,1.2765,1.2105,1.1612,1.1077,1.0595,1.0147,1.0075,0.983,0.9348,0.7429,0.6567,0.6529,0.5074,0.4429,0.4519,0.4519,0.4522,0.4525,0.4477,0.4089,0.3137,0.0838,0.0,0.0,1.7935,1.7923,1.7777,1.742,1.7334,1.7227,1.6866,1.6936,1.7068,1.7194,1.7337,1.7495,1.7603,1.7499,1.7476,1.7597,1.7061,1.6802,1.7002,1.7446,1.7698,1.7698,1.8149,1.843,1.8566,1.8912,1.9084,1.9089,1.801,1.7333,1.6989,1.6204,1.5676,1.5338,1.5311,1.532,1.5347,1.5311,1.5292,1.5301,1.5301,1.5307,1.5293,1.5294,1.5306,1.5299,1.5279,1.5255,1.525,1.5207,1.5146,1.5088,1.5088,1.5026,1.4965,1.5075,1.504,1.495,1.4841,1.4629,1.4295,1.3742,1.2606,1.13,1.0092,0.8666,0.726,0.6044,0.4846,0.3672,0.2514,0.1725,0.0865,-0.03,-0.1039,-0.0968,0.0463,0.2574,0.5185,0.8344,0.9812,1.1583,1.4171,1.4268,1.4413,1.5012,1.4032,0.0,1.4156,1.353,1.3356,1.3891,1.2783,1.206,1.1808,1.1242,1.0734,1.0344,1.0225,0.9984,0.9535,0.7883,0.6891,0.6534,0.5441,0.4787,0.4519,0.4519,0.4519,0.4519,0.4525,0.448,0.4209,0.1898,0.0559,0.0,1.7156,1.7117,1.7084,1.7087,1.7078,1.7087,1.7054,1.73,1.7586,1.7811,1.8071,1.8353,1.8566,1.8391,1.8351,1.8566,1.7924,1.7492,1.7492,1.798,1.827,1.827,1.8508,1.8789,1.9017,1.9091,1.8931,1.8558,1.7068,1.6349,1.6335,1.5629,1.5342,1.5403,1.5332,1.5347,1.5389,1.5329,1.5293,1.5307,1.5307,1.5284,1.5274,1.5287,1.5284,1.5275,1.5207,1.5177,1.5171,1.5159,1.5146,1.5121,1.5121,1.504,1.492,1.492,1.4775,1.4627,1.4648,1.4368,1.3849,1.2989,1.1989,1.0959,0.9969,0.8585,0.7201,0.6143,0.5174,0.4172,0.3093,0.2798,0.2159,0.0495,0.0532,0.1326,0.2797,0.5137,0.8259,1.2478,1.3214,1.4288,1.6568,1.5761,1.5539,1.6637,1.5183,1.4472,1.4963,1.4238,1.3736,1.3676,1.2513,1.1873,1.1803,1.1287,1.0922,1.0713,1.0412,1.0102,0.9775,0.8347,0.7348,0.675,0.5982,0.5273,0.4625,0.4625,0.457,0.4519,0.4519,0.4477,0.4327,0.2792,0.1284,0.0,1.8785,1.8585,1.8328,1.8326,1.8318,1.8319,1.8329,1.8362,1.8395,1.8441,1.8501,1.8555,1.8604,1.8566,1.8547,1.8585,1.8489,1.8393,1.8393,1.8489,1.8528,1.8528,1.8789,1.9016,1.9172,1.8969,1.8821,1.8754,1.7215,1.6506,1.6536,1.5754,1.5387,1.5403,1.538,1.5369,1.5304,1.5299,1.5294,1.5295,1.5295,1.5265,1.5229,1.5218,1.5212,1.5201,1.5082,1.5035,1.5021,1.4968,1.4876,1.4776,1.4776,1.4678,1.4581,1.4581,1.4439,1.4314,1.4419,1.3939,1.3244,1.2438,1.1497,1.0552,0.9601,0.8199,0.6966,0.6502,0.5181,0.4021,0.3826,0.3179,0.238,0.1411,0.3075,0.4674,0.5299,0.8168,1.0875,1.2702,1.4558,1.6083,1.7103,1.6973,1.6696,1.6399,1.5504,1.4841,1.4607,1.3728,1.3079,1.2736,1.2513,1.2153,1.1735,1.1559,1.1349,1.1091,1.0813,1.0415,0.9775,0.8366,0.7628,0.7509,0.6745,0.6036,0.5324,0.5324,0.5003,0.4519,0.4519,0.4484,0.4337,0.2794,0.1284,0.0,1.8866,1.8755,1.8604,1.8605,1.8587,1.8606,1.8607,1.8664,1.8762,1.889,1.899,1.9091,1.9243,1.9118,1.9084,1.9228,1.9099,1.9084,1.9228,1.8981,1.8843,1.8928,1.9178,1.9216,1.8976,1.8441,1.796,1.7555,1.646,1.5913,1.5958,1.5565,1.5408,1.5394,1.5365,1.5336,1.5295,1.5268,1.5255,1.5245,1.5168,1.5127,1.5088,1.5052,1.503,1.5023,1.4965,1.4942,1.4933,1.4902,1.4868,1.4804,1.4804,1.4648,1.4444,1.4444,1.4326,1.4131,1.3874,1.3324,1.2667,1.2025,1.1031,1.0044,0.9444,0.8297,0.7209,0.6631,0.5712,0.4814,0.4118,0.3532,0.3005,0.2624,0.4791,0.7058,0.8501,1.1669,1.3925,1.4113,1.5708,1.6903,1.7223,1.6713,1.6225,1.5928,1.4993,1.4384,1.4201,1.3304,1.259,1.213,1.183,1.1549,1.1255,1.1113,1.0941,1.0661,1.0384,0.9903,0.9228,0.8612,0.8055,0.767,0.6912,0.6204,0.5487,0.5109,0.4787,0.4519,0.4519,0.448,0.433,0.2794,0.1283,0.0,1.8697,1.8734,1.8789,1.8819,1.8833,1.8826,1.8882,1.897,1.9119,1.932,1.9426,1.9563,1.9778,1.9626,1.9582,1.9778,1.9607,1.9582,1.9778,1.9439,1.925,1.935,1.9388,1.9216,1.8809,1.786,1.709,1.6514,1.5762,1.5398,1.5406,1.5406,1.5389,1.5375,1.5315,1.5293,1.5275,1.5218,1.5189,1.5189,1.5088,1.5042,1.5035,1.495,1.4928,1.4919,1.4867,1.4841,1.4859,1.4832,1.4813,1.4794,1.4747,1.4558,1.4331,1.4223,1.4046,1.3806,1.341,1.2793,1.214,1.1713,1.0627,0.9612,0.9245,0.8263,0.7237,0.6639,0.5937,0.5163,0.4183,0.3723,0.3529,0.3673,0.5929,0.846,1.0695,1.3629,1.5535,1.5447,1.6459,1.712,1.6999,1.616,1.556,1.5491,1.4492,1.3848,1.3732,1.2842,1.2081,1.1471,1.1067,1.0903,1.1075,1.0771,1.0506,1.0359,0.9963,0.9468,0.8804,0.8804,0.848,0.7937,0.7343,0.6578,0.571,0.5222,0.4791,0.4519,0.4519,0.4473,0.4379,0.3186,0.1562,0.0,1.8966,1.9117,1.9305,1.9495,1.9526,1.958,1.9699,1.9722,1.973,1.976,1.976,1.9778,1.9809,1.9778,1.9778,1.979,1.9778,1.9778,1.979,1.9815,1.9815,1.9767,1.9192,1.8846,1.8805,1.7398,1.6652,1.6592,1.5781,1.5408,1.5398,1.5395,1.5368,1.5311,1.5302,1.5265,1.5201,1.5195,1.5189,1.5189,1.5183,1.5183,1.5177,1.5035,1.498,1.4977,1.4785,1.4698,1.4697,1.4578,1.4522,1.4499,1.432,1.4239,1.4131,1.3693,1.3308,1.3039,1.3244,1.2533,1.1685,1.1395,1.0328,0.9245,0.8915,0.7675,0.657,0.651,0.5244,0.4118,0.4026,0.3737,0.3662,0.417,0.633,0.8621,1.0482,1.2235,1.4041,1.5896,1.654,1.67,1.6402,1.59,1.5467,1.5154,1.4364,1.3681,1.3185,1.2337,1.1389,1.0458,1.038,1.0723,1.1523,1.0905,1.0643,1.0759,1.0113,0.9468,0.8804,0.8804,0.8752,0.8699,0.8646,0.783,0.6534,0.648,0.5664,0.4519,0.4519,0.4525,0.448,0.4366,0.251,0.0,1.9464,1.9442,1.9555,1.9707,1.9719,1.975,1.9788,1.9861,1.9926,1.9926,2.0041,2.0115,2.0107,2.0115,2.0119,2.0166,2.0166,2.0166,2.0166,2.0199,2.016,2.0057,1.9375,1.875,1.8251,1.7154,1.6343,1.5797,1.5527,1.5383,1.5334,1.5349,1.5319,1.5298,1.5255,1.5218,1.5189,1.5189,1.5189,1.5183,1.5052,1.5008,1.4984,1.4766,1.469,1.467,1.4603,1.4589,1.4578,1.4511,1.4429,1.4295,1.4214,1.4024,1.3736,1.3328,1.2858,1.2498,1.2594,1.2051,1.1269,1.0559,0.9677,0.8903,0.8578,0.783,0.7107,0.6609,0.5983,0.5244,0.4183,0.4091,0.439,0.5063,0.7215,0.9559,1.1702,1.356,1.5108,1.6127,1.6149,1.5912,1.5596,1.4954,1.4498,1.4377,1.3796,1.3257,1.2749,1.183,1.0998,1.0322,1.0525,1.0977,1.1589,1.0753,1.0517,1.0812,0.9725,0.9049,0.8804,0.8804,0.8804,0.8752,0.8315,0.7557,0.6588,0.6091,0.5386,0.4519,0.4519,0.4522,0.4525,0.4477,0.3799,0.2679,1.9798,1.9656,1.9707,1.9836,1.9869,1.988,1.9941,2.0041,2.0082,2.0082,2.0227,2.0328,2.0341,2.0327,2.0347,2.0406,2.041,2.0395,2.0373,2.0377,2.0344,2.0274,1.9543,1.8867,1.8325,1.7447,1.6581,1.5741,1.5765,1.5601,1.5294,1.5299,1.5289,1.5265,1.5218,1.5189,1.5189,1.5189,1.5177,1.5127,1.5,1.4919,1.4877,1.4645,1.4567,1.4567,1.4511,1.4464,1.4399,1.4399,1.427,1.4078,1.4024,1.3674,1.3227,1.2836,1.2431,1.2024,1.1839,1.1498,1.1015,1.0307,0.948,0.8734,0.8495,0.7966,0.7314,0.6639,0.6297,0.5705,0.4436,0.4409,0.4916,0.5937,0.8003,1.0311,1.267,1.4445,1.5675,1.6041,1.5707,1.5286,1.495,1.4295,1.3918,1.3906,1.3336,1.2706,1.2081,1.1233,1.0644,1.0322,1.0816,1.1272,1.1588,1.0694,1.0412,1.0762,0.9465,0.8804,0.8804,0.8804,0.8804,0.8752,0.8049,0.7289,0.6534,0.5814,0.5109,0.4519,0.4519,0.4519,0.4519,0.4525,0.4477,0.4366,1.999,1.9809,1.9847,1.9993,1.9993,2.0069,2.0277,2.0295,2.0294,2.0294,2.0352,2.041,2.041,2.0391,2.0391,2.0391,2.0391,2.0373,2.0311,2.0292,2.0332,2.0398,1.9631,1.9199,1.9199,1.8357,1.7519,1.6703,1.6648,1.6157,1.5317,1.5317,1.5284,1.5209,1.5209,1.5209,1.5209,1.5189,1.5127,1.4995,1.4995,1.4965,1.4886,1.4756,1.4707,1.4687,1.4545,1.4375,1.4206,1.4219,1.4069,1.387,1.3646,1.3142,1.2553,1.2271,1.2018,1.1674,1.1062,1.091,1.091,1.0897,0.983,0.8789,0.8789,0.7925,0.6999,0.6579,0.5829,0.5086,0.4692,0.4602,0.513,0.6748,0.8633,1.0738,1.3069,1.4444,1.5312,1.5559,1.5286,1.4925,1.4525,1.4114,1.3895,1.3883,1.3007,1.2034,1.1036,1.0537,1.0283,1.0283,1.1155,1.1582,1.1588,1.0686,1.0417,1.0762,0.9465,0.8811,0.8804,0.8804,0.8804,0.8752,0.8049,0.7289,0.6534,0.5814,0.5109,0.4519,0.4519,0.4519,0.4519,0.4519,0.4525,0.448,2.1111,2.09,2.0764,2.0292,2.025,2.0291,2.0351,2.0371,2.0366,2.0366,2.0395,2.0413,2.047,2.0433,2.0427,2.0469,2.0424,2.0394,2.0367,2.0366,2.0389,2.0396,1.9589,1.9134,1.9134,1.827,1.7715,1.7469,1.7447,1.7006,1.6154,1.6713,1.6663,1.6118,1.6118,1.6118,1.6074,1.5363,1.5035,1.498,1.4847,1.4776,1.4747,1.4603,1.4567,1.463,1.5153,1.5181,1.4972,1.5031,1.4819,1.4362,1.3447,1.2909,1.2648,1.2847,1.2501,1.2048,1.1923,1.149,1.0912,1.0058,0.9319,0.8734,0.8495,0.7966,0.7403,0.6999,0.648,0.5891,0.5149,0.5282,0.5951,0.7345,0.9348,1.1427,1.3347,1.4486,1.5169,1.5256,1.4676,1.421,1.4096,1.3677,1.3254,1.2953,1.2011,1.1335,1.1007,1.0537,1.0429,1.0703,1.1306,1.1737,1.2012,1.1549,1.1154,1.0762,0.9917,0.9263,0.8804,0.8804,0.8804,0.8752,0.8049,0.7289,0.6534,0.5814,0.5109,0.4519,0.4519,0.4519,0.4519,0.4519,0.4519,0.4522,2.2172,2.1702,2.1345,2.0928,2.0603,2.041,2.041,2.0422,2.0448,2.0448,2.0455,2.0477,2.0507,2.0467,2.0458,2.0453,2.0406,2.0357,2.0357,2.0371,2.0355,2.0355,1.9859,1.9595,1.9605,1.907,1.863,1.8308,1.8299,1.7838,1.6984,1.7465,1.7446,1.6965,1.6924,1.6903,1.6857,1.6187,1.5882,1.5819,1.57,1.5622,1.5554,1.5355,1.5278,1.535,1.5741,1.5744,1.5542,1.5589,1.5296,1.4746,1.3771,1.3356,1.3267,1.3413,1.3045,1.2584,1.2479,1.2006,1.1313,1.0467,0.9664,0.9034,0.8815,0.849,0.8036,0.7408,0.7119,0.6722,0.605,0.6131,0.6828,0.8313,1.0131,1.1868,1.3239,1.4389,1.4968,1.4658,1.4214,1.3828,1.3644,1.3183,1.2636,1.1961,1.1324,1.0909,1.0742,1.0595,1.0644,1.0899,1.1519,1.1937,1.2221,1.1953,1.1466,1.0813,1.0115,0.9465,0.8804,0.8804,0.8804,0.8752,0.7723,0.702,0.6534,0.5492,0.4842,0.4519,0.4519,0.4519,0.4519,0.4519,0.4519,0.4519,2.3185,2.2384,2.1845,2.1835,2.1107,2.0519,2.0519,2.0522,2.0519,2.0519,2.0561,2.0564,2.0516,2.0483,2.0471,2.0402,2.0341,2.0301,2.0301,2.0299,2.0312,2.0312,2.0312,2.0334,2.0394,2.0336,1.9933,1.9217,1.9149,1.8657,1.7797,1.7881,1.7855,1.7764,1.7628,1.7594,1.7585,1.7365,1.7206,1.7101,1.7089,1.7002,1.6863,1.6595,1.6504,1.6474,1.6356,1.6168,1.5987,1.5934,1.5539,1.4967,1.439,1.4198,1.4166,1.3945,1.356,1.3173,1.2858,1.2423,1.1945,1.1618,1.0557,0.9619,0.9574,0.9286,0.8755,0.7921,0.7709,0.7558,0.7185,0.7114,0.7702,0.9478,1.0914,1.2095,1.2948,1.419,1.4721,1.4,1.3868,1.3682,1.3232,1.2728,1.2033,1.1064,1.1007,1.0801,1.038,1.0742,1.0981,1.1034,1.1801,1.2231,1.2241,1.1944,1.1466,1.0813,1.0115,0.9465,0.8804,0.8804,0.8804,0.8699,0.7235,0.6583,0.6475,0.5062,0.4519,0.4519,0.4519,0.4519,0.4519,0.4519,0.4519,0.4519,2.4151,2.3837,2.3514,2.2901,2.2117,2.1579,2.1579,2.1013,2.0584,2.0584,2.0547,2.0525,2.0497,2.0415,2.0341,2.0311,2.0321,2.0304,2.0304,2.03,2.0312,2.0312,2.0312,2.0308,2.0313,2.0311,2.0207,2.0034,2.0031,1.9523,1.8589,1.92,1.9088,1.8343,1.8302,1.8273,1.8224,1.748,1.7137,1.7101,1.6995,1.6935,1.6863,1.6595,1.6504,1.6545,1.6992,1.6991,1.671,1.6274,1.5503,1.4651,1.4303,1.4197,1.4242,1.4506,1.4053,1.3439,1.3469,1.2904,1.2102,1.119,1.0778,1.0498,1.0185,0.9548,0.8936,0.8721,0.8445,0.8201,0.8114,0.8079,0.8588,1.0074,1.1124,1.2184,1.3526,1.3971,1.4084,1.3934,1.3581,1.3288,1.3198,1.2444,1.1686,1.1056,1.0958,1.086,1.0791,1.1186,1.1572,1.1901,1.211,1.2366,1.2745,1.2129,1.1466,1.0813,1.0115,0.9465,0.8804,0.8804,0.8804,0.8699,0.7235,0.6573,0.6499,0.5054,0.4519,0.4519,0.4519,0.4519,0.4519,0.4519,0.4519,0.4519,2.5005,2.4592,2.4181,2.3783,2.3026,2.2344,2.1953,2.1504,2.1074,2.0644,2.0566,2.0519,2.0454,2.0379,2.034,2.0308,2.0304,2.0312,2.0312,2.0312,2.0312,2.0312,2.0205,2.0161,2.0161,2.0098,2.0144,2.0312,2.0205,1.9896,1.9373,1.9734,1.9623,1.9126,1.9044,1.9027,1.8977,1.84,1.8148,1.8153,1.7972,1.7897,1.7866,1.7452,1.7312,1.7347,1.7522,1.7391,1.7097,1.6617,1.6,1.5361,1.5049,1.4947,1.5007,1.5227,1.466,1.3979,1.4065,1.3451,1.2585,1.1814,1.1457,1.1142,1.0417,0.9903,0.9537,0.9271,0.9087,0.8939,0.8939,0.8939,0.9402,1.0888,1.163,1.2411,1.3429,1.3769,1.3835,1.3581,1.3357,1.302,1.2572,1.224,1.1747,1.102,1.1144,1.1213,1.1246,1.1634,1.1988,1.2203,1.2425,1.2472,1.2382,1.1692,1.0965,1.0312,0.9969,0.9465,0.8804,0.8804,0.8804,0.8699,0.7219,0.6607,0.6489,0.5109,0.4519,0.4519,0.4519,0.4519,0.4519,0.4519,0.4519,0.4529,2.5605,2.5041,2.456,2.4609,2.3906,2.3105,2.2422,2.207,2.164,2.0891,2.0662,2.0525,2.0395,2.0386,2.0366,2.03,2.0312,2.0312,2.0312,2.0312,2.0285,2.0241,2.0078,2.0003,1.9973,1.9858,1.995,2.0216,2.0041,1.9944,1.9933,1.9813,1.975,1.9707,1.9591,1.9541,1.9541,1.9365,1.9274,1.9227,1.9069,1.8966,1.8878,1.8391,1.8187,1.8146,1.7839,1.7457,1.7103,1.6815,1.6506,1.6165,1.5883,1.5799,1.577,1.5712,1.5123,1.4477,1.4428,1.3802,1.3082,1.2508,1.2102,1.1516,1.0464,1.0273,1.0157,0.9725,0.9637,0.9637,0.9637,0.9716,1.0205,1.159,1.2139,1.2602,1.3116,1.3547,1.3648,1.3267,1.3198,1.281,1.1884,1.2148,1.1996,1.1095,1.1427,1.1716,1.1699,1.21,1.2299,1.2299,1.2686,1.2539,1.1796,1.1141,1.0466,0.9814,0.9666,0.9361,0.8804,0.8804,0.8804,0.8692,0.725,0.6587,0.6469,0.5105,0.4519,0.4519,0.4519,0.4519,0.4519,0.4519,0.4532,0.4521,2.5683,2.5585,2.5508,2.5527,2.4805,2.4199,2.4082,2.2832,2.1842,2.1649,2.0937,2.0408,2.0311,2.0308,2.0308,2.0292,2.0312,2.0312,2.0312,2.0312,2.0214,2.006,2.0022,1.9953,1.9824,1.9802,1.9813,1.9866,1.9836,1.9774,1.9643,1.9636,1.9523,1.938,1.935,1.9335,1.9335,1.9305,1.9198,1.9035,1.9001,1.8861,1.8604,1.831,1.8187,1.8125,1.7579,1.6971,1.644,1.6374,1.613,1.587,1.5827,1.5799,1.5712,1.5329,1.4852,1.4415,1.409,1.3615,1.2978,1.2102,1.1847,1.1531,1.0512,1.0273,1.0283,1.0205,1.0196,1.0196,1.0196,1.0534,1.1019,1.17,1.221,1.2638,1.3129,1.3267,1.3267,1.3198,1.3138,1.2722,1.1806,1.2089,1.2089,1.1567,1.19,1.2119,1.2118,1.2539,1.2813,1.2813,1.2871,1.2539,1.1796,1.1141,1.0466,0.9814,0.9211,0.891,0.8804,0.8804,0.8804,0.8692,0.725,0.6615,0.6511,0.5089,0.4519,0.4519,0.4519,0.4519,0.4519,0.4519,0.4548,0.4663,2.5703,2.5703,2.5703,2.5703,2.5371,2.4961,2.4473,2.3745,2.2881,2.1929,2.1823,2.1465,2.0419,2.0312,2.0249,2.0152,2.0241,2.0216,2.0031,2.0199,2.018,1.9901,1.989,1.9824,1.9695,1.9585,1.9513,1.9513,1.9625,1.9675,1.9601,1.9485,1.9398,1.9305,1.9305,1.9246,1.9134,1.9134,1.9,1.877,1.8604,1.8489,1.8351,1.8078,1.7866,1.7631,1.7183,1.6702,1.6297,1.6286,1.6077,1.5799,1.5799,1.561,1.5373,1.5179,1.4651,1.4112,1.3947,1.3365,1.265,1.1957,1.1579,1.1169,1.0467,1.0283,1.0283,1.0283,1.0283,1.0283,1.0283,1.0687,1.1169,1.17,1.2174,1.265,1.3129,1.3496,1.3689,1.3654,1.3293,1.2776,1.211,1.2412,1.2476,1.1978,1.2357,1.2614,1.2614,1.2802,1.2881,1.2881,1.2881,1.2372,1.125,1.0931,1.0261,0.9263,0.8962,0.8804,0.8804,0.8804,0.8804,0.8692,0.7264,0.6605,0.6469,0.5105,0.4519,0.4519,0.4519,0.457,0.4589,0.4589,0.4687,0.483]}]]